<?xml version="1.0" encoding="UTF-8" standalone="no" ?>
<gpx xmlns="http://www.topografix.com/GPX/1/1" xmlns:xsi="http://www.w3.org/2001/XMLSchema-instance" xsi:schemaLocation="http://www.topografix.com/GPX/1/1 http://www.topografix.com/GPX/1/1/gpx.xsd" version="1.1" creator="VisuGPX - https://www.visugpx.com">
  <metadata>
    <name>Entrainement trail du 09/06/2016</name>
    <desc><![CDATA[Course a pied]]></desc>
  </metadata>
  <trk>
    <name><![CDATA[Crest Course à pied]]></name>
    <trkseg>
      <trkpt lat="44.72946" lon="5.02784">
        <ele>203.80000305176</ele>
        <time>2016-06-09T14:16:23.000Z</time>
      </trkpt>
      <trkpt lat="44.72947" lon="5.02782">
        <ele>203.80000305176</ele>
        <time>2016-06-09T14:16:24.000Z</time>
      </trkpt>
      <trkpt lat="44.72951" lon="5.02774">
        <ele>204.19999694824</ele>
        <time>2016-06-09T14:16:28.000Z</time>
      </trkpt>
      <trkpt lat="44.7295" lon="5.02766">
        <ele>204</ele>
        <time>2016-06-09T14:16:31.000Z</time>
      </trkpt>
      <trkpt lat="44.72948" lon="5.02755">
        <ele>204.19999694824</ele>
        <time>2016-06-09T14:16:34.000Z</time>
      </trkpt>
      <trkpt lat="44.72946" lon="5.02747">
        <ele>204.39999389648</ele>
        <time>2016-06-09T14:16:37.000Z</time>
      </trkpt>
      <trkpt lat="44.72946" lon="5.02742">
        <ele>204.80000305176</ele>
        <time>2016-06-09T14:16:39.000Z</time>
      </trkpt>
      <trkpt lat="44.72946" lon="5.02729">
        <ele>204.80000305176</ele>
        <time>2016-06-09T14:16:44.000Z</time>
      </trkpt>
      <trkpt lat="44.72946" lon="5.02723">
        <ele>205</ele>
        <time>2016-06-09T14:16:46.000Z</time>
      </trkpt>
      <trkpt lat="44.7295" lon="5.02707">
        <ele>204.60000610352</ele>
        <time>2016-06-09T14:16:51.000Z</time>
      </trkpt>
      <trkpt lat="44.72951" lon="5.02704">
        <ele>204.80000305176</ele>
        <time>2016-06-09T14:16:52.000Z</time>
      </trkpt>
      <trkpt lat="44.72954" lon="5.02696">
        <ele>204.60000610352</ele>
        <time>2016-06-09T14:16:55.000Z</time>
      </trkpt>
      <trkpt lat="44.72959" lon="5.02693">
        <ele>204.80000305176</ele>
        <time>2016-06-09T14:16:59.000Z</time>
      </trkpt>
      <trkpt lat="44.72962" lon="5.02688">
        <ele>205.80000305176</ele>
        <time>2016-06-09T14:17:04.000Z</time>
      </trkpt>
      <trkpt lat="44.72963" lon="5.02688">
        <ele>206.19999694824</ele>
        <time>2016-06-09T14:17:05.000Z</time>
      </trkpt>
      <trkpt lat="44.72964" lon="5.02688">
        <ele>206.39999389648</ele>
        <time>2016-06-09T14:17:06.000Z</time>
      </trkpt>
      <trkpt lat="44.72966" lon="5.02688">
        <ele>207.19999694824</ele>
        <time>2016-06-09T14:17:08.000Z</time>
      </trkpt>
      <trkpt lat="44.72967" lon="5.02688">
        <ele>207.60000610352</ele>
        <time>2016-06-09T14:17:09.000Z</time>
      </trkpt>
      <trkpt lat="44.72968" lon="5.02688">
        <ele>208.19999694824</ele>
        <time>2016-06-09T14:17:11.000Z</time>
      </trkpt>
      <trkpt lat="44.72969" lon="5.02686">
        <ele>208.80000305176</ele>
        <time>2016-06-09T14:17:14.000Z</time>
      </trkpt>
      <trkpt lat="44.72971" lon="5.02684">
        <ele>209.39999389648</ele>
        <time>2016-06-09T14:17:16.000Z</time>
      </trkpt>
      <trkpt lat="44.72973" lon="5.0268">
        <ele>210</ele>
        <time>2016-06-09T14:17:19.000Z</time>
      </trkpt>
      <trkpt lat="44.72974" lon="5.02679">
        <ele>210</ele>
        <time>2016-06-09T14:17:20.000Z</time>
      </trkpt>
      <trkpt lat="44.72977" lon="5.02676">
        <ele>210.60000610352</ele>
        <time>2016-06-09T14:17:24.000Z</time>
      </trkpt>
      <trkpt lat="44.72977" lon="5.02675">
        <ele>211</ele>
        <time>2016-06-09T14:17:25.000Z</time>
      </trkpt>
      <trkpt lat="44.72979" lon="5.02674">
        <ele>211.80000305176</ele>
        <time>2016-06-09T14:17:28.000Z</time>
      </trkpt>
      <trkpt lat="44.72982" lon="5.02672">
        <ele>212.19999694824</ele>
        <time>2016-06-09T14:17:30.000Z</time>
      </trkpt>
      <trkpt lat="44.72984" lon="5.02669">
        <ele>212.60000610352</ele>
        <time>2016-06-09T14:17:33.000Z</time>
      </trkpt>
      <trkpt lat="44.72987" lon="5.02666">
        <ele>212.80000305176</ele>
        <time>2016-06-09T14:17:35.000Z</time>
      </trkpt>
      <trkpt lat="44.72988" lon="5.02664">
        <ele>213</ele>
        <time>2016-06-09T14:17:37.000Z</time>
      </trkpt>
      <trkpt lat="44.72985" lon="5.02658">
        <ele>213.39999389648</ele>
        <time>2016-06-09T14:17:42.000Z</time>
      </trkpt>
      <trkpt lat="44.72984" lon="5.0265">
        <ele>214</ele>
        <time>2016-06-09T14:17:47.000Z</time>
      </trkpt>
      <trkpt lat="44.72982" lon="5.02639">
        <ele>215</ele>
        <time>2016-06-09T14:17:54.000Z</time>
      </trkpt>
      <trkpt lat="44.72983" lon="5.02631">
        <ele>215.80000305176</ele>
        <time>2016-06-09T14:17:59.000Z</time>
      </trkpt>
      <trkpt lat="44.72983" lon="5.02627">
        <ele>216.19999694824</ele>
        <time>2016-06-09T14:18:01.000Z</time>
      </trkpt>
      <trkpt lat="44.72985" lon="5.02624">
        <ele>216.80000305176</ele>
        <time>2016-06-09T14:18:04.000Z</time>
      </trkpt>
      <trkpt lat="44.72985" lon="5.02622">
        <ele>217</ele>
        <time>2016-06-09T14:18:05.000Z</time>
      </trkpt>
      <trkpt lat="44.72986" lon="5.02619">
        <ele>217.39999389648</ele>
        <time>2016-06-09T14:18:07.000Z</time>
      </trkpt>
      <trkpt lat="44.72986" lon="5.02618">
        <ele>217.60000610352</ele>
        <time>2016-06-09T14:18:08.000Z</time>
      </trkpt>
      <trkpt lat="44.72987" lon="5.0261">
        <ele>218.39999389648</ele>
        <time>2016-06-09T14:18:13.000Z</time>
      </trkpt>
      <trkpt lat="44.7299" lon="5.02602">
        <ele>219.19999694824</ele>
        <time>2016-06-09T14:18:19.000Z</time>
      </trkpt>
      <trkpt lat="44.72991" lon="5.026">
        <ele>219.60000610352</ele>
        <time>2016-06-09T14:18:21.000Z</time>
      </trkpt>
      <trkpt lat="44.72991" lon="5.02597">
        <ele>219.80000305176</ele>
        <time>2016-06-09T14:18:23.000Z</time>
      </trkpt>
      <trkpt lat="44.72991" lon="5.02594">
        <ele>220.19999694824</ele>
        <time>2016-06-09T14:18:25.000Z</time>
      </trkpt>
      <trkpt lat="44.72991" lon="5.02591">
        <ele>220.39999389648</ele>
        <time>2016-06-09T14:18:28.000Z</time>
      </trkpt>
      <trkpt lat="44.72991" lon="5.02589">
        <ele>220.60000610352</ele>
        <time>2016-06-09T14:18:29.000Z</time>
      </trkpt>
      <trkpt lat="44.72991" lon="5.02587">
        <ele>220.80000305176</ele>
        <time>2016-06-09T14:18:31.000Z</time>
      </trkpt>
      <trkpt lat="44.72991" lon="5.02584">
        <ele>221.19999694824</ele>
        <time>2016-06-09T14:18:33.000Z</time>
      </trkpt>
      <trkpt lat="44.7299" lon="5.02581">
        <ele>221.60000610352</ele>
        <time>2016-06-09T14:18:35.000Z</time>
      </trkpt>
      <trkpt lat="44.72991" lon="5.02577">
        <ele>222</ele>
        <time>2016-06-09T14:18:37.000Z</time>
      </trkpt>
      <trkpt lat="44.72992" lon="5.02571">
        <ele>222.60000610352</ele>
        <time>2016-06-09T14:18:42.000Z</time>
      </trkpt>
      <trkpt lat="44.72993" lon="5.0257">
        <ele>222.60000610352</ele>
        <time>2016-06-09T14:18:43.000Z</time>
      </trkpt>
      <trkpt lat="44.72994" lon="5.02568">
        <ele>223.19999694824</ele>
        <time>2016-06-09T14:18:46.000Z</time>
      </trkpt>
      <trkpt lat="44.72995" lon="5.02565">
        <ele>223.60000610352</ele>
        <time>2016-06-09T14:18:49.000Z</time>
      </trkpt>
      <trkpt lat="44.72996" lon="5.02564">
        <ele>223.80000305176</ele>
        <time>2016-06-09T14:18:50.000Z</time>
      </trkpt>
      <trkpt lat="44.72999" lon="5.02559">
        <ele>224.60000610352</ele>
        <time>2016-06-09T14:18:54.000Z</time>
      </trkpt>
      <trkpt lat="44.72999" lon="5.02558">
        <ele>225</ele>
        <time>2016-06-09T14:18:55.000Z</time>
      </trkpt>
      <trkpt lat="44.73" lon="5.02556">
        <ele>225.60000610352</ele>
        <time>2016-06-09T14:18:58.000Z</time>
      </trkpt>
      <trkpt lat="44.73" lon="5.02555">
        <ele>225.80000305176</ele>
        <time>2016-06-09T14:18:59.000Z</time>
      </trkpt>
      <trkpt lat="44.73" lon="5.02555">
        <ele>226</ele>
        <time>2016-06-09T14:19:00.000Z</time>
      </trkpt>
      <trkpt lat="44.73001" lon="5.0255">
        <ele>227.39999389648</ele>
        <time>2016-06-09T14:19:04.000Z</time>
      </trkpt>
      <trkpt lat="44.73001" lon="5.02549">
        <ele>228.19999694824</ele>
        <time>2016-06-09T14:19:06.000Z</time>
      </trkpt>
      <trkpt lat="44.73002" lon="5.02549">
        <ele>228.39999389648</ele>
        <time>2016-06-09T14:19:07.000Z</time>
      </trkpt>
      <trkpt lat="44.73001" lon="5.02544">
        <ele>229.60000610352</ele>
        <time>2016-06-09T14:19:11.000Z</time>
      </trkpt>
      <trkpt lat="44.73" lon="5.02543">
        <ele>229.60000610352</ele>
        <time>2016-06-09T14:19:12.000Z</time>
      </trkpt>
      <trkpt lat="44.72999" lon="5.02538">
        <ele>230.80000305176</ele>
        <time>2016-06-09T14:19:17.000Z</time>
      </trkpt>
      <trkpt lat="44.72998" lon="5.02534">
        <ele>231.60000610352</ele>
        <time>2016-06-09T14:19:22.000Z</time>
      </trkpt>
      <trkpt lat="44.72997" lon="5.02533">
        <ele>231.80000305176</ele>
        <time>2016-06-09T14:19:23.000Z</time>
      </trkpt>
      <trkpt lat="44.72996" lon="5.02529">
        <ele>232.39999389648</ele>
        <time>2016-06-09T14:19:27.000Z</time>
      </trkpt>
      <trkpt lat="44.72995" lon="5.02523">
        <ele>233</ele>
        <time>2016-06-09T14:19:31.000Z</time>
      </trkpt>
      <trkpt lat="44.72995" lon="5.02522">
        <ele>233</ele>
        <time>2016-06-09T14:19:32.000Z</time>
      </trkpt>
      <trkpt lat="44.72994" lon="5.0252">
        <ele>233.19999694824</ele>
        <time>2016-06-09T14:19:33.000Z</time>
      </trkpt>
      <trkpt lat="44.72993" lon="5.02516">
        <ele>233.80000305176</ele>
        <time>2016-06-09T14:19:36.000Z</time>
      </trkpt>
      <trkpt lat="44.72994" lon="5.02515">
        <ele>234.19999694824</ele>
        <time>2016-06-09T14:19:37.000Z</time>
      </trkpt>
      <trkpt lat="44.72992" lon="5.0251">
        <ele>234.80000305176</ele>
        <time>2016-06-09T14:19:41.000Z</time>
      </trkpt>
      <trkpt lat="44.72992" lon="5.02509">
        <ele>235</ele>
        <time>2016-06-09T14:19:42.000Z</time>
      </trkpt>
      <trkpt lat="44.72992" lon="5.02507">
        <ele>235.19999694824</ele>
        <time>2016-06-09T14:19:44.000Z</time>
      </trkpt>
      <trkpt lat="44.72993" lon="5.02502">
        <ele>235.60000610352</ele>
        <time>2016-06-09T14:19:47.000Z</time>
      </trkpt>
      <trkpt lat="44.72994" lon="5.02497">
        <ele>235.80000305176</ele>
        <time>2016-06-09T14:19:49.000Z</time>
      </trkpt>
      <trkpt lat="44.72994" lon="5.02496">
        <ele>236</ele>
        <time>2016-06-09T14:19:50.000Z</time>
      </trkpt>
      <trkpt lat="44.72995" lon="5.02495">
        <ele>236</ele>
        <time>2016-06-09T14:19:51.000Z</time>
      </trkpt>
      <trkpt lat="44.72994" lon="5.02492">
        <ele>236.19999694824</ele>
        <time>2016-06-09T14:19:53.000Z</time>
      </trkpt>
      <trkpt lat="44.72994" lon="5.02491">
        <ele>236.39999389648</ele>
        <time>2016-06-09T14:19:54.000Z</time>
      </trkpt>
      <trkpt lat="44.72994" lon="5.02486">
        <ele>236.60000610352</ele>
        <time>2016-06-09T14:19:58.000Z</time>
      </trkpt>
      <trkpt lat="44.72994" lon="5.02485">
        <ele>236.80000305176</ele>
        <time>2016-06-09T14:19:59.000Z</time>
      </trkpt>
      <trkpt lat="44.72994" lon="5.02483">
        <ele>236.80000305176</ele>
        <time>2016-06-09T14:20:00.000Z</time>
      </trkpt>
      <trkpt lat="44.72993" lon="5.02479">
        <ele>237.19999694824</ele>
        <time>2016-06-09T14:20:03.000Z</time>
      </trkpt>
      <trkpt lat="44.72993" lon="5.02478">
        <ele>237.60000610352</ele>
        <time>2016-06-09T14:20:04.000Z</time>
      </trkpt>
      <trkpt lat="44.72996" lon="5.02476">
        <ele>238.39999389648</ele>
        <time>2016-06-09T14:20:07.000Z</time>
      </trkpt>
      <trkpt lat="44.72997" lon="5.02475">
        <ele>238.60000610352</ele>
        <time>2016-06-09T14:20:08.000Z</time>
      </trkpt>
      <trkpt lat="44.72998" lon="5.0247">
        <ele>239.39999389648</ele>
        <time>2016-06-09T14:20:11.000Z</time>
      </trkpt>
      <trkpt lat="44.72999" lon="5.02466">
        <ele>239.60000610352</ele>
        <time>2016-06-09T14:20:13.000Z</time>
      </trkpt>
      <trkpt lat="44.73001" lon="5.02463">
        <ele>240</ele>
        <time>2016-06-09T14:20:15.000Z</time>
      </trkpt>
      <trkpt lat="44.73" lon="5.02461">
        <ele>240.39999389648</ele>
        <time>2016-06-09T14:20:18.000Z</time>
      </trkpt>
      <trkpt lat="44.72999" lon="5.02459">
        <ele>241.60000610352</ele>
        <time>2016-06-09T14:20:23.000Z</time>
      </trkpt>
      <trkpt lat="44.72999" lon="5.02456">
        <ele>242.60000610352</ele>
        <time>2016-06-09T14:20:27.000Z</time>
      </trkpt>
      <trkpt lat="44.72999" lon="5.02454">
        <ele>243.80000305176</ele>
        <time>2016-06-09T14:20:31.000Z</time>
      </trkpt>
      <trkpt lat="44.72999" lon="5.02451">
        <ele>244.60000610352</ele>
        <time>2016-06-09T14:20:34.000Z</time>
      </trkpt>
      <trkpt lat="44.72999" lon="5.0245">
        <ele>245</ele>
        <time>2016-06-09T14:20:35.000Z</time>
      </trkpt>
      <trkpt lat="44.72999" lon="5.0245">
        <ele>246</ele>
        <time>2016-06-09T14:20:38.000Z</time>
      </trkpt>
      <trkpt lat="44.73" lon="5.02449">
        <ele>247</ele>
        <time>2016-06-09T14:20:41.000Z</time>
      </trkpt>
      <trkpt lat="44.73" lon="5.02449">
        <ele>247.39999389648</ele>
        <time>2016-06-09T14:20:42.000Z</time>
      </trkpt>
      <trkpt lat="44.73003" lon="5.02452">
        <ele>248.19999694824</ele>
        <time>2016-06-09T14:20:47.000Z</time>
      </trkpt>
      <trkpt lat="44.73004" lon="5.02452">
        <ele>248.39999389648</ele>
        <time>2016-06-09T14:20:48.000Z</time>
      </trkpt>
      <trkpt lat="44.73007" lon="5.02452">
        <ele>248.39999389648</ele>
        <time>2016-06-09T14:20:51.000Z</time>
      </trkpt>
      <trkpt lat="44.73011" lon="5.02453">
        <ele>249.39999389648</ele>
        <time>2016-06-09T14:20:56.000Z</time>
      </trkpt>
      <trkpt lat="44.73013" lon="5.02454">
        <ele>249.60000610352</ele>
        <time>2016-06-09T14:20:58.000Z</time>
      </trkpt>
      <trkpt lat="44.73016" lon="5.02457">
        <ele>250.19999694824</ele>
        <time>2016-06-09T14:21:01.000Z</time>
      </trkpt>
      <trkpt lat="44.73017" lon="5.02458">
        <ele>250.39999389648</ele>
        <time>2016-06-09T14:21:02.000Z</time>
      </trkpt>
      <trkpt lat="44.73021" lon="5.0246">
        <ele>251.19999694824</ele>
        <time>2016-06-09T14:21:06.000Z</time>
      </trkpt>
      <trkpt lat="44.73022" lon="5.02462">
        <ele>251.60000610352</ele>
        <time>2016-06-09T14:21:09.000Z</time>
      </trkpt>
      <trkpt lat="44.73023" lon="5.02463">
        <ele>251.60000610352</ele>
        <time>2016-06-09T14:21:10.000Z</time>
      </trkpt>
      <trkpt lat="44.73024" lon="5.02464">
        <ele>251.80000305176</ele>
        <time>2016-06-09T14:21:12.000Z</time>
      </trkpt>
      <trkpt lat="44.73026" lon="5.02465">
        <ele>252</ele>
        <time>2016-06-09T14:21:13.000Z</time>
      </trkpt>
      <trkpt lat="44.73029" lon="5.02466">
        <ele>252.60000610352</ele>
        <time>2016-06-09T14:21:16.000Z</time>
      </trkpt>
      <trkpt lat="44.7303" lon="5.02466">
        <ele>252.80000305176</ele>
        <time>2016-06-09T14:21:17.000Z</time>
      </trkpt>
      <trkpt lat="44.73031" lon="5.02466">
        <ele>253.19999694824</ele>
        <time>2016-06-09T14:21:19.000Z</time>
      </trkpt>
      <trkpt lat="44.73033" lon="5.02466">
        <ele>253.80000305176</ele>
        <time>2016-06-09T14:21:22.000Z</time>
      </trkpt>
      <trkpt lat="44.73035" lon="5.02468">
        <ele>254.19999694824</ele>
        <time>2016-06-09T14:21:24.000Z</time>
      </trkpt>
      <trkpt lat="44.73038" lon="5.0247">
        <ele>254.80000305176</ele>
        <time>2016-06-09T14:21:27.000Z</time>
      </trkpt>
      <trkpt lat="44.73038" lon="5.0247">
        <ele>255</ele>
        <time>2016-06-09T14:21:28.000Z</time>
      </trkpt>
      <trkpt lat="44.73039" lon="5.0247">
        <ele>255.60000610352</ele>
        <time>2016-06-09T14:21:31.000Z</time>
      </trkpt>
      <trkpt lat="44.7304" lon="5.0247">
        <ele>256</ele>
        <time>2016-06-09T14:21:33.000Z</time>
      </trkpt>
      <trkpt lat="44.73041" lon="5.02468">
        <ele>256.60000610352</ele>
        <time>2016-06-09T14:21:36.000Z</time>
      </trkpt>
      <trkpt lat="44.73041" lon="5.02466">
        <ele>257</ele>
        <time>2016-06-09T14:21:38.000Z</time>
      </trkpt>
      <trkpt lat="44.7304" lon="5.02464">
        <ele>257.79998779297</ele>
        <time>2016-06-09T14:21:41.000Z</time>
      </trkpt>
      <trkpt lat="44.73039" lon="5.02464">
        <ele>258</ele>
        <time>2016-06-09T14:21:42.000Z</time>
      </trkpt>
      <trkpt lat="44.7304" lon="5.02462">
        <ele>258.39999389648</ele>
        <time>2016-06-09T14:21:45.000Z</time>
      </trkpt>
      <trkpt lat="44.73041" lon="5.02456">
        <ele>259.20001220703</ele>
        <time>2016-06-09T14:21:50.000Z</time>
      </trkpt>
      <trkpt lat="44.73043" lon="5.02451">
        <ele>260.20001220703</ele>
        <time>2016-06-09T14:21:55.000Z</time>
      </trkpt>
      <trkpt lat="44.73043" lon="5.02447">
        <ele>261.20001220703</ele>
        <time>2016-06-09T14:22:00.000Z</time>
      </trkpt>
      <trkpt lat="44.73043" lon="5.02446">
        <ele>261.60000610352</ele>
        <time>2016-06-09T14:22:01.000Z</time>
      </trkpt>
      <trkpt lat="44.73045" lon="5.02442">
        <ele>262.60000610352</ele>
        <time>2016-06-09T14:22:05.000Z</time>
      </trkpt>
      <trkpt lat="44.73045" lon="5.02441">
        <ele>263</ele>
        <time>2016-06-09T14:22:07.000Z</time>
      </trkpt>
      <trkpt lat="44.73045" lon="5.02439">
        <ele>263.79998779297</ele>
        <time>2016-06-09T14:22:11.000Z</time>
      </trkpt>
      <trkpt lat="44.73044" lon="5.02437">
        <ele>265</ele>
        <time>2016-06-09T14:22:16.000Z</time>
      </trkpt>
      <trkpt lat="44.73044" lon="5.02434">
        <ele>266.20001220703</ele>
        <time>2016-06-09T14:22:21.000Z</time>
      </trkpt>
      <trkpt lat="44.73044" lon="5.02432">
        <ele>266.79998779297</ele>
        <time>2016-06-09T14:22:23.000Z</time>
      </trkpt>
      <trkpt lat="44.73042" lon="5.0243">
        <ele>267.39999389648</ele>
        <time>2016-06-09T14:22:26.000Z</time>
      </trkpt>
      <trkpt lat="44.73042" lon="5.02428">
        <ele>268</ele>
        <time>2016-06-09T14:22:29.000Z</time>
      </trkpt>
      <trkpt lat="44.73041" lon="5.02426">
        <ele>268.39999389648</ele>
        <time>2016-06-09T14:22:31.000Z</time>
      </trkpt>
      <trkpt lat="44.73041" lon="5.02421">
        <ele>269.60000610352</ele>
        <time>2016-06-09T14:22:36.000Z</time>
      </trkpt>
      <trkpt lat="44.73044" lon="5.02416">
        <ele>270.60000610352</ele>
        <time>2016-06-09T14:22:41.000Z</time>
      </trkpt>
      <trkpt lat="44.73045" lon="5.02416">
        <ele>270.79998779297</ele>
        <time>2016-06-09T14:22:42.000Z</time>
      </trkpt>
      <trkpt lat="44.73048" lon="5.02417">
        <ele>271.39999389648</ele>
        <time>2016-06-09T14:22:45.000Z</time>
      </trkpt>
      <trkpt lat="44.73049" lon="5.02417">
        <ele>271.79998779297</ele>
        <time>2016-06-09T14:22:46.000Z</time>
      </trkpt>
      <trkpt lat="44.73053" lon="5.02417">
        <ele>272.79998779297</ele>
        <time>2016-06-09T14:22:50.000Z</time>
      </trkpt>
      <trkpt lat="44.73054" lon="5.02418">
        <ele>273</ele>
        <time>2016-06-09T14:22:51.000Z</time>
      </trkpt>
      <trkpt lat="44.73055" lon="5.02418">
        <ele>273.20001220703</ele>
        <time>2016-06-09T14:22:52.000Z</time>
      </trkpt>
      <trkpt lat="44.73058" lon="5.0242">
        <ele>273.79998779297</ele>
        <time>2016-06-09T14:22:55.000Z</time>
      </trkpt>
      <trkpt lat="44.7306" lon="5.02423">
        <ele>274.60000610352</ele>
        <time>2016-06-09T14:22:59.000Z</time>
      </trkpt>
      <trkpt lat="44.73061" lon="5.02423">
        <ele>274.79998779297</ele>
        <time>2016-06-09T14:23:00.000Z</time>
      </trkpt>
      <trkpt lat="44.73062" lon="5.02423">
        <ele>275</ele>
        <time>2016-06-09T14:23:01.000Z</time>
      </trkpt>
      <trkpt lat="44.73064" lon="5.02424">
        <ele>275.20001220703</ele>
        <time>2016-06-09T14:23:04.000Z</time>
      </trkpt>
      <trkpt lat="44.73066" lon="5.02426">
        <ele>275.39999389648</ele>
        <time>2016-06-09T14:23:06.000Z</time>
      </trkpt>
      <trkpt lat="44.73066" lon="5.02426">
        <ele>276</ele>
        <time>2016-06-09T14:23:09.000Z</time>
      </trkpt>
      <trkpt lat="44.73067" lon="5.02427">
        <ele>276.20001220703</ele>
        <time>2016-06-09T14:23:10.000Z</time>
      </trkpt>
      <trkpt lat="44.7307" lon="5.0243">
        <ele>277</ele>
        <time>2016-06-09T14:23:14.000Z</time>
      </trkpt>
      <trkpt lat="44.7307" lon="5.0243">
        <ele>277.20001220703</ele>
        <time>2016-06-09T14:23:15.000Z</time>
      </trkpt>
      <trkpt lat="44.73073" lon="5.02431">
        <ele>277.79998779297</ele>
        <time>2016-06-09T14:23:18.000Z</time>
      </trkpt>
      <trkpt lat="44.73074" lon="5.02431">
        <ele>278.39999389648</ele>
        <time>2016-06-09T14:23:20.000Z</time>
      </trkpt>
      <trkpt lat="44.73076" lon="5.02432">
        <ele>278.79998779297</ele>
        <time>2016-06-09T14:23:23.000Z</time>
      </trkpt>
      <trkpt lat="44.73077" lon="5.02433">
        <ele>279.60000610352</ele>
        <time>2016-06-09T14:23:27.000Z</time>
      </trkpt>
      <trkpt lat="44.73078" lon="5.02434">
        <ele>279.79998779297</ele>
        <time>2016-06-09T14:23:28.000Z</time>
      </trkpt>
      <trkpt lat="44.7308" lon="5.02434">
        <ele>280.60000610352</ele>
        <time>2016-06-09T14:23:30.000Z</time>
      </trkpt>
      <trkpt lat="44.73082" lon="5.02435">
        <ele>281.39999389648</ele>
        <time>2016-06-09T14:23:33.000Z</time>
      </trkpt>
      <trkpt lat="44.73086" lon="5.02436">
        <ele>281.79998779297</ele>
        <time>2016-06-09T14:23:37.000Z</time>
      </trkpt>
      <trkpt lat="44.73088" lon="5.02437">
        <ele>282</ele>
        <time>2016-06-09T14:23:38.000Z</time>
      </trkpt>
      <trkpt lat="44.73088" lon="5.02438">
        <ele>282.20001220703</ele>
        <time>2016-06-09T14:23:39.000Z</time>
      </trkpt>
      <trkpt lat="44.7309" lon="5.02439">
        <ele>283</ele>
        <time>2016-06-09T14:23:43.000Z</time>
      </trkpt>
      <trkpt lat="44.73092" lon="5.0244">
        <ele>283.39999389648</ele>
        <time>2016-06-09T14:23:44.000Z</time>
      </trkpt>
      <trkpt lat="44.73095" lon="5.02443">
        <ele>283.79998779297</ele>
        <time>2016-06-09T14:23:48.000Z</time>
      </trkpt>
      <trkpt lat="44.73098" lon="5.02447">
        <ele>284.20001220703</ele>
        <time>2016-06-09T14:23:51.000Z</time>
      </trkpt>
      <trkpt lat="44.73099" lon="5.02449">
        <ele>284.39999389648</ele>
        <time>2016-06-09T14:23:52.000Z</time>
      </trkpt>
      <trkpt lat="44.73102" lon="5.02453">
        <ele>285.20001220703</ele>
        <time>2016-06-09T14:23:56.000Z</time>
      </trkpt>
      <trkpt lat="44.73104" lon="5.02455">
        <ele>285.60000610352</ele>
        <time>2016-06-09T14:23:58.000Z</time>
      </trkpt>
      <trkpt lat="44.73107" lon="5.02459">
        <ele>286</ele>
        <time>2016-06-09T14:24:01.000Z</time>
      </trkpt>
      <trkpt lat="44.73108" lon="5.02461">
        <ele>286.20001220703</ele>
        <time>2016-06-09T14:24:02.000Z</time>
      </trkpt>
      <trkpt lat="44.7311" lon="5.02463">
        <ele>286.20001220703</ele>
        <time>2016-06-09T14:24:05.000Z</time>
      </trkpt>
      <trkpt lat="44.73113" lon="5.02468">
        <ele>287</ele>
        <time>2016-06-09T14:24:08.000Z</time>
      </trkpt>
      <trkpt lat="44.73114" lon="5.02469">
        <ele>287.20001220703</ele>
        <time>2016-06-09T14:24:09.000Z</time>
      </trkpt>
      <trkpt lat="44.73118" lon="5.02471">
        <ele>287.60000610352</ele>
        <time>2016-06-09T14:24:12.000Z</time>
      </trkpt>
      <trkpt lat="44.73119" lon="5.02471">
        <ele>287.79998779297</ele>
        <time>2016-06-09T14:24:13.000Z</time>
      </trkpt>
      <trkpt lat="44.73119" lon="5.02469">
        <ele>288.60000610352</ele>
        <time>2016-06-09T14:24:17.000Z</time>
      </trkpt>
      <trkpt lat="44.73119" lon="5.02468">
        <ele>288.79998779297</ele>
        <time>2016-06-09T14:24:18.000Z</time>
      </trkpt>
      <trkpt lat="44.73118" lon="5.02467">
        <ele>289</ele>
        <time>2016-06-09T14:24:19.000Z</time>
      </trkpt>
      <trkpt lat="44.73118" lon="5.02463">
        <ele>289.60000610352</ele>
        <time>2016-06-09T14:24:23.000Z</time>
      </trkpt>
      <trkpt lat="44.73118" lon="5.02462">
        <ele>289.79998779297</ele>
        <time>2016-06-09T14:24:24.000Z</time>
      </trkpt>
      <trkpt lat="44.73117" lon="5.0246">
        <ele>290.79998779297</ele>
        <time>2016-06-09T14:24:27.000Z</time>
      </trkpt>
      <trkpt lat="44.73117" lon="5.02458">
        <ele>291</ele>
        <time>2016-06-09T14:24:29.000Z</time>
      </trkpt>
      <trkpt lat="44.73117" lon="5.02455">
        <ele>291.79998779297</ele>
        <time>2016-06-09T14:24:32.000Z</time>
      </trkpt>
      <trkpt lat="44.73116" lon="5.02452">
        <ele>292.20001220703</ele>
        <time>2016-06-09T14:24:34.000Z</time>
      </trkpt>
      <trkpt lat="44.73117" lon="5.0245">
        <ele>293</ele>
        <time>2016-06-09T14:24:36.000Z</time>
      </trkpt>
      <trkpt lat="44.73117" lon="5.02448">
        <ele>293.39999389648</ele>
        <time>2016-06-09T14:24:38.000Z</time>
      </trkpt>
      <trkpt lat="44.73117" lon="5.02442">
        <ele>294</ele>
        <time>2016-06-09T14:24:41.000Z</time>
      </trkpt>
      <trkpt lat="44.73118" lon="5.02442">
        <ele>293.79998779297</ele>
        <time>2016-06-09T14:24:42.000Z</time>
      </trkpt>
      <trkpt lat="44.73119" lon="5.02436">
        <ele>294.60000610352</ele>
        <time>2016-06-09T14:24:46.000Z</time>
      </trkpt>
      <trkpt lat="44.73121" lon="5.02431">
        <ele>294.79998779297</ele>
        <time>2016-06-09T14:24:49.000Z</time>
      </trkpt>
      <trkpt lat="44.73121" lon="5.02429">
        <ele>295</ele>
        <time>2016-06-09T14:24:50.000Z</time>
      </trkpt>
      <trkpt lat="44.73126" lon="5.02423">
        <ele>295.79998779297</ele>
        <time>2016-06-09T14:24:53.000Z</time>
      </trkpt>
      <trkpt lat="44.73127" lon="5.0242">
        <ele>295.60000610352</ele>
        <time>2016-06-09T14:24:54.000Z</time>
      </trkpt>
      <trkpt lat="44.73129" lon="5.02411">
        <ele>296</ele>
        <time>2016-06-09T14:24:57.000Z</time>
      </trkpt>
      <trkpt lat="44.73131" lon="5.02408">
        <ele>296</ele>
        <time>2016-06-09T14:24:59.000Z</time>
      </trkpt>
      <trkpt lat="44.73132" lon="5.02407">
        <ele>296</ele>
        <time>2016-06-09T14:25:00.000Z</time>
      </trkpt>
      <trkpt lat="44.73136" lon="5.02402">
        <ele>295</ele>
        <time>2016-06-09T14:25:03.000Z</time>
      </trkpt>
      <trkpt lat="44.73138" lon="5.024">
        <ele>294.39999389648</ele>
        <time>2016-06-09T14:25:04.000Z</time>
      </trkpt>
      <trkpt lat="44.73139" lon="5.024">
        <ele>294.20001220703</ele>
        <time>2016-06-09T14:25:05.000Z</time>
      </trkpt>
      <trkpt lat="44.7314" lon="5.024">
        <ele>293.60000610352</ele>
        <time>2016-06-09T14:25:06.000Z</time>
      </trkpt>
      <trkpt lat="44.73142" lon="5.02402">
        <ele>292.79998779297</ele>
        <time>2016-06-09T14:25:08.000Z</time>
      </trkpt>
      <trkpt lat="44.73144" lon="5.02403">
        <ele>292.39999389648</ele>
        <time>2016-06-09T14:25:09.000Z</time>
      </trkpt>
      <trkpt lat="44.73145" lon="5.02407">
        <ele>291.79998779297</ele>
        <time>2016-06-09T14:25:12.000Z</time>
      </trkpt>
      <trkpt lat="44.73148" lon="5.02412">
        <ele>292</ele>
        <time>2016-06-09T14:25:16.000Z</time>
      </trkpt>
      <trkpt lat="44.7315" lon="5.02415">
        <ele>292.60000610352</ele>
        <time>2016-06-09T14:25:19.000Z</time>
      </trkpt>
      <trkpt lat="44.73149" lon="5.02416">
        <ele>292.79998779297</ele>
        <time>2016-06-09T14:25:20.000Z</time>
      </trkpt>
      <trkpt lat="44.73149" lon="5.02417">
        <ele>293</ele>
        <time>2016-06-09T14:25:21.000Z</time>
      </trkpt>
      <trkpt lat="44.73149" lon="5.02418">
        <ele>293.39999389648</ele>
        <time>2016-06-09T14:25:22.000Z</time>
      </trkpt>
      <trkpt lat="44.73151" lon="5.0242">
        <ele>294.20001220703</ele>
        <time>2016-06-09T14:25:24.000Z</time>
      </trkpt>
      <trkpt lat="44.73151" lon="5.0242">
        <ele>294.60000610352</ele>
        <time>2016-06-09T14:25:25.000Z</time>
      </trkpt>
      <trkpt lat="44.73152" lon="5.02421">
        <ele>295</ele>
        <time>2016-06-09T14:25:27.000Z</time>
      </trkpt>
      <trkpt lat="44.73152" lon="5.02421">
        <ele>295.20001220703</ele>
        <time>2016-06-09T14:25:28.000Z</time>
      </trkpt>
      <trkpt lat="44.73154" lon="5.02421">
        <ele>295.79998779297</ele>
        <time>2016-06-09T14:25:30.000Z</time>
      </trkpt>
      <trkpt lat="44.73154" lon="5.02421">
        <ele>296</ele>
        <time>2016-06-09T14:25:31.000Z</time>
      </trkpt>
      <trkpt lat="44.73155" lon="5.02421">
        <ele>297.20001220703</ele>
        <time>2016-06-09T14:25:34.000Z</time>
      </trkpt>
      <trkpt lat="44.73158" lon="5.02423">
        <ele>298.20001220703</ele>
        <time>2016-06-09T14:25:37.000Z</time>
      </trkpt>
      <trkpt lat="44.73162" lon="5.02427">
        <ele>299</ele>
        <time>2016-06-09T14:25:42.000Z</time>
      </trkpt>
      <trkpt lat="44.73163" lon="5.02427">
        <ele>299.39999389648</ele>
        <time>2016-06-09T14:25:45.000Z</time>
      </trkpt>
      <trkpt lat="44.73164" lon="5.02427">
        <ele>299.39999389648</ele>
        <time>2016-06-09T14:25:46.000Z</time>
      </trkpt>
      <trkpt lat="44.73166" lon="5.02428">
        <ele>299.60000610352</ele>
        <time>2016-06-09T14:25:48.000Z</time>
      </trkpt>
      <trkpt lat="44.73167" lon="5.0243">
        <ele>300</ele>
        <time>2016-06-09T14:25:51.000Z</time>
      </trkpt>
      <trkpt lat="44.73168" lon="5.0243">
        <ele>300.39999389648</ele>
        <time>2016-06-09T14:25:53.000Z</time>
      </trkpt>
      <trkpt lat="44.73169" lon="5.02432">
        <ele>301</ele>
        <time>2016-06-09T14:25:55.000Z</time>
      </trkpt>
      <trkpt lat="44.73169" lon="5.02434">
        <ele>301.60000610352</ele>
        <time>2016-06-09T14:25:57.000Z</time>
      </trkpt>
      <trkpt lat="44.73169" lon="5.02436">
        <ele>302.60000610352</ele>
        <time>2016-06-09T14:26:00.000Z</time>
      </trkpt>
      <trkpt lat="44.73168" lon="5.02436">
        <ele>302.39999389648</ele>
        <time>2016-06-09T14:26:01.000Z</time>
      </trkpt>
      <trkpt lat="44.73168" lon="5.02437">
        <ele>300.79998779297</ele>
        <time>2016-06-09T14:26:02.000Z</time>
      </trkpt>
      <trkpt lat="44.73167" lon="5.02438">
        <ele>297.60000610352</ele>
        <time>2016-06-09T14:26:03.000Z</time>
      </trkpt>
      <trkpt lat="44.73168" lon="5.0244">
        <ele>298.79998779297</ele>
        <time>2016-06-09T14:26:06.000Z</time>
      </trkpt>
      <trkpt lat="44.73168" lon="5.02441">
        <ele>300.79998779297</ele>
        <time>2016-06-09T14:26:07.000Z</time>
      </trkpt>
      <trkpt lat="44.73168" lon="5.02442">
        <ele>304.39999389648</ele>
        <time>2016-06-09T14:26:08.000Z</time>
      </trkpt>
      <trkpt lat="44.7317" lon="5.02444">
        <ele>304.79998779297</ele>
        <time>2016-06-09T14:26:11.000Z</time>
      </trkpt>
      <trkpt lat="44.73172" lon="5.02444">
        <ele>305.39999389648</ele>
        <time>2016-06-09T14:26:15.000Z</time>
      </trkpt>
      <trkpt lat="44.73174" lon="5.02446">
        <ele>306.39999389648</ele>
        <time>2016-06-09T14:26:17.000Z</time>
      </trkpt>
      <trkpt lat="44.73177" lon="5.0245">
        <ele>307.39999389648</ele>
        <time>2016-06-09T14:26:21.000Z</time>
      </trkpt>
      <trkpt lat="44.73177" lon="5.0245">
        <ele>307.60000610352</ele>
        <time>2016-06-09T14:26:22.000Z</time>
      </trkpt>
      <trkpt lat="44.73179" lon="5.02452">
        <ele>307.79998779297</ele>
        <time>2016-06-09T14:26:26.000Z</time>
      </trkpt>
      <trkpt lat="44.73181" lon="5.02454">
        <ele>308.20001220703</ele>
        <time>2016-06-09T14:26:28.000Z</time>
      </trkpt>
      <trkpt lat="44.73183" lon="5.02456">
        <ele>308.60000610352</ele>
        <time>2016-06-09T14:26:30.000Z</time>
      </trkpt>
      <trkpt lat="44.73184" lon="5.02457">
        <ele>308.79998779297</ele>
        <time>2016-06-09T14:26:32.000Z</time>
      </trkpt>
      <trkpt lat="44.73187" lon="5.02459">
        <ele>309.60000610352</ele>
        <time>2016-06-09T14:26:36.000Z</time>
      </trkpt>
      <trkpt lat="44.73188" lon="5.0246">
        <ele>309.79998779297</ele>
        <time>2016-06-09T14:26:37.000Z</time>
      </trkpt>
      <trkpt lat="44.73191" lon="5.02461">
        <ele>311.20001220703</ele>
        <time>2016-06-09T14:26:40.000Z</time>
      </trkpt>
      <trkpt lat="44.73192" lon="5.02462">
        <ele>311.39999389648</ele>
        <time>2016-06-09T14:26:41.000Z</time>
      </trkpt>
      <trkpt lat="44.73195" lon="5.02475">
        <ele>311.39999389648</ele>
        <time>2016-06-09T14:28:57.000Z</time>
      </trkpt>
      <trkpt lat="44.73198" lon="5.02477">
        <ele>311.60000610352</ele>
        <time>2016-06-09T14:29:00.000Z</time>
      </trkpt>
      <trkpt lat="44.732" lon="5.02478">
        <ele>312</ele>
        <time>2016-06-09T14:29:02.000Z</time>
      </trkpt>
      <trkpt lat="44.73201" lon="5.0248">
        <ele>312.39999389648</ele>
        <time>2016-06-09T14:29:03.000Z</time>
      </trkpt>
      <trkpt lat="44.73202" lon="5.02483">
        <ele>312.39999389648</ele>
        <time>2016-06-09T14:29:04.000Z</time>
      </trkpt>
      <trkpt lat="44.73203" lon="5.02488">
        <ele>313.60000610352</ele>
        <time>2016-06-09T14:29:07.000Z</time>
      </trkpt>
      <trkpt lat="44.73205" lon="5.0249">
        <ele>314.39999389648</ele>
        <time>2016-06-09T14:29:09.000Z</time>
      </trkpt>
      <trkpt lat="44.73205" lon="5.02492">
        <ele>314.79998779297</ele>
        <time>2016-06-09T14:29:10.000Z</time>
      </trkpt>
      <trkpt lat="44.73206" lon="5.02493">
        <ele>315.39999389648</ele>
        <time>2016-06-09T14:29:11.000Z</time>
      </trkpt>
      <trkpt lat="44.73207" lon="5.02494">
        <ele>315.39999389648</ele>
        <time>2016-06-09T14:29:13.000Z</time>
      </trkpt>
      <trkpt lat="44.73212" lon="5.02497">
        <ele>315.60000610352</ele>
        <time>2016-06-09T14:29:16.000Z</time>
      </trkpt>
      <trkpt lat="44.73216" lon="5.02501">
        <ele>316.20001220703</ele>
        <time>2016-06-09T14:29:18.000Z</time>
      </trkpt>
      <trkpt lat="44.7322" lon="5.02504">
        <ele>316.60000610352</ele>
        <time>2016-06-09T14:29:21.000Z</time>
      </trkpt>
      <trkpt lat="44.73225" lon="5.0251">
        <ele>317.60000610352</ele>
        <time>2016-06-09T14:29:25.000Z</time>
      </trkpt>
      <trkpt lat="44.73226" lon="5.02511">
        <ele>317.39999389648</ele>
        <time>2016-06-09T14:29:26.000Z</time>
      </trkpt>
      <trkpt lat="44.73232" lon="5.02516">
        <ele>318</ele>
        <time>2016-06-09T14:29:31.000Z</time>
      </trkpt>
      <trkpt lat="44.73235" lon="5.02518">
        <ele>318.20001220703</ele>
        <time>2016-06-09T14:29:34.000Z</time>
      </trkpt>
      <trkpt lat="44.73236" lon="5.02519">
        <ele>318.20001220703</ele>
        <time>2016-06-09T14:29:35.000Z</time>
      </trkpt>
      <trkpt lat="44.73239" lon="5.02524">
        <ele>318.39999389648</ele>
        <time>2016-06-09T14:29:37.000Z</time>
      </trkpt>
      <trkpt lat="44.73241" lon="5.02525">
        <ele>318.39999389648</ele>
        <time>2016-06-09T14:29:38.000Z</time>
      </trkpt>
      <trkpt lat="44.73247" lon="5.02529">
        <ele>319</ele>
        <time>2016-06-09T14:29:43.000Z</time>
      </trkpt>
      <trkpt lat="44.73252" lon="5.02531">
        <ele>319.39999389648</ele>
        <time>2016-06-09T14:29:45.000Z</time>
      </trkpt>
      <trkpt lat="44.73254" lon="5.02533">
        <ele>320.20001220703</ele>
        <time>2016-06-09T14:29:47.000Z</time>
      </trkpt>
      <trkpt lat="44.73256" lon="5.02534">
        <ele>320.39999389648</ele>
        <time>2016-06-09T14:29:48.000Z</time>
      </trkpt>
      <trkpt lat="44.7326" lon="5.0254">
        <ele>321.20001220703</ele>
        <time>2016-06-09T14:29:52.000Z</time>
      </trkpt>
      <trkpt lat="44.73261" lon="5.02541">
        <ele>321.39999389648</ele>
        <time>2016-06-09T14:29:53.000Z</time>
      </trkpt>
      <trkpt lat="44.73267" lon="5.02544">
        <ele>321.79998779297</ele>
        <time>2016-06-09T14:29:58.000Z</time>
      </trkpt>
      <trkpt lat="44.73271" lon="5.02545">
        <ele>322.20001220703</ele>
        <time>2016-06-09T14:30:01.000Z</time>
      </trkpt>
      <trkpt lat="44.73272" lon="5.02546">
        <ele>322.39999389648</ele>
        <time>2016-06-09T14:30:02.000Z</time>
      </trkpt>
      <trkpt lat="44.73274" lon="5.02546">
        <ele>322.60000610352</ele>
        <time>2016-06-09T14:30:03.000Z</time>
      </trkpt>
      <trkpt lat="44.7328" lon="5.02547">
        <ele>322.60000610352</ele>
        <time>2016-06-09T14:30:10.000Z</time>
      </trkpt>
      <trkpt lat="44.73285" lon="5.0255">
        <ele>321.79998779297</ele>
        <time>2016-06-09T14:30:13.000Z</time>
      </trkpt>
      <trkpt lat="44.73288" lon="5.02552">
        <ele>321.20001220703</ele>
        <time>2016-06-09T14:30:15.000Z</time>
      </trkpt>
      <trkpt lat="44.73289" lon="5.02553">
        <ele>321</ele>
        <time>2016-06-09T14:30:16.000Z</time>
      </trkpt>
      <trkpt lat="44.7329" lon="5.02554">
        <ele>320.20001220703</ele>
        <time>2016-06-09T14:30:19.000Z</time>
      </trkpt>
      <trkpt lat="44.73291" lon="5.02555">
        <ele>316</ele>
        <time>2016-06-09T14:30:20.000Z</time>
      </trkpt>
      <trkpt lat="44.73292" lon="5.02556">
        <ele>314.60000610352</ele>
        <time>2016-06-09T14:30:21.000Z</time>
      </trkpt>
      <trkpt lat="44.73292" lon="5.02556">
        <ele>314.60000610352</ele>
        <time>2016-06-09T14:30:22.000Z</time>
      </trkpt>
      <trkpt lat="44.73292" lon="5.02558">
        <ele>315.79998779297</ele>
        <time>2016-06-09T14:30:24.000Z</time>
      </trkpt>
      <trkpt lat="44.73293" lon="5.02558">
        <ele>321.79998779297</ele>
        <time>2016-06-09T14:30:25.000Z</time>
      </trkpt>
      <trkpt lat="44.73298" lon="5.02562">
        <ele>322.60000610352</ele>
        <time>2016-06-09T14:30:29.000Z</time>
      </trkpt>
      <trkpt lat="44.733" lon="5.02563">
        <ele>322.79998779297</ele>
        <time>2016-06-09T14:30:30.000Z</time>
      </trkpt>
      <trkpt lat="44.73301" lon="5.02565">
        <ele>322.79998779297</ele>
        <time>2016-06-09T14:30:32.000Z</time>
      </trkpt>
      <trkpt lat="44.73302" lon="5.02567">
        <ele>322.79998779297</ele>
        <time>2016-06-09T14:30:33.000Z</time>
      </trkpt>
      <trkpt lat="44.73304" lon="5.02572">
        <ele>324.20001220703</ele>
        <time>2016-06-09T14:30:37.000Z</time>
      </trkpt>
      <trkpt lat="44.73307" lon="5.02575">
        <ele>325.20001220703</ele>
        <time>2016-06-09T14:30:40.000Z</time>
      </trkpt>
      <trkpt lat="44.73311" lon="5.02578">
        <ele>325.60000610352</ele>
        <time>2016-06-09T14:30:43.000Z</time>
      </trkpt>
      <trkpt lat="44.73318" lon="5.02584">
        <ele>326.39999389648</ele>
        <time>2016-06-09T14:30:48.000Z</time>
      </trkpt>
      <trkpt lat="44.73321" lon="5.02586">
        <ele>326.60000610352</ele>
        <time>2016-06-09T14:30:50.000Z</time>
      </trkpt>
      <trkpt lat="44.73331" lon="5.02593">
        <ele>327</ele>
        <time>2016-06-09T14:30:55.000Z</time>
      </trkpt>
      <trkpt lat="44.73333" lon="5.02595">
        <ele>327.39999389648</ele>
        <time>2016-06-09T14:30:57.000Z</time>
      </trkpt>
      <trkpt lat="44.73335" lon="5.02596">
        <ele>327</ele>
        <time>2016-06-09T14:30:59.000Z</time>
      </trkpt>
      <trkpt lat="44.73335" lon="5.02597">
        <ele>326.79998779297</ele>
        <time>2016-06-09T14:31:01.000Z</time>
      </trkpt>
      <trkpt lat="44.73339" lon="5.02602">
        <ele>327.20001220703</ele>
        <time>2016-06-09T14:31:06.000Z</time>
      </trkpt>
      <trkpt lat="44.73341" lon="5.02604">
        <ele>327.60000610352</ele>
        <time>2016-06-09T14:31:08.000Z</time>
      </trkpt>
      <trkpt lat="44.73343" lon="5.02605">
        <ele>327.79998779297</ele>
        <time>2016-06-09T14:31:10.000Z</time>
      </trkpt>
      <trkpt lat="44.73344" lon="5.02605">
        <ele>327.79998779297</ele>
        <time>2016-06-09T14:31:11.000Z</time>
      </trkpt>
      <trkpt lat="44.73347" lon="5.02607">
        <ele>328.39999389648</ele>
        <time>2016-06-09T14:31:14.000Z</time>
      </trkpt>
      <trkpt lat="44.73348" lon="5.02609">
        <ele>329</ele>
        <time>2016-06-09T14:31:15.000Z</time>
      </trkpt>
      <trkpt lat="44.7335" lon="5.02612">
        <ele>329.39999389648</ele>
        <time>2016-06-09T14:31:17.000Z</time>
      </trkpt>
      <trkpt lat="44.73351" lon="5.02613">
        <ele>329.39999389648</ele>
        <time>2016-06-09T14:31:18.000Z</time>
      </trkpt>
      <trkpt lat="44.73354" lon="5.02615">
        <ele>329.20001220703</ele>
        <time>2016-06-09T14:31:20.000Z</time>
      </trkpt>
      <trkpt lat="44.73355" lon="5.02616">
        <ele>330.39999389648</ele>
        <time>2016-06-09T14:31:21.000Z</time>
      </trkpt>
      <trkpt lat="44.73356" lon="5.02617">
        <ele>330.60000610352</ele>
        <time>2016-06-09T14:31:22.000Z</time>
      </trkpt>
      <trkpt lat="44.73358" lon="5.02618">
        <ele>331.39999389648</ele>
        <time>2016-06-09T14:31:24.000Z</time>
      </trkpt>
      <trkpt lat="44.73359" lon="5.0262">
        <ele>331.39999389648</ele>
        <time>2016-06-09T14:31:25.000Z</time>
      </trkpt>
      <trkpt lat="44.73361" lon="5.02622">
        <ele>330.79998779297</ele>
        <time>2016-06-09T14:31:27.000Z</time>
      </trkpt>
      <trkpt lat="44.73362" lon="5.02623">
        <ele>330.79998779297</ele>
        <time>2016-06-09T14:31:28.000Z</time>
      </trkpt>
      <trkpt lat="44.73366" lon="5.02629">
        <ele>331.39999389648</ele>
        <time>2016-06-09T14:31:33.000Z</time>
      </trkpt>
      <trkpt lat="44.73367" lon="5.0263">
        <ele>331.60000610352</ele>
        <time>2016-06-09T14:31:34.000Z</time>
      </trkpt>
      <trkpt lat="44.73369" lon="5.02634">
        <ele>332.60000610352</ele>
        <time>2016-06-09T14:31:37.000Z</time>
      </trkpt>
      <trkpt lat="44.73369" lon="5.02634">
        <ele>332.79998779297</ele>
        <time>2016-06-09T14:31:38.000Z</time>
      </trkpt>
      <trkpt lat="44.73373" lon="5.02637">
        <ele>333.79998779297</ele>
        <time>2016-06-09T14:31:43.000Z</time>
      </trkpt>
      <trkpt lat="44.73376" lon="5.02642">
        <ele>334.79998779297</ele>
        <time>2016-06-09T14:31:47.000Z</time>
      </trkpt>
      <trkpt lat="44.73378" lon="5.02646">
        <ele>335.39999389648</ele>
        <time>2016-06-09T14:31:49.000Z</time>
      </trkpt>
      <trkpt lat="44.73379" lon="5.02646">
        <ele>335.79998779297</ele>
        <time>2016-06-09T14:31:51.000Z</time>
      </trkpt>
      <trkpt lat="44.73379" lon="5.02647">
        <ele>336.60000610352</ele>
        <time>2016-06-09T14:31:53.000Z</time>
      </trkpt>
      <trkpt lat="44.73381" lon="5.02648">
        <ele>336.39999389648</ele>
        <time>2016-06-09T14:31:54.000Z</time>
      </trkpt>
      <trkpt lat="44.73382" lon="5.0265">
        <ele>337</ele>
        <time>2016-06-09T14:31:56.000Z</time>
      </trkpt>
      <trkpt lat="44.73384" lon="5.02652">
        <ele>337.20001220703</ele>
        <time>2016-06-09T14:31:59.000Z</time>
      </trkpt>
      <trkpt lat="44.73386" lon="5.02655">
        <ele>337.39999389648</ele>
        <time>2016-06-09T14:32:01.000Z</time>
      </trkpt>
      <trkpt lat="44.73387" lon="5.02656">
        <ele>337.79998779297</ele>
        <time>2016-06-09T14:32:02.000Z</time>
      </trkpt>
      <trkpt lat="44.73388" lon="5.02657">
        <ele>338.20001220703</ele>
        <time>2016-06-09T14:32:03.000Z</time>
      </trkpt>
      <trkpt lat="44.7339" lon="5.02659">
        <ele>338.39999389648</ele>
        <time>2016-06-09T14:32:05.000Z</time>
      </trkpt>
      <trkpt lat="44.73392" lon="5.02661">
        <ele>338.60000610352</ele>
        <time>2016-06-09T14:32:06.000Z</time>
      </trkpt>
      <trkpt lat="44.73394" lon="5.02663">
        <ele>339</ele>
        <time>2016-06-09T14:32:08.000Z</time>
      </trkpt>
      <trkpt lat="44.73395" lon="5.02664">
        <ele>339.20001220703</ele>
        <time>2016-06-09T14:32:09.000Z</time>
      </trkpt>
      <trkpt lat="44.73397" lon="5.02665">
        <ele>340.20001220703</ele>
        <time>2016-06-09T14:32:12.000Z</time>
      </trkpt>
      <trkpt lat="44.73399" lon="5.02666">
        <ele>340.79998779297</ele>
        <time>2016-06-09T14:32:14.000Z</time>
      </trkpt>
      <trkpt lat="44.73399" lon="5.02667">
        <ele>341.39999389648</ele>
        <time>2016-06-09T14:32:15.000Z</time>
      </trkpt>
      <trkpt lat="44.73401" lon="5.02669">
        <ele>342</ele>
        <time>2016-06-09T14:32:17.000Z</time>
      </trkpt>
      <trkpt lat="44.73404" lon="5.02671">
        <ele>342.20001220703</ele>
        <time>2016-06-09T14:32:19.000Z</time>
      </trkpt>
      <trkpt lat="44.73404" lon="5.02671">
        <ele>342.60000610352</ele>
        <time>2016-06-09T14:32:20.000Z</time>
      </trkpt>
      <trkpt lat="44.73408" lon="5.02676">
        <ele>343</ele>
        <time>2016-06-09T14:32:25.000Z</time>
      </trkpt>
      <trkpt lat="44.73412" lon="5.02683">
        <ele>343.39999389648</ele>
        <time>2016-06-09T14:32:30.000Z</time>
      </trkpt>
      <trkpt lat="44.73413" lon="5.02684">
        <ele>343.60000610352</ele>
        <time>2016-06-09T14:32:31.000Z</time>
      </trkpt>
      <trkpt lat="44.73417" lon="5.02687">
        <ele>343.60000610352</ele>
        <time>2016-06-09T14:32:34.000Z</time>
      </trkpt>
      <trkpt lat="44.73419" lon="5.02688">
        <ele>343.79998779297</ele>
        <time>2016-06-09T14:32:36.000Z</time>
      </trkpt>
      <trkpt lat="44.7342" lon="5.0269">
        <ele>344</ele>
        <time>2016-06-09T14:32:37.000Z</time>
      </trkpt>
      <trkpt lat="44.73423" lon="5.02694">
        <ele>343.20001220703</ele>
        <time>2016-06-09T14:32:42.000Z</time>
      </trkpt>
      <trkpt lat="44.73424" lon="5.02695">
        <ele>343.20001220703</ele>
        <time>2016-06-09T14:32:43.000Z</time>
      </trkpt>
      <trkpt lat="44.73427" lon="5.02697">
        <ele>344.20001220703</ele>
        <time>2016-06-09T14:32:47.000Z</time>
      </trkpt>
      <trkpt lat="44.73428" lon="5.02697">
        <ele>344.39999389648</ele>
        <time>2016-06-09T14:32:48.000Z</time>
      </trkpt>
      <trkpt lat="44.73431" lon="5.027">
        <ele>344.39999389648</ele>
        <time>2016-06-09T14:32:51.000Z</time>
      </trkpt>
      <trkpt lat="44.73434" lon="5.02702">
        <ele>344.79998779297</ele>
        <time>2016-06-09T14:32:53.000Z</time>
      </trkpt>
      <trkpt lat="44.73435" lon="5.02703">
        <ele>345</ele>
        <time>2016-06-09T14:32:54.000Z</time>
      </trkpt>
      <trkpt lat="44.73439" lon="5.02705">
        <ele>346</ele>
        <time>2016-06-09T14:32:58.000Z</time>
      </trkpt>
      <trkpt lat="44.7344" lon="5.02707">
        <ele>346.79998779297</ele>
        <time>2016-06-09T14:33:00.000Z</time>
      </trkpt>
      <trkpt lat="44.73442" lon="5.02709">
        <ele>347.20001220703</ele>
        <time>2016-06-09T14:33:02.000Z</time>
      </trkpt>
      <trkpt lat="44.73445" lon="5.02711">
        <ele>348.39999389648</ele>
        <time>2016-06-09T14:33:05.000Z</time>
      </trkpt>
      <trkpt lat="44.73446" lon="5.02712">
        <ele>348.79998779297</ele>
        <time>2016-06-09T14:33:06.000Z</time>
      </trkpt>
      <trkpt lat="44.73448" lon="5.02715">
        <ele>349.39999389648</ele>
        <time>2016-06-09T14:33:10.000Z</time>
      </trkpt>
      <trkpt lat="44.7345" lon="5.02717">
        <ele>350.39999389648</ele>
        <time>2016-06-09T14:33:12.000Z</time>
      </trkpt>
      <trkpt lat="44.73452" lon="5.02719">
        <ele>350.60000610352</ele>
        <time>2016-06-09T14:33:14.000Z</time>
      </trkpt>
      <trkpt lat="44.73458" lon="5.02725">
        <ele>351</ele>
        <time>2016-06-09T14:33:20.000Z</time>
      </trkpt>
      <trkpt lat="44.73462" lon="5.02728">
        <ele>351.79998779297</ele>
        <time>2016-06-09T14:33:23.000Z</time>
      </trkpt>
      <trkpt lat="44.73463" lon="5.02729">
        <ele>352.20001220703</ele>
        <time>2016-06-09T14:33:24.000Z</time>
      </trkpt>
      <trkpt lat="44.73463" lon="5.0273">
        <ele>352.20001220703</ele>
        <time>2016-06-09T14:33:25.000Z</time>
      </trkpt>
      <trkpt lat="44.73468" lon="5.02737">
        <ele>353.20001220703</ele>
        <time>2016-06-09T14:33:30.000Z</time>
      </trkpt>
      <trkpt lat="44.73469" lon="5.02739">
        <ele>353.60000610352</ele>
        <time>2016-06-09T14:33:31.000Z</time>
      </trkpt>
      <trkpt lat="44.7347" lon="5.0274">
        <ele>354.20001220703</ele>
        <time>2016-06-09T14:33:32.000Z</time>
      </trkpt>
      <trkpt lat="44.73471" lon="5.02741">
        <ele>354.79998779297</ele>
        <time>2016-06-09T14:33:34.000Z</time>
      </trkpt>
      <trkpt lat="44.73473" lon="5.02742">
        <ele>355.60000610352</ele>
        <time>2016-06-09T14:33:36.000Z</time>
      </trkpt>
      <trkpt lat="44.73476" lon="5.02745">
        <ele>356.39999389648</ele>
        <time>2016-06-09T14:33:40.000Z</time>
      </trkpt>
      <trkpt lat="44.73478" lon="5.02747">
        <ele>356.60000610352</ele>
        <time>2016-06-09T14:33:42.000Z</time>
      </trkpt>
      <trkpt lat="44.73478" lon="5.02747">
        <ele>356.60000610352</ele>
        <time>2016-06-09T14:33:43.000Z</time>
      </trkpt>
      <trkpt lat="44.73479" lon="5.02749">
        <ele>356.79998779297</ele>
        <time>2016-06-09T14:33:44.000Z</time>
      </trkpt>
      <trkpt lat="44.73484" lon="5.02754">
        <ele>357.60000610352</ele>
        <time>2016-06-09T14:33:48.000Z</time>
      </trkpt>
      <trkpt lat="44.73485" lon="5.02756">
        <ele>357.60000610352</ele>
        <time>2016-06-09T14:33:49.000Z</time>
      </trkpt>
      <trkpt lat="44.73489" lon="5.02759">
        <ele>357.39999389648</ele>
        <time>2016-06-09T14:33:52.000Z</time>
      </trkpt>
      <trkpt lat="44.7349" lon="5.0276">
        <ele>357.39999389648</ele>
        <time>2016-06-09T14:33:53.000Z</time>
      </trkpt>
      <trkpt lat="44.73501" lon="5.02773">
        <ele>357</ele>
        <time>2016-06-09T14:34:00.000Z</time>
      </trkpt>
      <trkpt lat="44.73504" lon="5.02776">
        <ele>357.20001220703</ele>
        <time>2016-06-09T14:34:02.000Z</time>
      </trkpt>
      <trkpt lat="44.73508" lon="5.02779">
        <ele>356.20001220703</ele>
        <time>2016-06-09T14:34:05.000Z</time>
      </trkpt>
      <trkpt lat="44.73513" lon="5.02783">
        <ele>355.79998779297</ele>
        <time>2016-06-09T14:34:08.000Z</time>
      </trkpt>
      <trkpt lat="44.73515" lon="5.02786">
        <ele>356.39999389648</ele>
        <time>2016-06-09T14:34:09.000Z</time>
      </trkpt>
      <trkpt lat="44.7352" lon="5.02791">
        <ele>352.39999389648</ele>
        <time>2016-06-09T14:34:12.000Z</time>
      </trkpt>
      <trkpt lat="44.73523" lon="5.02793">
        <ele>353.39999389648</ele>
        <time>2016-06-09T14:34:13.000Z</time>
      </trkpt>
      <trkpt lat="44.73525" lon="5.02795">
        <ele>353.20001220703</ele>
        <time>2016-06-09T14:34:14.000Z</time>
      </trkpt>
      <trkpt lat="44.73531" lon="5.02799">
        <ele>356.60000610352</ele>
        <time>2016-06-09T14:34:17.000Z</time>
      </trkpt>
      <trkpt lat="44.73535" lon="5.02802">
        <ele>355.79998779297</ele>
        <time>2016-06-09T14:34:19.000Z</time>
      </trkpt>
      <trkpt lat="44.73539" lon="5.02806">
        <ele>356.60000610352</ele>
        <time>2016-06-09T14:34:22.000Z</time>
      </trkpt>
      <trkpt lat="44.73547" lon="5.02812">
        <ele>357.20001220703</ele>
        <time>2016-06-09T14:34:27.000Z</time>
      </trkpt>
      <trkpt lat="44.73552" lon="5.02819">
        <ele>357.60000610352</ele>
        <time>2016-06-09T14:34:30.000Z</time>
      </trkpt>
      <trkpt lat="44.73554" lon="5.0282">
        <ele>357.79998779297</ele>
        <time>2016-06-09T14:34:31.000Z</time>
      </trkpt>
      <trkpt lat="44.7356" lon="5.02824">
        <ele>358.60000610352</ele>
        <time>2016-06-09T14:34:36.000Z</time>
      </trkpt>
      <trkpt lat="44.73567" lon="5.02828">
        <ele>359.79998779297</ele>
        <time>2016-06-09T14:34:40.000Z</time>
      </trkpt>
      <trkpt lat="44.73571" lon="5.02831">
        <ele>360.20001220703</ele>
        <time>2016-06-09T14:34:43.000Z</time>
      </trkpt>
      <trkpt lat="44.73573" lon="5.02832">
        <ele>360.20001220703</ele>
        <time>2016-06-09T14:34:44.000Z</time>
      </trkpt>
      <trkpt lat="44.73575" lon="5.02834">
        <ele>360.39999389648</ele>
        <time>2016-06-09T14:34:47.000Z</time>
      </trkpt>
      <trkpt lat="44.73578" lon="5.02835">
        <ele>361</ele>
        <time>2016-06-09T14:34:49.000Z</time>
      </trkpt>
      <trkpt lat="44.7358" lon="5.02836">
        <ele>361.60000610352</ele>
        <time>2016-06-09T14:34:51.000Z</time>
      </trkpt>
      <trkpt lat="44.73582" lon="5.02838">
        <ele>362</ele>
        <time>2016-06-09T14:34:53.000Z</time>
      </trkpt>
      <trkpt lat="44.73587" lon="5.02838">
        <ele>362.20001220703</ele>
        <time>2016-06-09T14:34:58.000Z</time>
      </trkpt>
      <trkpt lat="44.73589" lon="5.02839">
        <ele>362.20001220703</ele>
        <time>2016-06-09T14:35:00.000Z</time>
      </trkpt>
      <trkpt lat="44.73592" lon="5.02842">
        <ele>363.20001220703</ele>
        <time>2016-06-09T14:35:04.000Z</time>
      </trkpt>
      <trkpt lat="44.73593" lon="5.02843">
        <ele>363.39999389648</ele>
        <time>2016-06-09T14:35:05.000Z</time>
      </trkpt>
      <trkpt lat="44.73596" lon="5.02845">
        <ele>364.20001220703</ele>
        <time>2016-06-09T14:35:09.000Z</time>
      </trkpt>
      <trkpt lat="44.73598" lon="5.02845">
        <ele>364.39999389648</ele>
        <time>2016-06-09T14:35:10.000Z</time>
      </trkpt>
      <trkpt lat="44.73601" lon="5.02846">
        <ele>365.39999389648</ele>
        <time>2016-06-09T14:35:13.000Z</time>
      </trkpt>
      <trkpt lat="44.73604" lon="5.02847">
        <ele>365.79998779297</ele>
        <time>2016-06-09T14:35:16.000Z</time>
      </trkpt>
      <trkpt lat="44.73609" lon="5.02849">
        <ele>366.20001220703</ele>
        <time>2016-06-09T14:35:21.000Z</time>
      </trkpt>
      <trkpt lat="44.7361" lon="5.0285">
        <ele>366.60000610352</ele>
        <time>2016-06-09T14:35:22.000Z</time>
      </trkpt>
      <trkpt lat="44.73615" lon="5.02853">
        <ele>367.39999389648</ele>
        <time>2016-06-09T14:35:26.000Z</time>
      </trkpt>
      <trkpt lat="44.73618" lon="5.02854">
        <ele>367.60000610352</ele>
        <time>2016-06-09T14:35:28.000Z</time>
      </trkpt>
      <trkpt lat="44.73619" lon="5.02854">
        <ele>367.60000610352</ele>
        <time>2016-06-09T14:35:29.000Z</time>
      </trkpt>
      <trkpt lat="44.7362" lon="5.02854">
        <ele>367.79998779297</ele>
        <time>2016-06-09T14:35:31.000Z</time>
      </trkpt>
      <trkpt lat="44.73622" lon="5.02854">
        <ele>368.39999389648</ele>
        <time>2016-06-09T14:35:33.000Z</time>
      </trkpt>
      <trkpt lat="44.73624" lon="5.02854">
        <ele>368.79998779297</ele>
        <time>2016-06-09T14:35:34.000Z</time>
      </trkpt>
      <trkpt lat="44.73626" lon="5.02855">
        <ele>369.39999389648</ele>
        <time>2016-06-09T14:35:36.000Z</time>
      </trkpt>
      <trkpt lat="44.73634" lon="5.02853">
        <ele>369.79998779297</ele>
        <time>2016-06-09T14:35:42.000Z</time>
      </trkpt>
      <trkpt lat="44.73635" lon="5.02853">
        <ele>370</ele>
        <time>2016-06-09T14:35:43.000Z</time>
      </trkpt>
      <trkpt lat="44.73639" lon="5.02854">
        <ele>370</ele>
        <time>2016-06-09T14:35:46.000Z</time>
      </trkpt>
      <trkpt lat="44.73641" lon="5.02854">
        <ele>370</ele>
        <time>2016-06-09T14:35:47.000Z</time>
      </trkpt>
      <trkpt lat="44.73643" lon="5.02855">
        <ele>369.79998779297</ele>
        <time>2016-06-09T14:35:48.000Z</time>
      </trkpt>
      <trkpt lat="44.73645" lon="5.02856">
        <ele>370.79998779297</ele>
        <time>2016-06-09T14:35:49.000Z</time>
      </trkpt>
      <trkpt lat="44.73647" lon="5.02861">
        <ele>370.79998779297</ele>
        <time>2016-06-09T14:35:51.000Z</time>
      </trkpt>
      <trkpt lat="44.7365" lon="5.02874">
        <ele>370.79998779297</ele>
        <time>2016-06-09T14:35:55.000Z</time>
      </trkpt>
      <trkpt lat="44.73656" lon="5.02883">
        <ele>371.20001220703</ele>
        <time>2016-06-09T14:35:58.000Z</time>
      </trkpt>
      <trkpt lat="44.73663" lon="5.02895">
        <ele>372.39999389648</ele>
        <time>2016-06-09T14:36:02.000Z</time>
      </trkpt>
      <trkpt lat="44.73664" lon="5.02898">
        <ele>372.39999389648</ele>
        <time>2016-06-09T14:36:03.000Z</time>
      </trkpt>
      <trkpt lat="44.73665" lon="5.029">
        <ele>372</ele>
        <time>2016-06-09T14:36:04.000Z</time>
      </trkpt>
      <trkpt lat="44.73664" lon="5.02903">
        <ele>371.60000610352</ele>
        <time>2016-06-09T14:36:05.000Z</time>
      </trkpt>
      <trkpt lat="44.73664" lon="5.02905">
        <ele>371.39999389648</ele>
        <time>2016-06-09T14:36:06.000Z</time>
      </trkpt>
      <trkpt lat="44.73664" lon="5.02905">
        <ele>370.39999389648</ele>
        <time>2016-06-09T14:36:07.000Z</time>
      </trkpt>
      <trkpt lat="44.73665" lon="5.02908">
        <ele>370.20001220703</ele>
        <time>2016-06-09T14:36:08.000Z</time>
      </trkpt>
      <trkpt lat="44.73666" lon="5.0291">
        <ele>370.79998779297</ele>
        <time>2016-06-09T14:36:09.000Z</time>
      </trkpt>
      <trkpt lat="44.73668" lon="5.02911">
        <ele>370.60000610352</ele>
        <time>2016-06-09T14:36:10.000Z</time>
      </trkpt>
      <trkpt lat="44.73672" lon="5.02912">
        <ele>370.20001220703</ele>
        <time>2016-06-09T14:36:13.000Z</time>
      </trkpt>
      <trkpt lat="44.73673" lon="5.02913">
        <ele>369.60000610352</ele>
        <time>2016-06-09T14:36:14.000Z</time>
      </trkpt>
      <trkpt lat="44.73675" lon="5.02917">
        <ele>370.39999389648</ele>
        <time>2016-06-09T14:36:17.000Z</time>
      </trkpt>
      <trkpt lat="44.73681" lon="5.02919">
        <ele>371.20001220703</ele>
        <time>2016-06-09T14:36:21.000Z</time>
      </trkpt>
      <trkpt lat="44.73682" lon="5.0292">
        <ele>372</ele>
        <time>2016-06-09T14:36:22.000Z</time>
      </trkpt>
      <trkpt lat="44.73682" lon="5.0292">
        <ele>372.20001220703</ele>
        <time>2016-06-09T14:36:23.000Z</time>
      </trkpt>
      <trkpt lat="44.73683" lon="5.02921">
        <ele>372.39999389648</ele>
        <time>2016-06-09T14:36:24.000Z</time>
      </trkpt>
      <trkpt lat="44.73685" lon="5.02922">
        <ele>372.60000610352</ele>
        <time>2016-06-09T14:36:27.000Z</time>
      </trkpt>
      <trkpt lat="44.73686" lon="5.02922">
        <ele>372.79998779297</ele>
        <time>2016-06-09T14:36:28.000Z</time>
      </trkpt>
      <trkpt lat="44.73689" lon="5.02921">
        <ele>373.79998779297</ele>
        <time>2016-06-09T14:36:31.000Z</time>
      </trkpt>
      <trkpt lat="44.73691" lon="5.02922">
        <ele>374.20001220703</ele>
        <time>2016-06-09T14:36:33.000Z</time>
      </trkpt>
      <trkpt lat="44.73694" lon="5.02926">
        <ele>374.60000610352</ele>
        <time>2016-06-09T14:36:38.000Z</time>
      </trkpt>
      <trkpt lat="44.73696" lon="5.02926">
        <ele>374.79998779297</ele>
        <time>2016-06-09T14:36:40.000Z</time>
      </trkpt>
      <trkpt lat="44.73699" lon="5.02927">
        <ele>375.60000610352</ele>
        <time>2016-06-09T14:36:43.000Z</time>
      </trkpt>
      <trkpt lat="44.73699" lon="5.02927">
        <ele>376</ele>
        <time>2016-06-09T14:36:44.000Z</time>
      </trkpt>
      <trkpt lat="44.73703" lon="5.02929">
        <ele>376.39999389648</ele>
        <time>2016-06-09T14:36:48.000Z</time>
      </trkpt>
      <trkpt lat="44.73704" lon="5.02928">
        <ele>376.60000610352</ele>
        <time>2016-06-09T14:36:50.000Z</time>
      </trkpt>
      <trkpt lat="44.73708" lon="5.0293">
        <ele>377</ele>
        <time>2016-06-09T14:36:54.000Z</time>
      </trkpt>
      <trkpt lat="44.73709" lon="5.0293">
        <ele>377.20001220703</ele>
        <time>2016-06-09T14:36:55.000Z</time>
      </trkpt>
      <trkpt lat="44.73712" lon="5.02932">
        <ele>378</ele>
        <time>2016-06-09T14:36:58.000Z</time>
      </trkpt>
      <trkpt lat="44.73713" lon="5.02932">
        <ele>378.20001220703</ele>
        <time>2016-06-09T14:36:59.000Z</time>
      </trkpt>
      <trkpt lat="44.73714" lon="5.02931">
        <ele>379.60000610352</ele>
        <time>2016-06-09T14:37:02.000Z</time>
      </trkpt>
      <trkpt lat="44.73716" lon="5.02933">
        <ele>380</ele>
        <time>2016-06-09T14:37:03.000Z</time>
      </trkpt>
      <trkpt lat="44.73717" lon="5.02932">
        <ele>380.20001220703</ele>
        <time>2016-06-09T14:37:04.000Z</time>
      </trkpt>
      <trkpt lat="44.73718" lon="5.02932">
        <ele>380.79998779297</ele>
        <time>2016-06-09T14:37:05.000Z</time>
      </trkpt>
      <trkpt lat="44.73723" lon="5.02934">
        <ele>380.60000610352</ele>
        <time>2016-06-09T14:37:10.000Z</time>
      </trkpt>
      <trkpt lat="44.73728" lon="5.02936">
        <ele>382</ele>
        <time>2016-06-09T14:37:14.000Z</time>
      </trkpt>
      <trkpt lat="44.73729" lon="5.02936">
        <ele>382</ele>
        <time>2016-06-09T14:37:15.000Z</time>
      </trkpt>
      <trkpt lat="44.73732" lon="5.02936">
        <ele>381.79998779297</ele>
        <time>2016-06-09T14:37:17.000Z</time>
      </trkpt>
      <trkpt lat="44.73732" lon="5.02937">
        <ele>382.60000610352</ele>
        <time>2016-06-09T14:37:20.000Z</time>
      </trkpt>
      <trkpt lat="44.73734" lon="5.02936">
        <ele>383.20001220703</ele>
        <time>2016-06-09T14:37:22.000Z</time>
      </trkpt>
      <trkpt lat="44.73735" lon="5.02935">
        <ele>383.39999389648</ele>
        <time>2016-06-09T14:37:23.000Z</time>
      </trkpt>
      <trkpt lat="44.73737" lon="5.02935">
        <ele>383.60000610352</ele>
        <time>2016-06-09T14:37:25.000Z</time>
      </trkpt>
      <trkpt lat="44.73739" lon="5.02936">
        <ele>384.20001220703</ele>
        <time>2016-06-09T14:37:28.000Z</time>
      </trkpt>
      <trkpt lat="44.73741" lon="5.02935">
        <ele>384.79998779297</ele>
        <time>2016-06-09T14:37:30.000Z</time>
      </trkpt>
      <trkpt lat="44.73743" lon="5.02934">
        <ele>385.20001220703</ele>
        <time>2016-06-09T14:37:33.000Z</time>
      </trkpt>
      <trkpt lat="44.73744" lon="5.02934">
        <ele>385.39999389648</ele>
        <time>2016-06-09T14:37:35.000Z</time>
      </trkpt>
      <trkpt lat="44.73745" lon="5.02934">
        <ele>385.60000610352</ele>
        <time>2016-06-09T14:37:36.000Z</time>
      </trkpt>
      <trkpt lat="44.73748" lon="5.02933">
        <ele>386.60000610352</ele>
        <time>2016-06-09T14:37:41.000Z</time>
      </trkpt>
      <trkpt lat="44.73752" lon="5.02934">
        <ele>387.60000610352</ele>
        <time>2016-06-09T14:37:45.000Z</time>
      </trkpt>
      <trkpt lat="44.73755" lon="5.02935">
        <ele>388.20001220703</ele>
        <time>2016-06-09T14:37:48.000Z</time>
      </trkpt>
      <trkpt lat="44.73757" lon="5.02936">
        <ele>388.39999389648</ele>
        <time>2016-06-09T14:37:50.000Z</time>
      </trkpt>
      <trkpt lat="44.73758" lon="5.02937">
        <ele>388.79998779297</ele>
        <time>2016-06-09T14:37:51.000Z</time>
      </trkpt>
      <trkpt lat="44.73759" lon="5.0294">
        <ele>389</ele>
        <time>2016-06-09T14:37:53.000Z</time>
      </trkpt>
      <trkpt lat="44.73762" lon="5.02942">
        <ele>389.79998779297</ele>
        <time>2016-06-09T14:37:57.000Z</time>
      </trkpt>
      <trkpt lat="44.73763" lon="5.02942">
        <ele>390.79998779297</ele>
        <time>2016-06-09T14:37:58.000Z</time>
      </trkpt>
      <trkpt lat="44.73764" lon="5.02942">
        <ele>391.60000610352</ele>
        <time>2016-06-09T14:37:59.000Z</time>
      </trkpt>
      <trkpt lat="44.7377" lon="5.02945">
        <ele>390.20001220703</ele>
        <time>2016-06-09T14:38:04.000Z</time>
      </trkpt>
      <trkpt lat="44.73771" lon="5.02945">
        <ele>390.39999389648</ele>
        <time>2016-06-09T14:38:05.000Z</time>
      </trkpt>
      <trkpt lat="44.73774" lon="5.02946">
        <ele>391.39999389648</ele>
        <time>2016-06-09T14:38:08.000Z</time>
      </trkpt>
      <trkpt lat="44.73777" lon="5.02947">
        <ele>390.60000610352</ele>
        <time>2016-06-09T14:38:11.000Z</time>
      </trkpt>
      <trkpt lat="44.73779" lon="5.02947">
        <ele>391.60000610352</ele>
        <time>2016-06-09T14:38:13.000Z</time>
      </trkpt>
      <trkpt lat="44.7378" lon="5.02947">
        <ele>391.79998779297</ele>
        <time>2016-06-09T14:38:14.000Z</time>
      </trkpt>
      <trkpt lat="44.73781" lon="5.02947">
        <ele>393.39999389648</ele>
        <time>2016-06-09T14:38:16.000Z</time>
      </trkpt>
      <trkpt lat="44.73783" lon="5.02948">
        <ele>392.79998779297</ele>
        <time>2016-06-09T14:38:18.000Z</time>
      </trkpt>
      <trkpt lat="44.73784" lon="5.02948">
        <ele>393.39999389648</ele>
        <time>2016-06-09T14:38:19.000Z</time>
      </trkpt>
      <trkpt lat="44.73787" lon="5.02952">
        <ele>394.39999389648</ele>
        <time>2016-06-09T14:38:23.000Z</time>
      </trkpt>
      <trkpt lat="44.73788" lon="5.02952">
        <ele>394.60000610352</ele>
        <time>2016-06-09T14:38:24.000Z</time>
      </trkpt>
      <trkpt lat="44.73792" lon="5.0295">
        <ele>394.79998779297</ele>
        <time>2016-06-09T14:38:28.000Z</time>
      </trkpt>
      <trkpt lat="44.73796" lon="5.02949">
        <ele>395.79998779297</ele>
        <time>2016-06-09T14:38:32.000Z</time>
      </trkpt>
      <trkpt lat="44.73798" lon="5.02949">
        <ele>396.20001220703</ele>
        <time>2016-06-09T14:38:33.000Z</time>
      </trkpt>
      <trkpt lat="44.73799" lon="5.02949">
        <ele>396.60000610352</ele>
        <time>2016-06-09T14:38:34.000Z</time>
      </trkpt>
      <trkpt lat="44.73809" lon="5.02957">
        <ele>396.79998779297</ele>
        <time>2016-06-09T14:38:39.000Z</time>
      </trkpt>
      <trkpt lat="44.73811" lon="5.02958">
        <ele>396.60000610352</ele>
        <time>2016-06-09T14:38:40.000Z</time>
      </trkpt>
      <trkpt lat="44.73813" lon="5.02958">
        <ele>397.20001220703</ele>
        <time>2016-06-09T14:38:41.000Z</time>
      </trkpt>
      <trkpt lat="44.7382" lon="5.02959">
        <ele>398</ele>
        <time>2016-06-09T14:38:44.000Z</time>
      </trkpt>
      <trkpt lat="44.73828" lon="5.02963">
        <ele>398</ele>
        <time>2016-06-09T14:38:49.000Z</time>
      </trkpt>
      <trkpt lat="44.73834" lon="5.0297">
        <ele>398.20001220703</ele>
        <time>2016-06-09T14:38:53.000Z</time>
      </trkpt>
      <trkpt lat="44.73837" lon="5.02974">
        <ele>399.39999389648</ele>
        <time>2016-06-09T14:38:57.000Z</time>
      </trkpt>
      <trkpt lat="44.73842" lon="5.02975">
        <ele>399.79998779297</ele>
        <time>2016-06-09T14:39:00.000Z</time>
      </trkpt>
      <trkpt lat="44.73846" lon="5.02977">
        <ele>400.20001220703</ele>
        <time>2016-06-09T14:39:02.000Z</time>
      </trkpt>
      <trkpt lat="44.73853" lon="5.02978">
        <ele>399.39999389648</ele>
        <time>2016-06-09T14:39:07.000Z</time>
      </trkpt>
      <trkpt lat="44.73861" lon="5.02983">
        <ele>399</ele>
        <time>2016-06-09T14:39:12.000Z</time>
      </trkpt>
      <trkpt lat="44.73867" lon="5.02986">
        <ele>400.39999389648</ele>
        <time>2016-06-09T14:39:18.000Z</time>
      </trkpt>
      <trkpt lat="44.73868" lon="5.02987">
        <ele>400.60000610352</ele>
        <time>2016-06-09T14:39:19.000Z</time>
      </trkpt>
      <trkpt lat="44.73873" lon="5.02987">
        <ele>400.79998779297</ele>
        <time>2016-06-09T14:39:23.000Z</time>
      </trkpt>
      <trkpt lat="44.73874" lon="5.02989">
        <ele>401</ele>
        <time>2016-06-09T14:39:24.000Z</time>
      </trkpt>
      <trkpt lat="44.73877" lon="5.02994">
        <ele>401.60000610352</ele>
        <time>2016-06-09T14:39:27.000Z</time>
      </trkpt>
      <trkpt lat="44.73878" lon="5.02995">
        <ele>402.79998779297</ele>
        <time>2016-06-09T14:39:28.000Z</time>
      </trkpt>
      <trkpt lat="44.73881" lon="5.02998">
        <ele>403.79998779297</ele>
        <time>2016-06-09T14:39:30.000Z</time>
      </trkpt>
      <trkpt lat="44.73883" lon="5.02999">
        <ele>401.79998779297</ele>
        <time>2016-06-09T14:39:31.000Z</time>
      </trkpt>
      <trkpt lat="44.73892" lon="5.03002">
        <ele>401.39999389648</ele>
        <time>2016-06-09T14:39:35.000Z</time>
      </trkpt>
      <trkpt lat="44.73894" lon="5.03003">
        <ele>403.39999389648</ele>
        <time>2016-06-09T14:39:36.000Z</time>
      </trkpt>
      <trkpt lat="44.73896" lon="5.03005">
        <ele>402.39999389648</ele>
        <time>2016-06-09T14:39:37.000Z</time>
      </trkpt>
      <trkpt lat="44.73898" lon="5.03007">
        <ele>402.79998779297</ele>
        <time>2016-06-09T14:39:39.000Z</time>
      </trkpt>
      <trkpt lat="44.739" lon="5.03007">
        <ele>402.79998779297</ele>
        <time>2016-06-09T14:39:40.000Z</time>
      </trkpt>
      <trkpt lat="44.73906" lon="5.03008">
        <ele>403.60000610352</ele>
        <time>2016-06-09T14:39:43.000Z</time>
      </trkpt>
      <trkpt lat="44.73908" lon="5.03011">
        <ele>403.60000610352</ele>
        <time>2016-06-09T14:39:45.000Z</time>
      </trkpt>
      <trkpt lat="44.73915" lon="5.03012">
        <ele>403.60000610352</ele>
        <time>2016-06-09T14:39:50.000Z</time>
      </trkpt>
      <trkpt lat="44.73916" lon="5.03013">
        <ele>403.60000610352</ele>
        <time>2016-06-09T14:39:51.000Z</time>
      </trkpt>
      <trkpt lat="44.73922" lon="5.03015">
        <ele>402.79998779297</ele>
        <time>2016-06-09T14:39:54.000Z</time>
      </trkpt>
      <trkpt lat="44.73925" lon="5.03013">
        <ele>402.60000610352</ele>
        <time>2016-06-09T14:39:56.000Z</time>
      </trkpt>
      <trkpt lat="44.7393" lon="5.03013">
        <ele>402</ele>
        <time>2016-06-09T14:39:58.000Z</time>
      </trkpt>
      <trkpt lat="44.73932" lon="5.03012">
        <ele>402.20001220703</ele>
        <time>2016-06-09T14:39:59.000Z</time>
      </trkpt>
      <trkpt lat="44.73937" lon="5.03014">
        <ele>402.20001220703</ele>
        <time>2016-06-09T14:40:02.000Z</time>
      </trkpt>
      <trkpt lat="44.7394" lon="5.03016">
        <ele>402.20001220703</ele>
        <time>2016-06-09T14:40:04.000Z</time>
      </trkpt>
      <trkpt lat="44.73947" lon="5.0302">
        <ele>399.39999389648</ele>
        <time>2016-06-09T14:40:08.000Z</time>
      </trkpt>
      <trkpt lat="44.73949" lon="5.03022">
        <ele>399</ele>
        <time>2016-06-09T14:40:10.000Z</time>
      </trkpt>
      <trkpt lat="44.73954" lon="5.03025">
        <ele>402</ele>
        <time>2016-06-09T14:40:13.000Z</time>
      </trkpt>
      <trkpt lat="44.73957" lon="5.03026">
        <ele>402.20001220703</ele>
        <time>2016-06-09T14:40:15.000Z</time>
      </trkpt>
      <trkpt lat="44.73962" lon="5.03027">
        <ele>401</ele>
        <time>2016-06-09T14:40:19.000Z</time>
      </trkpt>
      <trkpt lat="44.73967" lon="5.03031">
        <ele>401.39999389648</ele>
        <time>2016-06-09T14:40:23.000Z</time>
      </trkpt>
      <trkpt lat="44.73972" lon="5.03031">
        <ele>402.39999389648</ele>
        <time>2016-06-09T14:40:28.000Z</time>
      </trkpt>
      <trkpt lat="44.73974" lon="5.03031">
        <ele>402.60000610352</ele>
        <time>2016-06-09T14:40:29.000Z</time>
      </trkpt>
      <trkpt lat="44.73975" lon="5.03031">
        <ele>401.20001220703</ele>
        <time>2016-06-09T14:40:31.000Z</time>
      </trkpt>
      <trkpt lat="44.73978" lon="5.03032">
        <ele>400.39999389648</ele>
        <time>2016-06-09T14:40:33.000Z</time>
      </trkpt>
      <trkpt lat="44.73979" lon="5.03032">
        <ele>400</ele>
        <time>2016-06-09T14:40:34.000Z</time>
      </trkpt>
      <trkpt lat="44.73985" lon="5.0303">
        <ele>399.60000610352</ele>
        <time>2016-06-09T14:40:38.000Z</time>
      </trkpt>
      <trkpt lat="44.73985" lon="5.03031">
        <ele>399.20001220703</ele>
        <time>2016-06-09T14:40:39.000Z</time>
      </trkpt>
      <trkpt lat="44.73992" lon="5.03032">
        <ele>399</ele>
        <time>2016-06-09T14:40:42.000Z</time>
      </trkpt>
      <trkpt lat="44.74002" lon="5.03032">
        <ele>399</ele>
        <time>2016-06-09T14:40:46.000Z</time>
      </trkpt>
      <trkpt lat="44.74011" lon="5.03034">
        <ele>399.60000610352</ele>
        <time>2016-06-09T14:40:50.000Z</time>
      </trkpt>
      <trkpt lat="44.74017" lon="5.03037">
        <ele>400.60000610352</ele>
        <time>2016-06-09T14:40:53.000Z</time>
      </trkpt>
      <trkpt lat="44.7402" lon="5.03038">
        <ele>399.39999389648</ele>
        <time>2016-06-09T14:40:54.000Z</time>
      </trkpt>
      <trkpt lat="44.74022" lon="5.03039">
        <ele>399.39999389648</ele>
        <time>2016-06-09T14:40:55.000Z</time>
      </trkpt>
      <trkpt lat="44.74034" lon="5.03043">
        <ele>398.60000610352</ele>
        <time>2016-06-09T14:41:00.000Z</time>
      </trkpt>
      <trkpt lat="44.74045" lon="5.03047">
        <ele>398.20001220703</ele>
        <time>2016-06-09T14:41:04.000Z</time>
      </trkpt>
      <trkpt lat="44.74054" lon="5.03048">
        <ele>398.20001220703</ele>
        <time>2016-06-09T14:41:08.000Z</time>
      </trkpt>
      <trkpt lat="44.74065" lon="5.0305">
        <ele>398.20001220703</ele>
        <time>2016-06-09T14:41:13.000Z</time>
      </trkpt>
      <trkpt lat="44.74074" lon="5.03053">
        <ele>398.20001220703</ele>
        <time>2016-06-09T14:41:17.000Z</time>
      </trkpt>
      <trkpt lat="44.74084" lon="5.03056">
        <ele>397.60000610352</ele>
        <time>2016-06-09T14:41:22.000Z</time>
      </trkpt>
      <trkpt lat="44.74097" lon="5.03053">
        <ele>397.60000610352</ele>
        <time>2016-06-09T14:41:27.000Z</time>
      </trkpt>
      <trkpt lat="44.74101" lon="5.03055">
        <ele>397.20001220703</ele>
        <time>2016-06-09T14:41:29.000Z</time>
      </trkpt>
      <trkpt lat="44.74102" lon="5.03057">
        <ele>396.79998779297</ele>
        <time>2016-06-09T14:41:30.000Z</time>
      </trkpt>
      <trkpt lat="44.74105" lon="5.03063">
        <ele>396.79998779297</ele>
        <time>2016-06-09T14:41:36.000Z</time>
      </trkpt>
      <trkpt lat="44.74107" lon="5.03064">
        <ele>397</ele>
        <time>2016-06-09T14:41:38.000Z</time>
      </trkpt>
      <trkpt lat="44.7411" lon="5.03065">
        <ele>396.39999389648</ele>
        <time>2016-06-09T14:41:40.000Z</time>
      </trkpt>
      <trkpt lat="44.74113" lon="5.03068">
        <ele>396.39999389648</ele>
        <time>2016-06-09T14:41:41.000Z</time>
      </trkpt>
      <trkpt lat="44.74115" lon="5.03072">
        <ele>396.20001220703</ele>
        <time>2016-06-09T14:41:43.000Z</time>
      </trkpt>
      <trkpt lat="44.74118" lon="5.03074">
        <ele>396.39999389648</ele>
        <time>2016-06-09T14:41:45.000Z</time>
      </trkpt>
      <trkpt lat="44.7412" lon="5.03075">
        <ele>396.79998779297</ele>
        <time>2016-06-09T14:41:47.000Z</time>
      </trkpt>
      <trkpt lat="44.74123" lon="5.03075">
        <ele>397.20001220703</ele>
        <time>2016-06-09T14:41:50.000Z</time>
      </trkpt>
      <trkpt lat="44.74124" lon="5.03075">
        <ele>397.20001220703</ele>
        <time>2016-06-09T14:41:51.000Z</time>
      </trkpt>
      <trkpt lat="44.74128" lon="5.03075">
        <ele>397.60000610352</ele>
        <time>2016-06-09T14:41:55.000Z</time>
      </trkpt>
      <trkpt lat="44.7413" lon="5.03076">
        <ele>398.39999389648</ele>
        <time>2016-06-09T14:41:59.000Z</time>
      </trkpt>
      <trkpt lat="44.74131" lon="5.03076">
        <ele>398.60000610352</ele>
        <time>2016-06-09T14:42:00.000Z</time>
      </trkpt>
      <trkpt lat="44.74134" lon="5.03078">
        <ele>399.60000610352</ele>
        <time>2016-06-09T14:42:04.000Z</time>
      </trkpt>
      <trkpt lat="44.74135" lon="5.03079">
        <ele>399.79998779297</ele>
        <time>2016-06-09T14:42:05.000Z</time>
      </trkpt>
      <trkpt lat="44.74138" lon="5.0308">
        <ele>400.39999389648</ele>
        <time>2016-06-09T14:42:10.000Z</time>
      </trkpt>
      <trkpt lat="44.74139" lon="5.0308">
        <ele>400.79998779297</ele>
        <time>2016-06-09T14:42:11.000Z</time>
      </trkpt>
      <trkpt lat="44.74141" lon="5.03082">
        <ele>402</ele>
        <time>2016-06-09T14:42:14.000Z</time>
      </trkpt>
      <trkpt lat="44.74142" lon="5.03084">
        <ele>402.20001220703</ele>
        <time>2016-06-09T14:42:15.000Z</time>
      </trkpt>
      <trkpt lat="44.74145" lon="5.03088">
        <ele>403</ele>
        <time>2016-06-09T14:42:18.000Z</time>
      </trkpt>
      <trkpt lat="44.74147" lon="5.03089">
        <ele>404</ele>
        <time>2016-06-09T14:42:21.000Z</time>
      </trkpt>
      <trkpt lat="44.74148" lon="5.03089">
        <ele>404.20001220703</ele>
        <time>2016-06-09T14:42:22.000Z</time>
      </trkpt>
      <trkpt lat="44.74152" lon="5.0309">
        <ele>404</ele>
        <time>2016-06-09T14:42:26.000Z</time>
      </trkpt>
      <trkpt lat="44.74156" lon="5.0309">
        <ele>404.39999389648</ele>
        <time>2016-06-09T14:42:30.000Z</time>
      </trkpt>
      <trkpt lat="44.74157" lon="5.0309">
        <ele>405</ele>
        <time>2016-06-09T14:42:32.000Z</time>
      </trkpt>
      <trkpt lat="44.74158" lon="5.0309">
        <ele>405.20001220703</ele>
        <time>2016-06-09T14:42:33.000Z</time>
      </trkpt>
      <trkpt lat="44.74158" lon="5.0309">
        <ele>405.39999389648</ele>
        <time>2016-06-09T14:42:34.000Z</time>
      </trkpt>
      <trkpt lat="44.74159" lon="5.03093">
        <ele>405.79998779297</ele>
        <time>2016-06-09T14:42:37.000Z</time>
      </trkpt>
      <trkpt lat="44.7416" lon="5.03094">
        <ele>406.20001220703</ele>
        <time>2016-06-09T14:42:38.000Z</time>
      </trkpt>
      <trkpt lat="44.74161" lon="5.03095">
        <ele>407.20001220703</ele>
        <time>2016-06-09T14:42:39.000Z</time>
      </trkpt>
      <trkpt lat="44.74161" lon="5.03096">
        <ele>407.60000610352</ele>
        <time>2016-06-09T14:42:40.000Z</time>
      </trkpt>
      <trkpt lat="44.74162" lon="5.03097">
        <ele>407.79998779297</ele>
        <time>2016-06-09T14:42:41.000Z</time>
      </trkpt>
      <trkpt lat="44.74165" lon="5.03098">
        <ele>407.79998779297</ele>
        <time>2016-06-09T14:42:45.000Z</time>
      </trkpt>
      <trkpt lat="44.74166" lon="5.03099">
        <ele>407.79998779297</ele>
        <time>2016-06-09T14:42:46.000Z</time>
      </trkpt>
      <trkpt lat="44.74169" lon="5.03099">
        <ele>407.79998779297</ele>
        <time>2016-06-09T14:42:49.000Z</time>
      </trkpt>
      <trkpt lat="44.7417" lon="5.031">
        <ele>407.60000610352</ele>
        <time>2016-06-09T14:42:50.000Z</time>
      </trkpt>
      <trkpt lat="44.74177" lon="5.031">
        <ele>407.20001220703</ele>
        <time>2016-06-09T14:42:54.000Z</time>
      </trkpt>
      <trkpt lat="44.74183" lon="5.03104">
        <ele>406.20001220703</ele>
        <time>2016-06-09T14:42:58.000Z</time>
      </trkpt>
      <trkpt lat="44.74185" lon="5.03105">
        <ele>406.20001220703</ele>
        <time>2016-06-09T14:42:59.000Z</time>
      </trkpt>
      <trkpt lat="44.74193" lon="5.03112">
        <ele>407.39999389648</ele>
        <time>2016-06-09T14:43:03.000Z</time>
      </trkpt>
      <trkpt lat="44.74196" lon="5.03112">
        <ele>407.79998779297</ele>
        <time>2016-06-09T14:43:04.000Z</time>
      </trkpt>
      <trkpt lat="44.74198" lon="5.03112">
        <ele>407.60000610352</ele>
        <time>2016-06-09T14:43:05.000Z</time>
      </trkpt>
      <trkpt lat="44.74202" lon="5.03112">
        <ele>407.39999389648</ele>
        <time>2016-06-09T14:43:08.000Z</time>
      </trkpt>
      <trkpt lat="44.74209" lon="5.03114">
        <ele>407.39999389648</ele>
        <time>2016-06-09T14:43:12.000Z</time>
      </trkpt>
      <trkpt lat="44.7421" lon="5.03114">
        <ele>407.39999389648</ele>
        <time>2016-06-09T14:43:13.000Z</time>
      </trkpt>
      <trkpt lat="44.74211" lon="5.03114">
        <ele>407.39999389648</ele>
        <time>2016-06-09T14:43:14.000Z</time>
      </trkpt>
      <trkpt lat="44.74216" lon="5.03114">
        <ele>407.79998779297</ele>
        <time>2016-06-09T14:43:17.000Z</time>
      </trkpt>
      <trkpt lat="44.74219" lon="5.03116">
        <ele>408.20001220703</ele>
        <time>2016-06-09T14:43:19.000Z</time>
      </trkpt>
      <trkpt lat="44.74222" lon="5.03119">
        <ele>408.60000610352</ele>
        <time>2016-06-09T14:43:21.000Z</time>
      </trkpt>
      <trkpt lat="44.74224" lon="5.03119">
        <ele>409.60000610352</ele>
        <time>2016-06-09T14:43:23.000Z</time>
      </trkpt>
      <trkpt lat="44.74225" lon="5.03119">
        <ele>409.79998779297</ele>
        <time>2016-06-09T14:43:24.000Z</time>
      </trkpt>
      <trkpt lat="44.74231" lon="5.03121">
        <ele>409.79998779297</ele>
        <time>2016-06-09T14:43:28.000Z</time>
      </trkpt>
      <trkpt lat="44.74232" lon="5.03122">
        <ele>410</ele>
        <time>2016-06-09T14:43:29.000Z</time>
      </trkpt>
      <trkpt lat="44.74234" lon="5.03123">
        <ele>407.79998779297</ele>
        <time>2016-06-09T14:43:30.000Z</time>
      </trkpt>
      <trkpt lat="44.7424" lon="5.03126">
        <ele>407.79998779297</ele>
        <time>2016-06-09T14:43:34.000Z</time>
      </trkpt>
      <trkpt lat="44.74241" lon="5.03127">
        <ele>410</ele>
        <time>2016-06-09T14:43:35.000Z</time>
      </trkpt>
      <trkpt lat="44.74246" lon="5.03131">
        <ele>410.79998779297</ele>
        <time>2016-06-09T14:43:39.000Z</time>
      </trkpt>
      <trkpt lat="44.74247" lon="5.03132">
        <ele>411.60000610352</ele>
        <time>2016-06-09T14:43:40.000Z</time>
      </trkpt>
      <trkpt lat="44.74249" lon="5.03132">
        <ele>412</ele>
        <time>2016-06-09T14:43:41.000Z</time>
      </trkpt>
      <trkpt lat="44.74253" lon="5.03134">
        <ele>413.20001220703</ele>
        <time>2016-06-09T14:43:43.000Z</time>
      </trkpt>
      <trkpt lat="44.74254" lon="5.03133">
        <ele>413.20001220703</ele>
        <time>2016-06-09T14:43:44.000Z</time>
      </trkpt>
      <trkpt lat="44.74259" lon="5.03133">
        <ele>412.79998779297</ele>
        <time>2016-06-09T14:43:46.000Z</time>
      </trkpt>
      <trkpt lat="44.74263" lon="5.03133">
        <ele>412</ele>
        <time>2016-06-09T14:43:48.000Z</time>
      </trkpt>
      <trkpt lat="44.7427" lon="5.03139">
        <ele>412.20001220703</ele>
        <time>2016-06-09T14:43:53.000Z</time>
      </trkpt>
      <trkpt lat="44.74277" lon="5.03141">
        <ele>412.39999389648</ele>
        <time>2016-06-09T14:43:58.000Z</time>
      </trkpt>
      <trkpt lat="44.74278" lon="5.03142">
        <ele>412.39999389648</ele>
        <time>2016-06-09T14:43:59.000Z</time>
      </trkpt>
      <trkpt lat="44.74281" lon="5.03142">
        <ele>412.79998779297</ele>
        <time>2016-06-09T14:44:01.000Z</time>
      </trkpt>
      <trkpt lat="44.74283" lon="5.03144">
        <ele>412.79998779297</ele>
        <time>2016-06-09T14:44:03.000Z</time>
      </trkpt>
      <trkpt lat="44.74287" lon="5.03147">
        <ele>413</ele>
        <time>2016-06-09T14:44:06.000Z</time>
      </trkpt>
      <trkpt lat="44.74287" lon="5.03147">
        <ele>413.20001220703</ele>
        <time>2016-06-09T14:44:07.000Z</time>
      </trkpt>
      <trkpt lat="44.74289" lon="5.03148">
        <ele>413.39999389648</ele>
        <time>2016-06-09T14:44:08.000Z</time>
      </trkpt>
      <trkpt lat="44.74292" lon="5.0315">
        <ele>414.20001220703</ele>
        <time>2016-06-09T14:44:11.000Z</time>
      </trkpt>
      <trkpt lat="44.74293" lon="5.0315">
        <ele>414.39999389648</ele>
        <time>2016-06-09T14:44:12.000Z</time>
      </trkpt>
      <trkpt lat="44.74302" lon="5.03155">
        <ele>414.39999389648</ele>
        <time>2016-06-09T14:44:17.000Z</time>
      </trkpt>
      <trkpt lat="44.74307" lon="5.03159">
        <ele>414.39999389648</ele>
        <time>2016-06-09T14:44:21.000Z</time>
      </trkpt>
      <trkpt lat="44.74313" lon="5.0316">
        <ele>414</ele>
        <time>2016-06-09T14:44:25.000Z</time>
      </trkpt>
      <trkpt lat="44.74313" lon="5.0316">
        <ele>414</ele>
        <time>2016-06-09T14:44:26.000Z</time>
      </trkpt>
      <trkpt lat="44.74322" lon="5.03165">
        <ele>417.39999389648</ele>
        <time>2016-06-09T14:45:29.000Z</time>
      </trkpt>
      <trkpt lat="44.74327" lon="5.03166">
        <ele>417</ele>
        <time>2016-06-09T14:45:33.000Z</time>
      </trkpt>
      <trkpt lat="44.74332" lon="5.03167">
        <ele>417.60000610352</ele>
        <time>2016-06-09T14:45:36.000Z</time>
      </trkpt>
      <trkpt lat="44.74335" lon="5.0317">
        <ele>416.79998779297</ele>
        <time>2016-06-09T14:45:38.000Z</time>
      </trkpt>
      <trkpt lat="44.74338" lon="5.03171">
        <ele>416</ele>
        <time>2016-06-09T14:45:40.000Z</time>
      </trkpt>
      <trkpt lat="44.74347" lon="5.03175">
        <ele>415</ele>
        <time>2016-06-09T14:45:45.000Z</time>
      </trkpt>
      <trkpt lat="44.74351" lon="5.03178">
        <ele>415.60000610352</ele>
        <time>2016-06-09T14:45:47.000Z</time>
      </trkpt>
      <trkpt lat="44.74354" lon="5.03181">
        <ele>415.39999389648</ele>
        <time>2016-06-09T14:45:49.000Z</time>
      </trkpt>
      <trkpt lat="44.74363" lon="5.03183">
        <ele>415.20001220703</ele>
        <time>2016-06-09T14:45:53.000Z</time>
      </trkpt>
      <trkpt lat="44.74366" lon="5.03186">
        <ele>415.20001220703</ele>
        <time>2016-06-09T14:45:54.000Z</time>
      </trkpt>
      <trkpt lat="44.74368" lon="5.03189">
        <ele>415.60000610352</ele>
        <time>2016-06-09T14:45:56.000Z</time>
      </trkpt>
      <trkpt lat="44.74368" lon="5.03191">
        <ele>415.60000610352</ele>
        <time>2016-06-09T14:45:58.000Z</time>
      </trkpt>
      <trkpt lat="44.74369" lon="5.03192">
        <ele>416.79998779297</ele>
        <time>2016-06-09T14:45:59.000Z</time>
      </trkpt>
      <trkpt lat="44.7437" lon="5.03193">
        <ele>417.60000610352</ele>
        <time>2016-06-09T14:46:01.000Z</time>
      </trkpt>
      <trkpt lat="44.74371" lon="5.03194">
        <ele>418.20001220703</ele>
        <time>2016-06-09T14:46:02.000Z</time>
      </trkpt>
      <trkpt lat="44.74373" lon="5.03195">
        <ele>418.60000610352</ele>
        <time>2016-06-09T14:46:04.000Z</time>
      </trkpt>
      <trkpt lat="44.74376" lon="5.03196">
        <ele>419.39999389648</ele>
        <time>2016-06-09T14:46:06.000Z</time>
      </trkpt>
      <trkpt lat="44.74382" lon="5.03198">
        <ele>419.79998779297</ele>
        <time>2016-06-09T14:46:12.000Z</time>
      </trkpt>
      <trkpt lat="44.74387" lon="5.032">
        <ele>420</ele>
        <time>2016-06-09T14:46:16.000Z</time>
      </trkpt>
      <trkpt lat="44.74388" lon="5.03201">
        <ele>420</ele>
        <time>2016-06-09T14:46:18.000Z</time>
      </trkpt>
      <trkpt lat="44.74392" lon="5.03203">
        <ele>420.39999389648</ele>
        <time>2016-06-09T14:46:20.000Z</time>
      </trkpt>
      <trkpt lat="44.74394" lon="5.03205">
        <ele>420.60000610352</ele>
        <time>2016-06-09T14:46:22.000Z</time>
      </trkpt>
      <trkpt lat="44.74398" lon="5.03206">
        <ele>421.20001220703</ele>
        <time>2016-06-09T14:46:25.000Z</time>
      </trkpt>
      <trkpt lat="44.74402" lon="5.03208">
        <ele>421.39999389648</ele>
        <time>2016-06-09T14:46:28.000Z</time>
      </trkpt>
      <trkpt lat="44.74403" lon="5.03209">
        <ele>421.60000610352</ele>
        <time>2016-06-09T14:46:29.000Z</time>
      </trkpt>
      <trkpt lat="44.74406" lon="5.03211">
        <ele>421.79998779297</ele>
        <time>2016-06-09T14:46:32.000Z</time>
      </trkpt>
      <trkpt lat="44.74408" lon="5.03212">
        <ele>422</ele>
        <time>2016-06-09T14:46:34.000Z</time>
      </trkpt>
      <trkpt lat="44.74412" lon="5.03213">
        <ele>422.20001220703</ele>
        <time>2016-06-09T14:46:37.000Z</time>
      </trkpt>
      <trkpt lat="44.74413" lon="5.03214">
        <ele>422.20001220703</ele>
        <time>2016-06-09T14:46:38.000Z</time>
      </trkpt>
      <trkpt lat="44.74416" lon="5.03216">
        <ele>422.39999389648</ele>
        <time>2016-06-09T14:46:42.000Z</time>
      </trkpt>
      <trkpt lat="44.74417" lon="5.03216">
        <ele>422.60000610352</ele>
        <time>2016-06-09T14:46:43.000Z</time>
      </trkpt>
      <trkpt lat="44.74422" lon="5.03217">
        <ele>422.20001220703</ele>
        <time>2016-06-09T14:46:48.000Z</time>
      </trkpt>
      <trkpt lat="44.74425" lon="5.03217">
        <ele>422</ele>
        <time>2016-06-09T14:46:51.000Z</time>
      </trkpt>
      <trkpt lat="44.74426" lon="5.03217">
        <ele>422</ele>
        <time>2016-06-09T14:46:52.000Z</time>
      </trkpt>
      <trkpt lat="44.74428" lon="5.03218">
        <ele>422.39999389648</ele>
        <time>2016-06-09T14:46:53.000Z</time>
      </trkpt>
      <trkpt lat="44.7443" lon="5.03218">
        <ele>422.39999389648</ele>
        <time>2016-06-09T14:46:56.000Z</time>
      </trkpt>
      <trkpt lat="44.74433" lon="5.0322">
        <ele>422</ele>
        <time>2016-06-09T14:46:59.000Z</time>
      </trkpt>
      <trkpt lat="44.74436" lon="5.03222">
        <ele>421.39999389648</ele>
        <time>2016-06-09T14:47:03.000Z</time>
      </trkpt>
      <trkpt lat="44.74437" lon="5.03222">
        <ele>421.39999389648</ele>
        <time>2016-06-09T14:47:04.000Z</time>
      </trkpt>
      <trkpt lat="44.74441" lon="5.03226">
        <ele>421.79998779297</ele>
        <time>2016-06-09T14:47:07.000Z</time>
      </trkpt>
      <trkpt lat="44.74442" lon="5.0323">
        <ele>422</ele>
        <time>2016-06-09T14:47:09.000Z</time>
      </trkpt>
      <trkpt lat="44.74449" lon="5.03235">
        <ele>421.79998779297</ele>
        <time>2016-06-09T14:47:14.000Z</time>
      </trkpt>
      <trkpt lat="44.74451" lon="5.03236">
        <ele>422</ele>
        <time>2016-06-09T14:47:16.000Z</time>
      </trkpt>
      <trkpt lat="44.74454" lon="5.03236">
        <ele>422.20001220703</ele>
        <time>2016-06-09T14:47:18.000Z</time>
      </trkpt>
      <trkpt lat="44.74456" lon="5.03236">
        <ele>422.39999389648</ele>
        <time>2016-06-09T14:47:19.000Z</time>
      </trkpt>
      <trkpt lat="44.7446" lon="5.03238">
        <ele>421.79998779297</ele>
        <time>2016-06-09T14:47:22.000Z</time>
      </trkpt>
      <trkpt lat="44.74467" lon="5.03238">
        <ele>422.39999389648</ele>
        <time>2016-06-09T14:47:27.000Z</time>
      </trkpt>
      <trkpt lat="44.74475" lon="5.03242">
        <ele>422.60000610352</ele>
        <time>2016-06-09T14:47:33.000Z</time>
      </trkpt>
      <trkpt lat="44.74478" lon="5.03244">
        <ele>422.60000610352</ele>
        <time>2016-06-09T14:47:37.000Z</time>
      </trkpt>
      <trkpt lat="44.74479" lon="5.03244">
        <ele>422.60000610352</ele>
        <time>2016-06-09T14:47:38.000Z</time>
      </trkpt>
      <trkpt lat="44.7448" lon="5.03245">
        <ele>422.79998779297</ele>
        <time>2016-06-09T14:47:39.000Z</time>
      </trkpt>
      <trkpt lat="44.74482" lon="5.03246">
        <ele>423.60000610352</ele>
        <time>2016-06-09T14:47:41.000Z</time>
      </trkpt>
      <trkpt lat="44.74483" lon="5.03248">
        <ele>424</ele>
        <time>2016-06-09T14:47:43.000Z</time>
      </trkpt>
      <trkpt lat="44.74483" lon="5.03248">
        <ele>424.20001220703</ele>
        <time>2016-06-09T14:47:44.000Z</time>
      </trkpt>
      <trkpt lat="44.74484" lon="5.03249">
        <ele>424.20001220703</ele>
        <time>2016-06-09T14:47:45.000Z</time>
      </trkpt>
      <trkpt lat="44.74488" lon="5.0325">
        <ele>425</ele>
        <time>2016-06-09T14:47:48.000Z</time>
      </trkpt>
      <trkpt lat="44.74489" lon="5.0325">
        <ele>425.60000610352</ele>
        <time>2016-06-09T14:47:49.000Z</time>
      </trkpt>
      <trkpt lat="44.74491" lon="5.0325">
        <ele>426.20001220703</ele>
        <time>2016-06-09T14:47:51.000Z</time>
      </trkpt>
      <trkpt lat="44.74492" lon="5.0325">
        <ele>426.39999389648</ele>
        <time>2016-06-09T14:47:52.000Z</time>
      </trkpt>
      <trkpt lat="44.74494" lon="5.0325">
        <ele>426.20001220703</ele>
        <time>2016-06-09T14:47:53.000Z</time>
      </trkpt>
      <trkpt lat="44.74496" lon="5.03251">
        <ele>426.20001220703</ele>
        <time>2016-06-09T14:47:54.000Z</time>
      </trkpt>
      <trkpt lat="44.74504" lon="5.03252">
        <ele>426.39999389648</ele>
        <time>2016-06-09T14:48:00.000Z</time>
      </trkpt>
      <trkpt lat="44.74508" lon="5.03256">
        <ele>425.20001220703</ele>
        <time>2016-06-09T14:48:04.000Z</time>
      </trkpt>
      <trkpt lat="44.74509" lon="5.03256">
        <ele>425</ele>
        <time>2016-06-09T14:48:05.000Z</time>
      </trkpt>
      <trkpt lat="44.74516" lon="5.03258">
        <ele>425.20001220703</ele>
        <time>2016-06-09T14:48:10.000Z</time>
      </trkpt>
      <trkpt lat="44.7452" lon="5.03259">
        <ele>424.79998779297</ele>
        <time>2016-06-09T14:48:13.000Z</time>
      </trkpt>
      <trkpt lat="44.74523" lon="5.03261">
        <ele>424</ele>
        <time>2016-06-09T14:48:15.000Z</time>
      </trkpt>
      <trkpt lat="44.74531" lon="5.03265">
        <ele>424.60000610352</ele>
        <time>2016-06-09T14:48:20.000Z</time>
      </trkpt>
      <trkpt lat="44.74533" lon="5.03266">
        <ele>424.79998779297</ele>
        <time>2016-06-09T14:48:21.000Z</time>
      </trkpt>
      <trkpt lat="44.74539" lon="5.03271">
        <ele>423.79998779297</ele>
        <time>2016-06-09T14:48:26.000Z</time>
      </trkpt>
      <trkpt lat="44.74541" lon="5.03274">
        <ele>424.20001220703</ele>
        <time>2016-06-09T14:48:30.000Z</time>
      </trkpt>
      <trkpt lat="44.74542" lon="5.03274">
        <ele>424</ele>
        <time>2016-06-09T14:48:31.000Z</time>
      </trkpt>
      <trkpt lat="44.74547" lon="5.03277">
        <ele>423</ele>
        <time>2016-06-09T14:48:35.000Z</time>
      </trkpt>
      <trkpt lat="44.74548" lon="5.03277">
        <ele>422.79998779297</ele>
        <time>2016-06-09T14:48:36.000Z</time>
      </trkpt>
      <trkpt lat="44.74554" lon="5.0328">
        <ele>422.39999389648</ele>
        <time>2016-06-09T14:48:41.000Z</time>
      </trkpt>
      <trkpt lat="44.74559" lon="5.03281">
        <ele>421.39999389648</ele>
        <time>2016-06-09T14:48:43.000Z</time>
      </trkpt>
      <trkpt lat="44.7456" lon="5.03281">
        <ele>421</ele>
        <time>2016-06-09T14:48:44.000Z</time>
      </trkpt>
      <trkpt lat="44.74562" lon="5.03282">
        <ele>421</ele>
        <time>2016-06-09T14:48:45.000Z</time>
      </trkpt>
      <trkpt lat="44.74564" lon="5.03282">
        <ele>420.39999389648</ele>
        <time>2016-06-09T14:48:47.000Z</time>
      </trkpt>
      <trkpt lat="44.74565" lon="5.03282">
        <ele>420</ele>
        <time>2016-06-09T14:48:48.000Z</time>
      </trkpt>
      <trkpt lat="44.74571" lon="5.03285">
        <ele>419.20001220703</ele>
        <time>2016-06-09T14:48:52.000Z</time>
      </trkpt>
      <trkpt lat="44.74572" lon="5.03286">
        <ele>419.39999389648</ele>
        <time>2016-06-09T14:48:53.000Z</time>
      </trkpt>
      <trkpt lat="44.74578" lon="5.03289">
        <ele>417.79998779297</ele>
        <time>2016-06-09T14:48:56.000Z</time>
      </trkpt>
      <trkpt lat="44.7458" lon="5.03288">
        <ele>418.60000610352</ele>
        <time>2016-06-09T14:48:57.000Z</time>
      </trkpt>
      <trkpt lat="44.74584" lon="5.03289">
        <ele>418.39999389648</ele>
        <time>2016-06-09T14:49:01.000Z</time>
      </trkpt>
      <trkpt lat="44.74588" lon="5.03287">
        <ele>418.20001220703</ele>
        <time>2016-06-09T14:49:05.000Z</time>
      </trkpt>
      <trkpt lat="44.74592" lon="5.0329">
        <ele>416.39999389648</ele>
        <time>2016-06-09T14:49:09.000Z</time>
      </trkpt>
      <trkpt lat="44.74593" lon="5.0329">
        <ele>415.79998779297</ele>
        <time>2016-06-09T14:49:10.000Z</time>
      </trkpt>
      <trkpt lat="44.74595" lon="5.0329">
        <ele>415.20001220703</ele>
        <time>2016-06-09T14:49:11.000Z</time>
      </trkpt>
      <trkpt lat="44.74597" lon="5.03291">
        <ele>414.20001220703</ele>
        <time>2016-06-09T14:49:13.000Z</time>
      </trkpt>
      <trkpt lat="44.74598" lon="5.0329">
        <ele>414.20001220703</ele>
        <time>2016-06-09T14:49:14.000Z</time>
      </trkpt>
      <trkpt lat="44.746" lon="5.0329">
        <ele>413.79998779297</ele>
        <time>2016-06-09T14:49:16.000Z</time>
      </trkpt>
      <trkpt lat="44.74605" lon="5.03291">
        <ele>412.39999389648</ele>
        <time>2016-06-09T14:49:19.000Z</time>
      </trkpt>
      <trkpt lat="44.74607" lon="5.03291">
        <ele>411.39999389648</ele>
        <time>2016-06-09T14:49:21.000Z</time>
      </trkpt>
      <trkpt lat="44.74614" lon="5.03292">
        <ele>411.20001220703</ele>
        <time>2016-06-09T14:49:26.000Z</time>
      </trkpt>
      <trkpt lat="44.74619" lon="5.03295">
        <ele>410.60000610352</ele>
        <time>2016-06-09T14:49:31.000Z</time>
      </trkpt>
      <trkpt lat="44.74624" lon="5.03297">
        <ele>410.20001220703</ele>
        <time>2016-06-09T14:49:33.000Z</time>
      </trkpt>
      <trkpt lat="44.74628" lon="5.033">
        <ele>409.20001220703</ele>
        <time>2016-06-09T14:49:36.000Z</time>
      </trkpt>
      <trkpt lat="44.7463" lon="5.03301">
        <ele>408.60000610352</ele>
        <time>2016-06-09T14:49:37.000Z</time>
      </trkpt>
      <trkpt lat="44.74634" lon="5.03302">
        <ele>408.39999389648</ele>
        <time>2016-06-09T14:49:40.000Z</time>
      </trkpt>
      <trkpt lat="44.74638" lon="5.03303">
        <ele>408.20001220703</ele>
        <time>2016-06-09T14:49:42.000Z</time>
      </trkpt>
      <trkpt lat="44.74639" lon="5.03305">
        <ele>407.20001220703</ele>
        <time>2016-06-09T14:49:45.000Z</time>
      </trkpt>
      <trkpt lat="44.74641" lon="5.03305">
        <ele>407</ele>
        <time>2016-06-09T14:49:46.000Z</time>
      </trkpt>
      <trkpt lat="44.74645" lon="5.03307">
        <ele>407</ele>
        <time>2016-06-09T14:49:49.000Z</time>
      </trkpt>
      <trkpt lat="44.74647" lon="5.03307">
        <ele>406.79998779297</ele>
        <time>2016-06-09T14:49:51.000Z</time>
      </trkpt>
      <trkpt lat="44.74657" lon="5.03309">
        <ele>406.60000610352</ele>
        <time>2016-06-09T14:49:56.000Z</time>
      </trkpt>
      <trkpt lat="44.74661" lon="5.03311">
        <ele>406.60000610352</ele>
        <time>2016-06-09T14:50:00.000Z</time>
      </trkpt>
      <trkpt lat="44.74663" lon="5.03311">
        <ele>405.79998779297</ele>
        <time>2016-06-09T14:50:02.000Z</time>
      </trkpt>
      <trkpt lat="44.74665" lon="5.03312">
        <ele>405.39999389648</ele>
        <time>2016-06-09T14:50:04.000Z</time>
      </trkpt>
      <trkpt lat="44.74666" lon="5.03313">
        <ele>405.20001220703</ele>
        <time>2016-06-09T14:50:07.000Z</time>
      </trkpt>
      <trkpt lat="44.74667" lon="5.03312">
        <ele>404.79998779297</ele>
        <time>2016-06-09T14:50:09.000Z</time>
      </trkpt>
      <trkpt lat="44.74668" lon="5.03311">
        <ele>404.39999389648</ele>
        <time>2016-06-09T14:50:10.000Z</time>
      </trkpt>
      <trkpt lat="44.74669" lon="5.03311">
        <ele>404.39999389648</ele>
        <time>2016-06-09T14:50:11.000Z</time>
      </trkpt>
      <trkpt lat="44.74671" lon="5.03311">
        <ele>403</ele>
        <time>2016-06-09T14:50:15.000Z</time>
      </trkpt>
      <trkpt lat="44.74673" lon="5.03311">
        <ele>402.20001220703</ele>
        <time>2016-06-09T14:50:17.000Z</time>
      </trkpt>
      <trkpt lat="44.74674" lon="5.03311">
        <ele>402</ele>
        <time>2016-06-09T14:50:18.000Z</time>
      </trkpt>
      <trkpt lat="44.74675" lon="5.03311">
        <ele>400.60000610352</ele>
        <time>2016-06-09T14:50:21.000Z</time>
      </trkpt>
      <trkpt lat="44.74675" lon="5.0331">
        <ele>400.60000610352</ele>
        <time>2016-06-09T14:50:22.000Z</time>
      </trkpt>
      <trkpt lat="44.74681" lon="5.03313">
        <ele>399.60000610352</ele>
        <time>2016-06-09T14:50:28.000Z</time>
      </trkpt>
      <trkpt lat="44.74683" lon="5.03314">
        <ele>399.39999389648</ele>
        <time>2016-06-09T14:50:29.000Z</time>
      </trkpt>
      <trkpt lat="44.74692" lon="5.03315">
        <ele>398.20001220703</ele>
        <time>2016-06-09T14:50:34.000Z</time>
      </trkpt>
      <trkpt lat="44.74698" lon="5.03318">
        <ele>397</ele>
        <time>2016-06-09T14:50:38.000Z</time>
      </trkpt>
      <trkpt lat="44.74699" lon="5.03319">
        <ele>397</ele>
        <time>2016-06-09T14:50:39.000Z</time>
      </trkpt>
      <trkpt lat="44.74703" lon="5.0332">
        <ele>396.20001220703</ele>
        <time>2016-06-09T14:50:41.000Z</time>
      </trkpt>
      <trkpt lat="44.74705" lon="5.03322">
        <ele>395.79998779297</ele>
        <time>2016-06-09T14:50:43.000Z</time>
      </trkpt>
      <trkpt lat="44.74706" lon="5.03323">
        <ele>395.39999389648</ele>
        <time>2016-06-09T14:50:44.000Z</time>
      </trkpt>
      <trkpt lat="44.74708" lon="5.03323">
        <ele>394.79998779297</ele>
        <time>2016-06-09T14:50:46.000Z</time>
      </trkpt>
      <trkpt lat="44.74711" lon="5.03323">
        <ele>394.20001220703</ele>
        <time>2016-06-09T14:50:48.000Z</time>
      </trkpt>
      <trkpt lat="44.74715" lon="5.03323">
        <ele>393.39999389648</ele>
        <time>2016-06-09T14:50:51.000Z</time>
      </trkpt>
      <trkpt lat="44.74718" lon="5.03323">
        <ele>392.79998779297</ele>
        <time>2016-06-09T14:50:53.000Z</time>
      </trkpt>
      <trkpt lat="44.74719" lon="5.03324">
        <ele>392.39999389648</ele>
        <time>2016-06-09T14:50:54.000Z</time>
      </trkpt>
      <trkpt lat="44.74722" lon="5.03326">
        <ele>391.39999389648</ele>
        <time>2016-06-09T14:50:57.000Z</time>
      </trkpt>
      <trkpt lat="44.74722" lon="5.03326">
        <ele>390.79998779297</ele>
        <time>2016-06-09T14:50:59.000Z</time>
      </trkpt>
      <trkpt lat="44.74724" lon="5.03326">
        <ele>390.39999389648</ele>
        <time>2016-06-09T14:51:01.000Z</time>
      </trkpt>
      <trkpt lat="44.74726" lon="5.03326">
        <ele>389.79998779297</ele>
        <time>2016-06-09T14:51:03.000Z</time>
      </trkpt>
      <trkpt lat="44.74727" lon="5.03326">
        <ele>389.20001220703</ele>
        <time>2016-06-09T14:51:04.000Z</time>
      </trkpt>
      <trkpt lat="44.74731" lon="5.03327">
        <ele>387.79998779297</ele>
        <time>2016-06-09T14:51:07.000Z</time>
      </trkpt>
      <trkpt lat="44.74734" lon="5.03329">
        <ele>387</ele>
        <time>2016-06-09T14:51:11.000Z</time>
      </trkpt>
      <trkpt lat="44.74734" lon="5.03329">
        <ele>386.79998779297</ele>
        <time>2016-06-09T14:51:12.000Z</time>
      </trkpt>
      <trkpt lat="44.74734" lon="5.0333">
        <ele>386</ele>
        <time>2016-06-09T14:51:14.000Z</time>
      </trkpt>
      <trkpt lat="44.74734" lon="5.03331">
        <ele>385.60000610352</ele>
        <time>2016-06-09T14:51:15.000Z</time>
      </trkpt>
      <trkpt lat="44.74734" lon="5.03332">
        <ele>385.20001220703</ele>
        <time>2016-06-09T14:51:16.000Z</time>
      </trkpt>
      <trkpt lat="44.74736" lon="5.03333">
        <ele>384.39999389648</ele>
        <time>2016-06-09T14:51:18.000Z</time>
      </trkpt>
      <trkpt lat="44.74736" lon="5.03334">
        <ele>383.60000610352</ele>
        <time>2016-06-09T14:51:20.000Z</time>
      </trkpt>
      <trkpt lat="44.74738" lon="5.03334">
        <ele>383.20001220703</ele>
        <time>2016-06-09T14:51:22.000Z</time>
      </trkpt>
      <trkpt lat="44.74739" lon="5.03336">
        <ele>382.60000610352</ele>
        <time>2016-06-09T14:51:24.000Z</time>
      </trkpt>
      <trkpt lat="44.74739" lon="5.03336">
        <ele>376.79998779297</ele>
        <time>2016-06-09T14:51:26.000Z</time>
      </trkpt>
      <trkpt lat="44.74741" lon="5.03335">
        <ele>376</ele>
        <time>2016-06-09T14:51:29.000Z</time>
      </trkpt>
      <trkpt lat="44.74742" lon="5.03334">
        <ele>375.79998779297</ele>
        <time>2016-06-09T14:51:30.000Z</time>
      </trkpt>
      <trkpt lat="44.74744" lon="5.03335">
        <ele>380.20001220703</ele>
        <time>2016-06-09T14:51:32.000Z</time>
      </trkpt>
      <trkpt lat="44.74745" lon="5.03337">
        <ele>379.60000610352</ele>
        <time>2016-06-09T14:51:35.000Z</time>
      </trkpt>
      <trkpt lat="44.74745" lon="5.03339">
        <ele>379.20001220703</ele>
        <time>2016-06-09T14:51:36.000Z</time>
      </trkpt>
      <trkpt lat="44.74746" lon="5.03341">
        <ele>378.20001220703</ele>
        <time>2016-06-09T14:51:39.000Z</time>
      </trkpt>
      <trkpt lat="44.74748" lon="5.03341">
        <ele>377.60000610352</ele>
        <time>2016-06-09T14:51:41.000Z</time>
      </trkpt>
      <trkpt lat="44.74749" lon="5.03343">
        <ele>377</ele>
        <time>2016-06-09T14:51:44.000Z</time>
      </trkpt>
      <trkpt lat="44.7475" lon="5.03343">
        <ele>376.20001220703</ele>
        <time>2016-06-09T14:51:47.000Z</time>
      </trkpt>
      <trkpt lat="44.74752" lon="5.03343">
        <ele>375.39999389648</ele>
        <time>2016-06-09T14:51:48.000Z</time>
      </trkpt>
      <trkpt lat="44.74754" lon="5.03343">
        <ele>374.60000610352</ele>
        <time>2016-06-09T14:51:51.000Z</time>
      </trkpt>
      <trkpt lat="44.74755" lon="5.03342">
        <ele>374.20001220703</ele>
        <time>2016-06-09T14:51:52.000Z</time>
      </trkpt>
      <trkpt lat="44.74757" lon="5.03342">
        <ele>372.79998779297</ele>
        <time>2016-06-09T14:51:56.000Z</time>
      </trkpt>
      <trkpt lat="44.74759" lon="5.03344">
        <ele>371.39999389648</ele>
        <time>2016-06-09T14:51:59.000Z</time>
      </trkpt>
      <trkpt lat="44.7476" lon="5.03343">
        <ele>371</ele>
        <time>2016-06-09T14:52:00.000Z</time>
      </trkpt>
      <trkpt lat="44.74762" lon="5.03342">
        <ele>370</ele>
        <time>2016-06-09T14:52:02.000Z</time>
      </trkpt>
      <trkpt lat="44.74763" lon="5.03341">
        <ele>369.79998779297</ele>
        <time>2016-06-09T14:52:03.000Z</time>
      </trkpt>
      <trkpt lat="44.74764" lon="5.0334">
        <ele>369.20001220703</ele>
        <time>2016-06-09T14:52:05.000Z</time>
      </trkpt>
      <trkpt lat="44.74765" lon="5.03341">
        <ele>368.79998779297</ele>
        <time>2016-06-09T14:52:06.000Z</time>
      </trkpt>
      <trkpt lat="44.74765" lon="5.03342">
        <ele>367.79998779297</ele>
        <time>2016-06-09T14:52:10.000Z</time>
      </trkpt>
      <trkpt lat="44.74769" lon="5.03341">
        <ele>366.39999389648</ele>
        <time>2016-06-09T14:52:13.000Z</time>
      </trkpt>
      <trkpt lat="44.74771" lon="5.0334">
        <ele>366.20001220703</ele>
        <time>2016-06-09T14:52:15.000Z</time>
      </trkpt>
      <trkpt lat="44.74776" lon="5.03335">
        <ele>366.79998779297</ele>
        <time>2016-06-09T14:52:18.000Z</time>
      </trkpt>
      <trkpt lat="44.74776" lon="5.03331">
        <ele>366.39999389648</ele>
        <time>2016-06-09T14:52:19.000Z</time>
      </trkpt>
      <trkpt lat="44.74773" lon="5.03322">
        <ele>364.79998779297</ele>
        <time>2016-06-09T14:52:22.000Z</time>
      </trkpt>
      <trkpt lat="44.74771" lon="5.0332">
        <ele>364.79998779297</ele>
        <time>2016-06-09T14:52:23.000Z</time>
      </trkpt>
      <trkpt lat="44.74768" lon="5.03314">
        <ele>362.79998779297</ele>
        <time>2016-06-09T14:52:25.000Z</time>
      </trkpt>
      <trkpt lat="44.74766" lon="5.03307">
        <ele>362.39999389648</ele>
        <time>2016-06-09T14:52:27.000Z</time>
      </trkpt>
      <trkpt lat="44.74765" lon="5.03304">
        <ele>361.60000610352</ele>
        <time>2016-06-09T14:52:28.000Z</time>
      </trkpt>
      <trkpt lat="44.74764" lon="5.03293">
        <ele>360.60000610352</ele>
        <time>2016-06-09T14:52:31.000Z</time>
      </trkpt>
      <trkpt lat="44.74764" lon="5.0329">
        <ele>360.20001220703</ele>
        <time>2016-06-09T14:52:32.000Z</time>
      </trkpt>
      <trkpt lat="44.74762" lon="5.03284">
        <ele>359.39999389648</ele>
        <time>2016-06-09T14:52:34.000Z</time>
      </trkpt>
      <trkpt lat="44.74757" lon="5.03275">
        <ele>358.60000610352</ele>
        <time>2016-06-09T14:52:37.000Z</time>
      </trkpt>
      <trkpt lat="44.74756" lon="5.03274">
        <ele>358.20001220703</ele>
        <time>2016-06-09T14:52:38.000Z</time>
      </trkpt>
      <trkpt lat="44.74755" lon="5.03269">
        <ele>357.20001220703</ele>
        <time>2016-06-09T14:52:40.000Z</time>
      </trkpt>
      <trkpt lat="44.74754" lon="5.03266">
        <ele>356.39999389648</ele>
        <time>2016-06-09T14:52:41.000Z</time>
      </trkpt>
      <trkpt lat="44.74751" lon="5.03257">
        <ele>355.20001220703</ele>
        <time>2016-06-09T14:52:44.000Z</time>
      </trkpt>
      <trkpt lat="44.7475" lon="5.03251">
        <ele>354.20001220703</ele>
        <time>2016-06-09T14:52:46.000Z</time>
      </trkpt>
      <trkpt lat="44.74746" lon="5.03243">
        <ele>352.79998779297</ele>
        <time>2016-06-09T14:52:49.000Z</time>
      </trkpt>
      <trkpt lat="44.74744" lon="5.03238">
        <ele>352.20001220703</ele>
        <time>2016-06-09T14:52:51.000Z</time>
      </trkpt>
      <trkpt lat="44.74743" lon="5.03235">
        <ele>351.79998779297</ele>
        <time>2016-06-09T14:52:52.000Z</time>
      </trkpt>
      <trkpt lat="44.74739" lon="5.03228">
        <ele>350.79998779297</ele>
        <time>2016-06-09T14:52:55.000Z</time>
      </trkpt>
      <trkpt lat="44.74739" lon="5.03225">
        <ele>350.20001220703</ele>
        <time>2016-06-09T14:52:56.000Z</time>
      </trkpt>
      <trkpt lat="44.74738" lon="5.03222">
        <ele>349.79998779297</ele>
        <time>2016-06-09T14:52:57.000Z</time>
      </trkpt>
      <trkpt lat="44.74733" lon="5.03215">
        <ele>348.39999389648</ele>
        <time>2016-06-09T14:53:00.000Z</time>
      </trkpt>
      <trkpt lat="44.74731" lon="5.03212">
        <ele>348.20001220703</ele>
        <time>2016-06-09T14:53:01.000Z</time>
      </trkpt>
      <trkpt lat="44.7473" lon="5.03209">
        <ele>347.79998779297</ele>
        <time>2016-06-09T14:53:02.000Z</time>
      </trkpt>
      <trkpt lat="44.74726" lon="5.03204">
        <ele>347.20001220703</ele>
        <time>2016-06-09T14:53:04.000Z</time>
      </trkpt>
      <trkpt lat="44.74723" lon="5.032">
        <ele>346.20001220703</ele>
        <time>2016-06-09T14:53:06.000Z</time>
      </trkpt>
      <trkpt lat="44.74722" lon="5.03198">
        <ele>345.79998779297</ele>
        <time>2016-06-09T14:53:07.000Z</time>
      </trkpt>
      <trkpt lat="44.7472" lon="5.03194">
        <ele>345</ele>
        <time>2016-06-09T14:53:09.000Z</time>
      </trkpt>
      <trkpt lat="44.74719" lon="5.03193">
        <ele>344.60000610352</ele>
        <time>2016-06-09T14:53:10.000Z</time>
      </trkpt>
      <trkpt lat="44.74712" lon="5.03177">
        <ele>343.20001220703</ele>
        <time>2016-06-09T14:53:15.000Z</time>
      </trkpt>
      <trkpt lat="44.74707" lon="5.03169">
        <ele>342.20001220703</ele>
        <time>2016-06-09T14:53:18.000Z</time>
      </trkpt>
      <trkpt lat="44.74707" lon="5.03164">
        <ele>342</ele>
        <time>2016-06-09T14:53:19.000Z</time>
      </trkpt>
      <trkpt lat="44.74705" lon="5.0315">
        <ele>341</ele>
        <time>2016-06-09T14:53:23.000Z</time>
      </trkpt>
      <trkpt lat="44.74705" lon="5.03134">
        <ele>340</ele>
        <time>2016-06-09T14:53:27.000Z</time>
      </trkpt>
      <trkpt lat="44.74705" lon="5.03127">
        <ele>339.20001220703</ele>
        <time>2016-06-09T14:53:29.000Z</time>
      </trkpt>
      <trkpt lat="44.74704" lon="5.03121">
        <ele>338.79998779297</ele>
        <time>2016-06-09T14:53:31.000Z</time>
      </trkpt>
      <trkpt lat="44.74704" lon="5.03113">
        <ele>338.60000610352</ele>
        <time>2016-06-09T14:53:34.000Z</time>
      </trkpt>
      <trkpt lat="44.747" lon="5.03101">
        <ele>337.39999389648</ele>
        <time>2016-06-09T14:53:38.000Z</time>
      </trkpt>
      <trkpt lat="44.74697" lon="5.03088">
        <ele>337</ele>
        <time>2016-06-09T14:53:42.000Z</time>
      </trkpt>
      <trkpt lat="44.74696" lon="5.03076">
        <ele>336.20001220703</ele>
        <time>2016-06-09T14:53:45.000Z</time>
      </trkpt>
      <trkpt lat="44.74695" lon="5.03072">
        <ele>336.20001220703</ele>
        <time>2016-06-09T14:53:46.000Z</time>
      </trkpt>
      <trkpt lat="44.74691" lon="5.03063">
        <ele>335</ele>
        <time>2016-06-09T14:53:49.000Z</time>
      </trkpt>
      <trkpt lat="44.7469" lon="5.03057">
        <ele>334</ele>
        <time>2016-06-09T14:53:51.000Z</time>
      </trkpt>
      <trkpt lat="44.74688" lon="5.03054">
        <ele>334</ele>
        <time>2016-06-09T14:53:52.000Z</time>
      </trkpt>
      <trkpt lat="44.74684" lon="5.03049">
        <ele>333</ele>
        <time>2016-06-09T14:53:54.000Z</time>
      </trkpt>
      <trkpt lat="44.74684" lon="5.03046">
        <ele>332.60000610352</ele>
        <time>2016-06-09T14:53:55.000Z</time>
      </trkpt>
      <trkpt lat="44.74679" lon="5.03039">
        <ele>331.39999389648</ele>
        <time>2016-06-09T14:53:58.000Z</time>
      </trkpt>
      <trkpt lat="44.74677" lon="5.03036">
        <ele>331</ele>
        <time>2016-06-09T14:53:59.000Z</time>
      </trkpt>
      <trkpt lat="44.74676" lon="5.03035">
        <ele>330.79998779297</ele>
        <time>2016-06-09T14:54:00.000Z</time>
      </trkpt>
      <trkpt lat="44.74673" lon="5.03029">
        <ele>330.39999389648</ele>
        <time>2016-06-09T14:54:02.000Z</time>
      </trkpt>
      <trkpt lat="44.74672" lon="5.03028">
        <ele>330.20001220703</ele>
        <time>2016-06-09T14:54:03.000Z</time>
      </trkpt>
      <trkpt lat="44.74666" lon="5.03022">
        <ele>329.39999389648</ele>
        <time>2016-06-09T14:54:06.000Z</time>
      </trkpt>
      <trkpt lat="44.74664" lon="5.03017">
        <ele>328.79998779297</ele>
        <time>2016-06-09T14:54:08.000Z</time>
      </trkpt>
      <trkpt lat="44.74661" lon="5.03013">
        <ele>328.20001220703</ele>
        <time>2016-06-09T14:54:10.000Z</time>
      </trkpt>
      <trkpt lat="44.74658" lon="5.03009">
        <ele>328</ele>
        <time>2016-06-09T14:54:12.000Z</time>
      </trkpt>
      <trkpt lat="44.74656" lon="5.03006">
        <ele>327.60000610352</ele>
        <time>2016-06-09T14:54:13.000Z</time>
      </trkpt>
      <trkpt lat="44.7465" lon="5.02998">
        <ele>327.20001220703</ele>
        <time>2016-06-09T14:54:16.000Z</time>
      </trkpt>
      <trkpt lat="44.74649" lon="5.02995">
        <ele>327.20001220703</ele>
        <time>2016-06-09T14:54:17.000Z</time>
      </trkpt>
      <trkpt lat="44.74647" lon="5.02994">
        <ele>327.20001220703</ele>
        <time>2016-06-09T14:54:18.000Z</time>
      </trkpt>
      <trkpt lat="44.74643" lon="5.02991">
        <ele>326.60000610352</ele>
        <time>2016-06-09T14:54:21.000Z</time>
      </trkpt>
      <trkpt lat="44.74639" lon="5.02987">
        <ele>326.20001220703</ele>
        <time>2016-06-09T14:54:23.000Z</time>
      </trkpt>
      <trkpt lat="44.74637" lon="5.02985">
        <ele>326</ele>
        <time>2016-06-09T14:54:24.000Z</time>
      </trkpt>
      <trkpt lat="44.74635" lon="5.02983">
        <ele>325.60000610352</ele>
        <time>2016-06-09T14:54:25.000Z</time>
      </trkpt>
      <trkpt lat="44.74626" lon="5.02975">
        <ele>324.79998779297</ele>
        <time>2016-06-09T14:54:28.000Z</time>
      </trkpt>
      <trkpt lat="44.74624" lon="5.02972">
        <ele>324.39999389648</ele>
        <time>2016-06-09T14:54:29.000Z</time>
      </trkpt>
      <trkpt lat="44.74618" lon="5.02966">
        <ele>323.39999389648</ele>
        <time>2016-06-09T14:54:32.000Z</time>
      </trkpt>
      <trkpt lat="44.74616" lon="5.02964">
        <ele>323</ele>
        <time>2016-06-09T14:54:33.000Z</time>
      </trkpt>
      <trkpt lat="44.74611" lon="5.02958">
        <ele>322.39999389648</ele>
        <time>2016-06-09T14:54:36.000Z</time>
      </trkpt>
      <trkpt lat="44.74608" lon="5.02954">
        <ele>322.20001220703</ele>
        <time>2016-06-09T14:54:38.000Z</time>
      </trkpt>
      <trkpt lat="44.74592" lon="5.02939">
        <ele>310.20001220703</ele>
        <time>2016-06-09T14:56:57.000Z</time>
      </trkpt>
      <trkpt lat="44.74588" lon="5.02935">
        <ele>310.60000610352</ele>
        <time>2016-06-09T14:57:00.000Z</time>
      </trkpt>
      <trkpt lat="44.74579" lon="5.02931">
        <ele>310</ele>
        <time>2016-06-09T14:57:05.000Z</time>
      </trkpt>
      <trkpt lat="44.74578" lon="5.02929">
        <ele>310.20001220703</ele>
        <time>2016-06-09T14:57:06.000Z</time>
      </trkpt>
      <trkpt lat="44.74572" lon="5.0292">
        <ele>310</ele>
        <time>2016-06-09T14:57:09.000Z</time>
      </trkpt>
      <trkpt lat="44.7457" lon="5.02917">
        <ele>310</ele>
        <time>2016-06-09T14:57:10.000Z</time>
      </trkpt>
      <trkpt lat="44.74563" lon="5.02913">
        <ele>309</ele>
        <time>2016-06-09T14:57:13.000Z</time>
      </trkpt>
      <trkpt lat="44.74559" lon="5.02909">
        <ele>308</ele>
        <time>2016-06-09T14:57:15.000Z</time>
      </trkpt>
      <trkpt lat="44.74554" lon="5.02906">
        <ele>306.39999389648</ele>
        <time>2016-06-09T14:57:18.000Z</time>
      </trkpt>
      <trkpt lat="44.74552" lon="5.02905">
        <ele>305.79998779297</ele>
        <time>2016-06-09T14:57:19.000Z</time>
      </trkpt>
      <trkpt lat="44.7455" lon="5.02903">
        <ele>305</ele>
        <time>2016-06-09T14:57:20.000Z</time>
      </trkpt>
      <trkpt lat="44.74544" lon="5.02899">
        <ele>304.39999389648</ele>
        <time>2016-06-09T14:57:23.000Z</time>
      </trkpt>
      <trkpt lat="44.74541" lon="5.02895">
        <ele>304</ele>
        <time>2016-06-09T14:57:25.000Z</time>
      </trkpt>
      <trkpt lat="44.74536" lon="5.02892">
        <ele>304</ele>
        <time>2016-06-09T14:57:27.000Z</time>
      </trkpt>
      <trkpt lat="44.74524" lon="5.02888">
        <ele>304</ele>
        <time>2016-06-09T14:57:32.000Z</time>
      </trkpt>
      <trkpt lat="44.74514" lon="5.0288">
        <ele>303</ele>
        <time>2016-06-09T14:57:36.000Z</time>
      </trkpt>
      <trkpt lat="44.74511" lon="5.02879">
        <ele>302.79998779297</ele>
        <time>2016-06-09T14:57:37.000Z</time>
      </trkpt>
      <trkpt lat="44.74502" lon="5.02874">
        <ele>301</ele>
        <time>2016-06-09T14:57:40.000Z</time>
      </trkpt>
      <trkpt lat="44.74494" lon="5.02869">
        <ele>300.79998779297</ele>
        <time>2016-06-09T14:57:43.000Z</time>
      </trkpt>
      <trkpt lat="44.74479" lon="5.02855">
        <ele>300.79998779297</ele>
        <time>2016-06-09T14:57:49.000Z</time>
      </trkpt>
      <trkpt lat="44.74466" lon="5.02841">
        <ele>301.39999389648</ele>
        <time>2016-06-09T14:57:54.000Z</time>
      </trkpt>
      <trkpt lat="44.74453" lon="5.02832">
        <ele>302</ele>
        <time>2016-06-09T14:57:59.000Z</time>
      </trkpt>
      <trkpt lat="44.74451" lon="5.0283">
        <ele>302.20001220703</ele>
        <time>2016-06-09T14:58:00.000Z</time>
      </trkpt>
      <trkpt lat="44.7444" lon="5.02827">
        <ele>302.60000610352</ele>
        <time>2016-06-09T14:58:04.000Z</time>
      </trkpt>
      <trkpt lat="44.74436" lon="5.02818">
        <ele>313.20001220703</ele>
        <time>2016-06-09T15:00:02.000Z</time>
      </trkpt>
      <trkpt lat="44.7443" lon="5.02815">
        <ele>315.79998779297</ele>
        <time>2016-06-09T15:00:05.000Z</time>
      </trkpt>
      <trkpt lat="44.74429" lon="5.02813">
        <ele>316.79998779297</ele>
        <time>2016-06-09T15:00:06.000Z</time>
      </trkpt>
      <trkpt lat="44.74417" lon="5.0281">
        <ele>316.39999389648</ele>
        <time>2016-06-09T15:00:11.000Z</time>
      </trkpt>
      <trkpt lat="44.74401" lon="5.02803">
        <ele>316.20001220703</ele>
        <time>2016-06-09T15:00:17.000Z</time>
      </trkpt>
      <trkpt lat="44.74388" lon="5.02799">
        <ele>315.79998779297</ele>
        <time>2016-06-09T15:00:22.000Z</time>
      </trkpt>
      <trkpt lat="44.74377" lon="5.02798">
        <ele>315.60000610352</ele>
        <time>2016-06-09T15:00:27.000Z</time>
      </trkpt>
      <trkpt lat="44.74367" lon="5.02794">
        <ele>315.20001220703</ele>
        <time>2016-06-09T15:00:32.000Z</time>
      </trkpt>
      <trkpt lat="44.74354" lon="5.02788">
        <ele>314.79998779297</ele>
        <time>2016-06-09T15:00:37.000Z</time>
      </trkpt>
      <trkpt lat="44.74335" lon="5.02783">
        <ele>315.20001220703</ele>
        <time>2016-06-09T15:00:43.000Z</time>
      </trkpt>
      <trkpt lat="44.74329" lon="5.02781">
        <ele>314.39999389648</ele>
        <time>2016-06-09T15:00:45.000Z</time>
      </trkpt>
      <trkpt lat="44.74321" lon="5.0278">
        <ele>313.39999389648</ele>
        <time>2016-06-09T15:00:48.000Z</time>
      </trkpt>
      <trkpt lat="44.74319" lon="5.02779">
        <ele>313.20001220703</ele>
        <time>2016-06-09T15:00:49.000Z</time>
      </trkpt>
      <trkpt lat="44.74306" lon="5.02777">
        <ele>313</ele>
        <time>2016-06-09T15:00:54.000Z</time>
      </trkpt>
      <trkpt lat="44.7429" lon="5.02774">
        <ele>313.39999389648</ele>
        <time>2016-06-09T15:01:00.000Z</time>
      </trkpt>
      <trkpt lat="44.74284" lon="5.02773">
        <ele>312.79998779297</ele>
        <time>2016-06-09T15:01:03.000Z</time>
      </trkpt>
      <trkpt lat="44.74282" lon="5.02774">
        <ele>312.60000610352</ele>
        <time>2016-06-09T15:01:04.000Z</time>
      </trkpt>
      <trkpt lat="44.74271" lon="5.02772">
        <ele>313.39999389648</ele>
        <time>2016-06-09T15:01:09.000Z</time>
      </trkpt>
      <trkpt lat="44.74268" lon="5.02772">
        <ele>313.20001220703</ele>
        <time>2016-06-09T15:01:10.000Z</time>
      </trkpt>
      <trkpt lat="44.74256" lon="5.02769">
        <ele>312.79998779297</ele>
        <time>2016-06-09T15:01:15.000Z</time>
      </trkpt>
      <trkpt lat="44.74242" lon="5.02762">
        <ele>313.20001220703</ele>
        <time>2016-06-09T15:01:20.000Z</time>
      </trkpt>
      <trkpt lat="44.74226" lon="5.02754">
        <ele>313.39999389648</ele>
        <time>2016-06-09T15:01:25.000Z</time>
      </trkpt>
      <trkpt lat="44.74211" lon="5.02752">
        <ele>312.60000610352</ele>
        <time>2016-06-09T15:01:31.000Z</time>
      </trkpt>
      <trkpt lat="44.74206" lon="5.02749">
        <ele>312.39999389648</ele>
        <time>2016-06-09T15:01:33.000Z</time>
      </trkpt>
      <trkpt lat="44.74201" lon="5.02746">
        <ele>312.20001220703</ele>
        <time>2016-06-09T15:01:35.000Z</time>
      </trkpt>
      <trkpt lat="44.74191" lon="5.0274">
        <ele>311.60000610352</ele>
        <time>2016-06-09T15:01:39.000Z</time>
      </trkpt>
      <trkpt lat="44.7419" lon="5.02739">
        <ele>311.60000610352</ele>
        <time>2016-06-09T15:01:40.000Z</time>
      </trkpt>
      <trkpt lat="44.74184" lon="5.02736">
        <ele>311.20001220703</ele>
        <time>2016-06-09T15:01:43.000Z</time>
      </trkpt>
      <trkpt lat="44.74177" lon="5.02735">
        <ele>310.60000610352</ele>
        <time>2016-06-09T15:01:46.000Z</time>
      </trkpt>
      <trkpt lat="44.74165" lon="5.02733">
        <ele>311.20001220703</ele>
        <time>2016-06-09T15:01:50.000Z</time>
      </trkpt>
      <trkpt lat="44.74162" lon="5.02732">
        <ele>311.39999389648</ele>
        <time>2016-06-09T15:01:51.000Z</time>
      </trkpt>
      <trkpt lat="44.74151" lon="5.02729">
        <ele>310.20001220703</ele>
        <time>2016-06-09T15:01:55.000Z</time>
      </trkpt>
      <trkpt lat="44.74148" lon="5.02728">
        <ele>309.79998779297</ele>
        <time>2016-06-09T15:01:56.000Z</time>
      </trkpt>
      <trkpt lat="44.74137" lon="5.02722">
        <ele>309.39999389648</ele>
        <time>2016-06-09T15:02:00.000Z</time>
      </trkpt>
      <trkpt lat="44.74123" lon="5.02711">
        <ele>310.20001220703</ele>
        <time>2016-06-09T15:02:05.000Z</time>
      </trkpt>
      <trkpt lat="44.74114" lon="5.02689">
        <ele>309.20001220703</ele>
        <time>2016-06-09T15:02:10.000Z</time>
      </trkpt>
      <trkpt lat="44.74114" lon="5.02684">
        <ele>309</ele>
        <time>2016-06-09T15:02:11.000Z</time>
      </trkpt>
      <trkpt lat="44.74114" lon="5.02661">
        <ele>308.39999389648</ele>
        <time>2016-06-09T15:02:16.000Z</time>
      </trkpt>
      <trkpt lat="44.74114" lon="5.02652">
        <ele>307.20001220703</ele>
        <time>2016-06-09T15:02:18.000Z</time>
      </trkpt>
      <trkpt lat="44.74115" lon="5.02634">
        <ele>307.20001220703</ele>
        <time>2016-06-09T15:02:22.000Z</time>
      </trkpt>
      <trkpt lat="44.74116" lon="5.02607">
        <ele>306.39999389648</ele>
        <time>2016-06-09T15:02:28.000Z</time>
      </trkpt>
      <trkpt lat="44.74117" lon="5.02603">
        <ele>306</ele>
        <time>2016-06-09T15:02:29.000Z</time>
      </trkpt>
      <trkpt lat="44.74118" lon="5.02591">
        <ele>304.60000610352</ele>
        <time>2016-06-09T15:02:32.000Z</time>
      </trkpt>
      <trkpt lat="44.74118" lon="5.02583">
        <ele>304.39999389648</ele>
        <time>2016-06-09T15:02:34.000Z</time>
      </trkpt>
      <trkpt lat="44.74121" lon="5.02563">
        <ele>304.20001220703</ele>
        <time>2016-06-09T15:02:39.000Z</time>
      </trkpt>
      <trkpt lat="44.74122" lon="5.02552">
        <ele>303.39999389648</ele>
        <time>2016-06-09T15:02:42.000Z</time>
      </trkpt>
      <trkpt lat="44.74122" lon="5.0254">
        <ele>302.39999389648</ele>
        <time>2016-06-09T15:02:45.000Z</time>
      </trkpt>
      <trkpt lat="44.74123" lon="5.02537">
        <ele>302.20001220703</ele>
        <time>2016-06-09T15:02:46.000Z</time>
      </trkpt>
      <trkpt lat="44.74125" lon="5.02519">
        <ele>302.39999389648</ele>
        <time>2016-06-09T15:02:51.000Z</time>
      </trkpt>
      <trkpt lat="44.74129" lon="5.02501">
        <ele>301</ele>
        <time>2016-06-09T15:02:56.000Z</time>
      </trkpt>
      <trkpt lat="44.7413" lon="5.02497">
        <ele>300.60000610352</ele>
        <time>2016-06-09T15:02:57.000Z</time>
      </trkpt>
      <trkpt lat="44.74131" lon="5.02487">
        <ele>299.79998779297</ele>
        <time>2016-06-09T15:03:00.000Z</time>
      </trkpt>
      <trkpt lat="44.74134" lon="5.02479">
        <ele>299.79998779297</ele>
        <time>2016-06-09T15:03:02.000Z</time>
      </trkpt>
      <trkpt lat="44.74138" lon="5.02466">
        <ele>298.79998779297</ele>
        <time>2016-06-09T15:03:06.000Z</time>
      </trkpt>
      <trkpt lat="44.74139" lon="5.02463">
        <ele>298.39999389648</ele>
        <time>2016-06-09T15:03:07.000Z</time>
      </trkpt>
      <trkpt lat="44.74141" lon="5.02452">
        <ele>297.20001220703</ele>
        <time>2016-06-09T15:03:10.000Z</time>
      </trkpt>
      <trkpt lat="44.74142" lon="5.02448">
        <ele>297</ele>
        <time>2016-06-09T15:03:11.000Z</time>
      </trkpt>
      <trkpt lat="44.74147" lon="5.02428">
        <ele>296.79998779297</ele>
        <time>2016-06-09T15:03:16.000Z</time>
      </trkpt>
      <trkpt lat="44.74152" lon="5.02407">
        <ele>295.79998779297</ele>
        <time>2016-06-09T15:03:21.000Z</time>
      </trkpt>
      <trkpt lat="44.74156" lon="5.02395">
        <ele>294.39999389648</ele>
        <time>2016-06-09T15:03:24.000Z</time>
      </trkpt>
      <trkpt lat="44.74157" lon="5.02391">
        <ele>294</ele>
        <time>2016-06-09T15:03:25.000Z</time>
      </trkpt>
      <trkpt lat="44.74162" lon="5.0237">
        <ele>294.20001220703</ele>
        <time>2016-06-09T15:03:30.000Z</time>
      </trkpt>
      <trkpt lat="44.74163" lon="5.02348">
        <ele>294</ele>
        <time>2016-06-09T15:03:35.000Z</time>
      </trkpt>
      <trkpt lat="44.74163" lon="5.02339">
        <ele>293.20001220703</ele>
        <time>2016-06-09T15:03:37.000Z</time>
      </trkpt>
      <trkpt lat="44.7416" lon="5.02327">
        <ele>292.79998779297</ele>
        <time>2016-06-09T15:03:40.000Z</time>
      </trkpt>
      <trkpt lat="44.74159" lon="5.02323">
        <ele>292</ele>
        <time>2016-06-09T15:03:41.000Z</time>
      </trkpt>
      <trkpt lat="44.74157" lon="5.02311">
        <ele>290.20001220703</ele>
        <time>2016-06-09T15:03:44.000Z</time>
      </trkpt>
      <trkpt lat="44.74156" lon="5.02307">
        <ele>290.20001220703</ele>
        <time>2016-06-09T15:03:45.000Z</time>
      </trkpt>
      <trkpt lat="44.74156" lon="5.02304">
        <ele>290.20001220703</ele>
        <time>2016-06-09T15:03:46.000Z</time>
      </trkpt>
      <trkpt lat="44.74154" lon="5.02291">
        <ele>290</ele>
        <time>2016-06-09T15:03:49.000Z</time>
      </trkpt>
      <trkpt lat="44.7415" lon="5.02275">
        <ele>290</ele>
        <time>2016-06-09T15:03:53.000Z</time>
      </trkpt>
      <trkpt lat="44.74146" lon="5.02262">
        <ele>288.79998779297</ele>
        <time>2016-06-09T15:03:56.000Z</time>
      </trkpt>
      <trkpt lat="44.74146" lon="5.02258">
        <ele>288.60000610352</ele>
        <time>2016-06-09T15:03:57.000Z</time>
      </trkpt>
      <trkpt lat="44.74148" lon="5.0225">
        <ele>287.79998779297</ele>
        <time>2016-06-09T15:03:59.000Z</time>
      </trkpt>
      <trkpt lat="44.74153" lon="5.02243">
        <ele>288</ele>
        <time>2016-06-09T15:04:01.000Z</time>
      </trkpt>
      <trkpt lat="44.74165" lon="5.02231">
        <ele>287.79998779297</ele>
        <time>2016-06-09T15:04:06.000Z</time>
      </trkpt>
      <trkpt lat="44.74176" lon="5.02219">
        <ele>289</ele>
        <time>2016-06-09T15:04:12.000Z</time>
      </trkpt>
      <trkpt lat="44.74183" lon="5.0221">
        <ele>289</ele>
        <time>2016-06-09T15:04:17.000Z</time>
      </trkpt>
      <trkpt lat="44.74186" lon="5.02209">
        <ele>289</ele>
        <time>2016-06-09T15:04:18.000Z</time>
      </trkpt>
      <trkpt lat="44.7419" lon="5.02204">
        <ele>288.79998779297</ele>
        <time>2016-06-09T15:04:21.000Z</time>
      </trkpt>
      <trkpt lat="44.74192" lon="5.02202">
        <ele>288.79998779297</ele>
        <time>2016-06-09T15:04:22.000Z</time>
      </trkpt>
      <trkpt lat="44.74197" lon="5.02195">
        <ele>290</ele>
        <time>2016-06-09T15:04:26.000Z</time>
      </trkpt>
      <trkpt lat="44.74198" lon="5.02193">
        <ele>290</ele>
        <time>2016-06-09T15:04:27.000Z</time>
      </trkpt>
      <trkpt lat="44.74199" lon="5.02185">
        <ele>290.39999389648</ele>
        <time>2016-06-09T15:04:30.000Z</time>
      </trkpt>
      <trkpt lat="44.74192" lon="5.02173">
        <ele>290.39999389648</ele>
        <time>2016-06-09T15:04:34.000Z</time>
      </trkpt>
      <trkpt lat="44.74189" lon="5.02167">
        <ele>290</ele>
        <time>2016-06-09T15:04:36.000Z</time>
      </trkpt>
      <trkpt lat="44.7418" lon="5.02155">
        <ele>290.39999389648</ele>
        <time>2016-06-09T15:04:41.000Z</time>
      </trkpt>
      <trkpt lat="44.74168" lon="5.02146">
        <ele>290.20001220703</ele>
        <time>2016-06-09T15:04:46.000Z</time>
      </trkpt>
      <trkpt lat="44.74155" lon="5.02135">
        <ele>289</ele>
        <time>2016-06-09T15:04:51.000Z</time>
      </trkpt>
      <trkpt lat="44.74153" lon="5.02133">
        <ele>288.60000610352</ele>
        <time>2016-06-09T15:04:52.000Z</time>
      </trkpt>
      <trkpt lat="44.74145" lon="5.02118">
        <ele>288.20001220703</ele>
        <time>2016-06-09T15:04:57.000Z</time>
      </trkpt>
      <trkpt lat="44.74142" lon="5.02112">
        <ele>287.60000610352</ele>
        <time>2016-06-09T15:04:59.000Z</time>
      </trkpt>
      <trkpt lat="44.74136" lon="5.02099">
        <ele>287.39999389648</ele>
        <time>2016-06-09T15:05:03.000Z</time>
      </trkpt>
      <trkpt lat="44.7413" lon="5.02081">
        <ele>286.60000610352</ele>
        <time>2016-06-09T15:05:09.000Z</time>
      </trkpt>
      <trkpt lat="44.74127" lon="5.02075">
        <ele>286.39999389648</ele>
        <time>2016-06-09T15:05:11.000Z</time>
      </trkpt>
      <trkpt lat="44.74121" lon="5.02059">
        <ele>285.60000610352</ele>
        <time>2016-06-09T15:05:16.000Z</time>
      </trkpt>
      <trkpt lat="44.74117" lon="5.02049">
        <ele>285.39999389648</ele>
        <time>2016-06-09T15:05:19.000Z</time>
      </trkpt>
      <trkpt lat="44.74114" lon="5.02042">
        <ele>285.39999389648</ele>
        <time>2016-06-09T15:05:21.000Z</time>
      </trkpt>
      <trkpt lat="44.74106" lon="5.02022">
        <ele>284.79998779297</ele>
        <time>2016-06-09T15:05:27.000Z</time>
      </trkpt>
      <trkpt lat="44.74102" lon="5.02014">
        <ele>284.39999389648</ele>
        <time>2016-06-09T15:05:30.000Z</time>
      </trkpt>
      <trkpt lat="44.74102" lon="5.02011">
        <ele>284.60000610352</ele>
        <time>2016-06-09T15:05:31.000Z</time>
      </trkpt>
      <trkpt lat="44.74093" lon="5.01994">
        <ele>285.20001220703</ele>
        <time>2016-06-09T15:05:37.000Z</time>
      </trkpt>
      <trkpt lat="44.74083" lon="5.01976">
        <ele>285.79998779297</ele>
        <time>2016-06-09T15:05:44.000Z</time>
      </trkpt>
      <trkpt lat="44.74076" lon="5.01961">
        <ele>285.60000610352</ele>
        <time>2016-06-09T15:05:49.000Z</time>
      </trkpt>
      <trkpt lat="44.74065" lon="5.01941">
        <ele>285.39999389648</ele>
        <time>2016-06-09T15:05:56.000Z</time>
      </trkpt>
      <trkpt lat="44.7406" lon="5.01927">
        <ele>285.60000610352</ele>
        <time>2016-06-09T15:06:01.000Z</time>
      </trkpt>
      <trkpt lat="44.74052" lon="5.01909">
        <ele>285.20001220703</ele>
        <time>2016-06-09T15:06:07.000Z</time>
      </trkpt>
      <trkpt lat="44.74047" lon="5.01891">
        <ele>285</ele>
        <time>2016-06-09T15:06:13.000Z</time>
      </trkpt>
      <trkpt lat="44.74043" lon="5.01872">
        <ele>285</ele>
        <time>2016-06-09T15:06:19.000Z</time>
      </trkpt>
      <trkpt lat="44.74037" lon="5.01853">
        <ele>285.60000610352</ele>
        <time>2016-06-09T15:06:25.000Z</time>
      </trkpt>
      <trkpt lat="44.74034" lon="5.01837">
        <ele>284.79998779297</ele>
        <time>2016-06-09T15:06:30.000Z</time>
      </trkpt>
      <trkpt lat="44.74029" lon="5.01816">
        <ele>284.60000610352</ele>
        <time>2016-06-09T15:06:36.000Z</time>
      </trkpt>
      <trkpt lat="44.74023" lon="5.01798">
        <ele>285</ele>
        <time>2016-06-09T15:06:42.000Z</time>
      </trkpt>
      <trkpt lat="44.74021" lon="5.01788">
        <ele>285.39999389648</ele>
        <time>2016-06-09T15:06:46.000Z</time>
      </trkpt>
      <trkpt lat="44.74016" lon="5.0177">
        <ele>285.39999389648</ele>
        <time>2016-06-09T15:06:52.000Z</time>
      </trkpt>
      <trkpt lat="44.7401" lon="5.01755">
        <ele>284.60000610352</ele>
        <time>2016-06-09T15:06:57.000Z</time>
      </trkpt>
      <trkpt lat="44.74005" lon="5.01735">
        <ele>284.79998779297</ele>
        <time>2016-06-09T15:07:03.000Z</time>
      </trkpt>
      <trkpt lat="44.74007" lon="5.01715">
        <ele>284.39999389648</ele>
        <time>2016-06-09T15:07:08.000Z</time>
      </trkpt>
      <trkpt lat="44.74012" lon="5.017">
        <ele>284.20001220703</ele>
        <time>2016-06-09T15:07:12.000Z</time>
      </trkpt>
      <trkpt lat="44.74014" lon="5.01697">
        <ele>285.60000610352</ele>
        <time>2016-06-09T15:07:13.000Z</time>
      </trkpt>
      <trkpt lat="44.74016" lon="5.01694">
        <ele>285.60000610352</ele>
        <time>2016-06-09T15:07:14.000Z</time>
      </trkpt>
      <trkpt lat="44.74025" lon="5.01679">
        <ele>284.79998779297</ele>
        <time>2016-06-09T15:07:19.000Z</time>
      </trkpt>
      <trkpt lat="44.74034" lon="5.01662">
        <ele>284.79998779297</ele>
        <time>2016-06-09T15:07:25.000Z</time>
      </trkpt>
      <trkpt lat="44.74046" lon="5.01642">
        <ele>285.20001220703</ele>
        <time>2016-06-09T15:07:32.000Z</time>
      </trkpt>
      <trkpt lat="44.74048" lon="5.01639">
        <ele>285</ele>
        <time>2016-06-09T15:07:33.000Z</time>
      </trkpt>
      <trkpt lat="44.7405" lon="5.01637">
        <ele>284.20001220703</ele>
        <time>2016-06-09T15:07:34.000Z</time>
      </trkpt>
      <trkpt lat="44.74055" lon="5.01629">
        <ele>285.20001220703</ele>
        <time>2016-06-09T15:07:37.000Z</time>
      </trkpt>
      <trkpt lat="44.74059" lon="5.01623">
        <ele>285.20001220703</ele>
        <time>2016-06-09T15:07:39.000Z</time>
      </trkpt>
      <trkpt lat="44.74062" lon="5.01618">
        <ele>286.39999389648</ele>
        <time>2016-06-09T15:07:41.000Z</time>
      </trkpt>
      <trkpt lat="44.7407" lon="5.01608">
        <ele>285.79998779297</ele>
        <time>2016-06-09T15:07:45.000Z</time>
      </trkpt>
      <trkpt lat="44.74071" lon="5.01605">
        <ele>285</ele>
        <time>2016-06-09T15:07:46.000Z</time>
      </trkpt>
      <trkpt lat="44.74079" lon="5.01593">
        <ele>284.79998779297</ele>
        <time>2016-06-09T15:07:50.000Z</time>
      </trkpt>
      <trkpt lat="44.74088" lon="5.01577">
        <ele>284</ele>
        <time>2016-06-09T15:07:55.000Z</time>
      </trkpt>
      <trkpt lat="44.74102" lon="5.01557">
        <ele>282.60000610352</ele>
        <time>2016-06-09T15:08:02.000Z</time>
      </trkpt>
      <trkpt lat="44.74105" lon="5.01546">
        <ele>282.39999389648</ele>
        <time>2016-06-09T15:08:06.000Z</time>
      </trkpt>
      <trkpt lat="44.74102" lon="5.01544">
        <ele>282.60000610352</ele>
        <time>2016-06-09T15:08:07.000Z</time>
      </trkpt>
      <trkpt lat="44.74095" lon="5.01541">
        <ele>281.39999389648</ele>
        <time>2016-06-09T15:08:10.000Z</time>
      </trkpt>
      <trkpt lat="44.7409" lon="5.01541">
        <ele>280.39999389648</ele>
        <time>2016-06-09T15:08:12.000Z</time>
      </trkpt>
      <trkpt lat="44.74088" lon="5.01541">
        <ele>280.20001220703</ele>
        <time>2016-06-09T15:08:13.000Z</time>
      </trkpt>
      <trkpt lat="44.74075" lon="5.01539">
        <ele>279.60000610352</ele>
        <time>2016-06-09T15:08:18.000Z</time>
      </trkpt>
      <trkpt lat="44.74067" lon="5.01538">
        <ele>279.39999389648</ele>
        <time>2016-06-09T15:08:22.000Z</time>
      </trkpt>
      <trkpt lat="44.74052" lon="5.0153">
        <ele>280.60000610352</ele>
        <time>2016-06-09T15:08:29.000Z</time>
      </trkpt>
      <trkpt lat="44.74048" lon="5.01527">
        <ele>281.20001220703</ele>
        <time>2016-06-09T15:08:31.000Z</time>
      </trkpt>
      <trkpt lat="44.74042" lon="5.01521">
        <ele>281</ele>
        <time>2016-06-09T15:08:34.000Z</time>
      </trkpt>
      <trkpt lat="44.74028" lon="5.01509">
        <ele>281.60000610352</ele>
        <time>2016-06-09T15:08:41.000Z</time>
      </trkpt>
      <trkpt lat="44.74017" lon="5.01498">
        <ele>281.60000610352</ele>
        <time>2016-06-09T15:08:47.000Z</time>
      </trkpt>
      <trkpt lat="44.74007" lon="5.01483">
        <ele>281.39999389648</ele>
        <time>2016-06-09T15:08:53.000Z</time>
      </trkpt>
      <trkpt lat="44.74005" lon="5.01464">
        <ele>282.20001220703</ele>
        <time>2016-06-09T15:08:58.000Z</time>
      </trkpt>
      <trkpt lat="44.74006" lon="5.01443">
        <ele>282.60000610352</ele>
        <time>2016-06-09T15:09:04.000Z</time>
      </trkpt>
      <trkpt lat="44.74009" lon="5.01421">
        <ele>282.79998779297</ele>
        <time>2016-06-09T15:09:11.000Z</time>
      </trkpt>
      <trkpt lat="44.7401" lon="5.01404">
        <ele>282.39999389648</ele>
        <time>2016-06-09T15:09:16.000Z</time>
      </trkpt>
      <trkpt lat="44.74011" lon="5.01386">
        <ele>282.20001220703</ele>
        <time>2016-06-09T15:09:21.000Z</time>
      </trkpt>
      <trkpt lat="44.74014" lon="5.01365">
        <ele>282</ele>
        <time>2016-06-09T15:09:28.000Z</time>
      </trkpt>
      <trkpt lat="44.74016" lon="5.01351">
        <ele>281.79998779297</ele>
        <time>2016-06-09T15:09:32.000Z</time>
      </trkpt>
      <trkpt lat="44.74017" lon="5.01335">
        <ele>281.60000610352</ele>
        <time>2016-06-09T15:09:37.000Z</time>
      </trkpt>
      <trkpt lat="44.74021" lon="5.01312">
        <ele>281.79998779297</ele>
        <time>2016-06-09T15:09:44.000Z</time>
      </trkpt>
      <trkpt lat="44.74026" lon="5.01289">
        <ele>282.20001220703</ele>
        <time>2016-06-09T15:09:51.000Z</time>
      </trkpt>
      <trkpt lat="44.74028" lon="5.01277">
        <ele>281.20001220703</ele>
        <time>2016-06-09T15:09:55.000Z</time>
      </trkpt>
      <trkpt lat="44.74027" lon="5.0127">
        <ele>281.20001220703</ele>
        <time>2016-06-09T15:09:57.000Z</time>
      </trkpt>
      <trkpt lat="44.74027" lon="5.01263">
        <ele>281</ele>
        <time>2016-06-09T15:09:59.000Z</time>
      </trkpt>
      <trkpt lat="44.74025" lon="5.01255">
        <ele>280.20001220703</ele>
        <time>2016-06-09T15:10:02.000Z</time>
      </trkpt>
      <trkpt lat="44.74025" lon="5.0125">
        <ele>279</ele>
        <time>2016-06-09T15:10:04.000Z</time>
      </trkpt>
      <trkpt lat="44.74024" lon="5.01247">
        <ele>278.60000610352</ele>
        <time>2016-06-09T15:10:05.000Z</time>
      </trkpt>
      <trkpt lat="44.74022" lon="5.01244">
        <ele>277.79998779297</ele>
        <time>2016-06-09T15:10:06.000Z</time>
      </trkpt>
      <trkpt lat="44.74018" lon="5.01232">
        <ele>276.79998779297</ele>
        <time>2016-06-09T15:10:10.000Z</time>
      </trkpt>
      <trkpt lat="44.74016" lon="5.01227">
        <ele>276.20001220703</ele>
        <time>2016-06-09T15:10:12.000Z</time>
      </trkpt>
      <trkpt lat="44.74015" lon="5.01224">
        <ele>276</ele>
        <time>2016-06-09T15:10:13.000Z</time>
      </trkpt>
      <trkpt lat="44.74014" lon="5.01222">
        <ele>275.60000610352</ele>
        <time>2016-06-09T15:10:14.000Z</time>
      </trkpt>
      <trkpt lat="44.74014" lon="5.01217">
        <ele>274.79998779297</ele>
        <time>2016-06-09T15:10:17.000Z</time>
      </trkpt>
      <trkpt lat="44.74013" lon="5.01214">
        <ele>274.60000610352</ele>
        <time>2016-06-09T15:10:18.000Z</time>
      </trkpt>
      <trkpt lat="44.74011" lon="5.01205">
        <ele>274.79998779297</ele>
        <time>2016-06-09T15:10:21.000Z</time>
      </trkpt>
      <trkpt lat="44.74009" lon="5.01192">
        <ele>274.39999389648</ele>
        <time>2016-06-09T15:10:25.000Z</time>
      </trkpt>
      <trkpt lat="44.74008" lon="5.01189">
        <ele>274.60000610352</ele>
        <time>2016-06-09T15:10:26.000Z</time>
      </trkpt>
      <trkpt lat="44.74002" lon="5.01163">
        <ele>274</ele>
        <time>2016-06-09T15:10:33.000Z</time>
      </trkpt>
      <trkpt lat="44.74002" lon="5.01155">
        <ele>274.60000610352</ele>
        <time>2016-06-09T15:10:35.000Z</time>
      </trkpt>
      <trkpt lat="44.74003" lon="5.01146">
        <ele>274.60000610352</ele>
        <time>2016-06-09T15:10:37.000Z</time>
      </trkpt>
      <trkpt lat="44.74007" lon="5.01134">
        <ele>275</ele>
        <time>2016-06-09T15:10:40.000Z</time>
      </trkpt>
      <trkpt lat="44.74008" lon="5.01131">
        <ele>274</ele>
        <time>2016-06-09T15:10:41.000Z</time>
      </trkpt>
      <trkpt lat="44.7401" lon="5.01122">
        <ele>272.79998779297</ele>
        <time>2016-06-09T15:10:43.000Z</time>
      </trkpt>
      <trkpt lat="44.74011" lon="5.01118">
        <ele>272.20001220703</ele>
        <time>2016-06-09T15:10:44.000Z</time>
      </trkpt>
      <trkpt lat="44.74012" lon="5.01114">
        <ele>271.79998779297</ele>
        <time>2016-06-09T15:10:45.000Z</time>
      </trkpt>
      <trkpt lat="44.74014" lon="5.01099">
        <ele>271.79998779297</ele>
        <time>2016-06-09T15:10:49.000Z</time>
      </trkpt>
      <trkpt lat="44.74014" lon="5.01097">
        <ele>271.60000610352</ele>
        <time>2016-06-09T15:10:50.000Z</time>
      </trkpt>
      <trkpt lat="44.74015" lon="5.0109">
        <ele>270</ele>
        <time>2016-06-09T15:10:52.000Z</time>
      </trkpt>
      <trkpt lat="44.74019" lon="5.01079">
        <ele>269.20001220703</ele>
        <time>2016-06-09T15:10:56.000Z</time>
      </trkpt>
      <trkpt lat="44.74019" lon="5.01076">
        <ele>268.60000610352</ele>
        <time>2016-06-09T15:10:57.000Z</time>
      </trkpt>
      <trkpt lat="44.74021" lon="5.01064">
        <ele>267.20001220703</ele>
        <time>2016-06-09T15:11:00.000Z</time>
      </trkpt>
      <trkpt lat="44.74024" lon="5.01059">
        <ele>266</ele>
        <time>2016-06-09T15:11:02.000Z</time>
      </trkpt>
      <trkpt lat="44.74025" lon="5.01054">
        <ele>265</ele>
        <time>2016-06-09T15:11:04.000Z</time>
      </trkpt>
      <trkpt lat="44.74026" lon="5.01051">
        <ele>264.39999389648</ele>
        <time>2016-06-09T15:11:05.000Z</time>
      </trkpt>
      <trkpt lat="44.74028" lon="5.01047">
        <ele>264</ele>
        <time>2016-06-09T15:11:07.000Z</time>
      </trkpt>
      <trkpt lat="44.74029" lon="5.01043">
        <ele>263</ele>
        <time>2016-06-09T15:11:09.000Z</time>
      </trkpt>
      <trkpt lat="44.74031" lon="5.01037">
        <ele>262.39999389648</ele>
        <time>2016-06-09T15:11:11.000Z</time>
      </trkpt>
      <trkpt lat="44.74032" lon="5.01031">
        <ele>261.79998779297</ele>
        <time>2016-06-09T15:11:13.000Z</time>
      </trkpt>
      <trkpt lat="44.74033" lon="5.01027">
        <ele>261.39999389648</ele>
        <time>2016-06-09T15:11:14.000Z</time>
      </trkpt>
      <trkpt lat="44.74036" lon="5.01016">
        <ele>260.39999389648</ele>
        <time>2016-06-09T15:11:18.000Z</time>
      </trkpt>
      <trkpt lat="44.74036" lon="5.01012">
        <ele>259.79998779297</ele>
        <time>2016-06-09T15:11:20.000Z</time>
      </trkpt>
      <trkpt lat="44.74035" lon="5.01007">
        <ele>259</ele>
        <time>2016-06-09T15:11:22.000Z</time>
      </trkpt>
      <trkpt lat="44.74025" lon="5.00997">
        <ele>257.79998779297</ele>
        <time>2016-06-09T15:13:18.000Z</time>
      </trkpt>
      <trkpt lat="44.74025" lon="5.00994">
        <ele>257.79998779297</ele>
        <time>2016-06-09T15:13:19.000Z</time>
      </trkpt>
      <trkpt lat="44.74024" lon="5.00986">
        <ele>266.20001220703</ele>
        <time>2016-06-09T15:13:22.000Z</time>
      </trkpt>
      <trkpt lat="44.74023" lon="5.00978">
        <ele>265.79998779297</ele>
        <time>2016-06-09T15:13:24.000Z</time>
      </trkpt>
      <trkpt lat="44.74023" lon="5.00972">
        <ele>261.60000610352</ele>
        <time>2016-06-09T15:13:27.000Z</time>
      </trkpt>
      <trkpt lat="44.74022" lon="5.00968">
        <ele>256.20001220703</ele>
        <time>2016-06-09T15:13:28.000Z</time>
      </trkpt>
      <trkpt lat="44.7402" lon="5.00959">
        <ele>254.60000610352</ele>
        <time>2016-06-09T15:13:31.000Z</time>
      </trkpt>
      <trkpt lat="44.7402" lon="5.00955">
        <ele>254.39999389648</ele>
        <time>2016-06-09T15:13:32.000Z</time>
      </trkpt>
      <trkpt lat="44.74018" lon="5.00953">
        <ele>254.19999694824</ele>
        <time>2016-06-09T15:13:33.000Z</time>
      </trkpt>
      <trkpt lat="44.74016" lon="5.00948">
        <ele>253.39999389648</ele>
        <time>2016-06-09T15:13:35.000Z</time>
      </trkpt>
      <trkpt lat="44.74015" lon="5.00943">
        <ele>252.60000610352</ele>
        <time>2016-06-09T15:13:37.000Z</time>
      </trkpt>
      <trkpt lat="44.74015" lon="5.0094">
        <ele>253</ele>
        <time>2016-06-09T15:13:38.000Z</time>
      </trkpt>
      <trkpt lat="44.74014" lon="5.00936">
        <ele>252.39999389648</ele>
        <time>2016-06-09T15:13:40.000Z</time>
      </trkpt>
      <trkpt lat="44.74014" lon="5.00933">
        <ele>252</ele>
        <time>2016-06-09T15:13:41.000Z</time>
      </trkpt>
      <trkpt lat="44.74016" lon="5.00931">
        <ele>251.80000305176</ele>
        <time>2016-06-09T15:13:42.000Z</time>
      </trkpt>
      <trkpt lat="44.74019" lon="5.00926">
        <ele>250.60000610352</ele>
        <time>2016-06-09T15:13:44.000Z</time>
      </trkpt>
      <trkpt lat="44.74026" lon="5.00923">
        <ele>249.60000610352</ele>
        <time>2016-06-09T15:13:48.000Z</time>
      </trkpt>
      <trkpt lat="44.74032" lon="5.00917">
        <ele>248.39999389648</ele>
        <time>2016-06-09T15:13:51.000Z</time>
      </trkpt>
      <trkpt lat="44.74036" lon="5.00913">
        <ele>247.60000610352</ele>
        <time>2016-06-09T15:13:53.000Z</time>
      </trkpt>
      <trkpt lat="44.74038" lon="5.0091">
        <ele>247</ele>
        <time>2016-06-09T15:13:54.000Z</time>
      </trkpt>
      <trkpt lat="44.74042" lon="5.00905">
        <ele>245.80000305176</ele>
        <time>2016-06-09T15:13:56.000Z</time>
      </trkpt>
      <trkpt lat="44.74043" lon="5.00901">
        <ele>245.39999389648</ele>
        <time>2016-06-09T15:13:57.000Z</time>
      </trkpt>
      <trkpt lat="44.74047" lon="5.00895">
        <ele>245.39999389648</ele>
        <time>2016-06-09T15:13:59.000Z</time>
      </trkpt>
      <trkpt lat="44.74051" lon="5.00888">
        <ele>244.60000610352</ele>
        <time>2016-06-09T15:14:01.000Z</time>
      </trkpt>
      <trkpt lat="44.74053" lon="5.00886">
        <ele>244.39999389648</ele>
        <time>2016-06-09T15:14:02.000Z</time>
      </trkpt>
      <trkpt lat="44.74054" lon="5.00882">
        <ele>244</ele>
        <time>2016-06-09T15:14:03.000Z</time>
      </trkpt>
      <trkpt lat="44.74055" lon="5.00879">
        <ele>243.19999694824</ele>
        <time>2016-06-09T15:14:04.000Z</time>
      </trkpt>
      <trkpt lat="44.74058" lon="5.00872">
        <ele>242.60000610352</ele>
        <time>2016-06-09T15:14:06.000Z</time>
      </trkpt>
      <trkpt lat="44.74059" lon="5.00869">
        <ele>242</ele>
        <time>2016-06-09T15:14:07.000Z</time>
      </trkpt>
      <trkpt lat="44.74061" lon="5.00865">
        <ele>241.80000305176</ele>
        <time>2016-06-09T15:14:08.000Z</time>
      </trkpt>
      <trkpt lat="44.74062" lon="5.00863">
        <ele>241.80000305176</ele>
        <time>2016-06-09T15:14:09.000Z</time>
      </trkpt>
      <trkpt lat="44.74061" lon="5.0086">
        <ele>241.39999389648</ele>
        <time>2016-06-09T15:14:10.000Z</time>
      </trkpt>
      <trkpt lat="44.74058" lon="5.00856">
        <ele>241</ele>
        <time>2016-06-09T15:14:12.000Z</time>
      </trkpt>
      <trkpt lat="44.74055" lon="5.00854">
        <ele>240</ele>
        <time>2016-06-09T15:14:14.000Z</time>
      </trkpt>
      <trkpt lat="44.74053" lon="5.00854">
        <ele>239.80000305176</ele>
        <time>2016-06-09T15:14:15.000Z</time>
      </trkpt>
      <trkpt lat="44.74049" lon="5.00858">
        <ele>239.39999389648</ele>
        <time>2016-06-09T15:14:18.000Z</time>
      </trkpt>
      <trkpt lat="44.74044" lon="5.00863">
        <ele>238.80000305176</ele>
        <time>2016-06-09T15:14:20.000Z</time>
      </trkpt>
      <trkpt lat="44.74039" lon="5.00865">
        <ele>239</ele>
        <time>2016-06-09T15:14:22.000Z</time>
      </trkpt>
      <trkpt lat="44.74035" lon="5.00867">
        <ele>238.39999389648</ele>
        <time>2016-06-09T15:14:24.000Z</time>
      </trkpt>
      <trkpt lat="44.7403" lon="5.00869">
        <ele>238</ele>
        <time>2016-06-09T15:14:26.000Z</time>
      </trkpt>
      <trkpt lat="44.74027" lon="5.00869">
        <ele>237</ele>
        <time>2016-06-09T15:14:27.000Z</time>
      </trkpt>
      <trkpt lat="44.74019" lon="5.00869">
        <ele>235.60000610352</ele>
        <time>2016-06-09T15:14:31.000Z</time>
      </trkpt>
      <trkpt lat="44.74006" lon="5.00872">
        <ele>234.60000610352</ele>
        <time>2016-06-09T15:14:36.000Z</time>
      </trkpt>
      <trkpt lat="44.74001" lon="5.00875">
        <ele>234.19999694824</ele>
        <time>2016-06-09T15:14:38.000Z</time>
      </trkpt>
      <trkpt lat="44.73997" lon="5.00879">
        <ele>233.60000610352</ele>
        <time>2016-06-09T15:14:40.000Z</time>
      </trkpt>
      <trkpt lat="44.73994" lon="5.0088">
        <ele>233.39999389648</ele>
        <time>2016-06-09T15:14:41.000Z</time>
      </trkpt>
      <trkpt lat="44.73991" lon="5.00882">
        <ele>233.19999694824</ele>
        <time>2016-06-09T15:14:42.000Z</time>
      </trkpt>
      <trkpt lat="44.73981" lon="5.00891">
        <ele>232.39999389648</ele>
        <time>2016-06-09T15:14:46.000Z</time>
      </trkpt>
      <trkpt lat="44.73975" lon="5.00889">
        <ele>231.80000305176</ele>
        <time>2016-06-09T15:14:48.000Z</time>
      </trkpt>
      <trkpt lat="44.7397" lon="5.00883">
        <ele>231.60000610352</ele>
        <time>2016-06-09T15:14:50.000Z</time>
      </trkpt>
      <trkpt lat="44.73968" lon="5.0088">
        <ele>231.19999694824</ele>
        <time>2016-06-09T15:14:51.000Z</time>
      </trkpt>
      <trkpt lat="44.73958" lon="5.00872">
        <ele>229.80000305176</ele>
        <time>2016-06-09T15:14:55.000Z</time>
      </trkpt>
      <trkpt lat="44.73956" lon="5.00871">
        <ele>229.60000610352</ele>
        <time>2016-06-09T15:14:56.000Z</time>
      </trkpt>
      <trkpt lat="44.73944" lon="5.00863">
        <ele>229</ele>
        <time>2016-06-09T15:15:00.000Z</time>
      </trkpt>
      <trkpt lat="44.73942" lon="5.00861">
        <ele>228.60000610352</ele>
        <time>2016-06-09T15:15:01.000Z</time>
      </trkpt>
      <trkpt lat="44.73934" lon="5.00854">
        <ele>227.60000610352</ele>
        <time>2016-06-09T15:15:04.000Z</time>
      </trkpt>
      <trkpt lat="44.7393" lon="5.00851">
        <ele>226.80000305176</ele>
        <time>2016-06-09T15:15:06.000Z</time>
      </trkpt>
      <trkpt lat="44.73926" lon="5.00849">
        <ele>226.19999694824</ele>
        <time>2016-06-09T15:15:08.000Z</time>
      </trkpt>
      <trkpt lat="44.73921" lon="5.00848">
        <ele>225.39999389648</ele>
        <time>2016-06-09T15:15:10.000Z</time>
      </trkpt>
      <trkpt lat="44.73919" lon="5.00846">
        <ele>225</ele>
        <time>2016-06-09T15:15:11.000Z</time>
      </trkpt>
      <trkpt lat="44.73917" lon="5.00844">
        <ele>224.80000305176</ele>
        <time>2016-06-09T15:15:12.000Z</time>
      </trkpt>
      <trkpt lat="44.73909" lon="5.00837">
        <ele>224</ele>
        <time>2016-06-09T15:15:15.000Z</time>
      </trkpt>
      <trkpt lat="44.739" lon="5.00832">
        <ele>223.80000305176</ele>
        <time>2016-06-09T15:15:18.000Z</time>
      </trkpt>
      <trkpt lat="44.73894" lon="5.00832">
        <ele>223.60000610352</ele>
        <time>2016-06-09T15:15:20.000Z</time>
      </trkpt>
      <trkpt lat="44.73892" lon="5.00833">
        <ele>223.19999694824</ele>
        <time>2016-06-09T15:15:21.000Z</time>
      </trkpt>
      <trkpt lat="44.73891" lon="5.00835">
        <ele>222.19999694824</ele>
        <time>2016-06-09T15:15:22.000Z</time>
      </trkpt>
      <trkpt lat="44.73887" lon="5.0084">
        <ele>221.80000305176</ele>
        <time>2016-06-09T15:15:24.000Z</time>
      </trkpt>
      <trkpt lat="44.73883" lon="5.00849">
        <ele>221.80000305176</ele>
        <time>2016-06-09T15:15:27.000Z</time>
      </trkpt>
      <trkpt lat="44.73881" lon="5.00853">
        <ele>221.60000610352</ele>
        <time>2016-06-09T15:15:29.000Z</time>
      </trkpt>
      <trkpt lat="44.73873" lon="5.00866">
        <ele>221.60000610352</ele>
        <time>2016-06-09T15:15:34.000Z</time>
      </trkpt>
      <trkpt lat="44.73859" lon="5.00882">
        <ele>221.39999389648</ele>
        <time>2016-06-09T15:15:40.000Z</time>
      </trkpt>
      <trkpt lat="44.73857" lon="5.00883">
        <ele>221</ele>
        <time>2016-06-09T15:15:41.000Z</time>
      </trkpt>
      <trkpt lat="44.73849" lon="5.00894">
        <ele>220.60000610352</ele>
        <time>2016-06-09T15:15:45.000Z</time>
      </trkpt>
      <trkpt lat="44.73838" lon="5.00908">
        <ele>221</ele>
        <time>2016-06-09T15:15:51.000Z</time>
      </trkpt>
      <trkpt lat="44.73826" lon="5.00923">
        <ele>220.19999694824</ele>
        <time>2016-06-09T15:15:58.000Z</time>
      </trkpt>
      <trkpt lat="44.73822" lon="5.00927">
        <ele>220</ele>
        <time>2016-06-09T15:16:00.000Z</time>
      </trkpt>
      <trkpt lat="44.73815" lon="5.00935">
        <ele>219.80000305176</ele>
        <time>2016-06-09T15:16:04.000Z</time>
      </trkpt>
      <trkpt lat="44.73805" lon="5.00947">
        <ele>220.19999694824</ele>
        <time>2016-06-09T15:16:10.000Z</time>
      </trkpt>
      <trkpt lat="44.73795" lon="5.00957">
        <ele>220</ele>
        <time>2016-06-09T15:16:15.000Z</time>
      </trkpt>
      <trkpt lat="44.73783" lon="5.00969">
        <ele>220</ele>
        <time>2016-06-09T15:16:21.000Z</time>
      </trkpt>
      <trkpt lat="44.73773" lon="5.00979">
        <ele>219.60000610352</ele>
        <time>2016-06-09T15:16:26.000Z</time>
      </trkpt>
      <trkpt lat="44.73763" lon="5.00988">
        <ele>218.80000305176</ele>
        <time>2016-06-09T15:16:30.000Z</time>
      </trkpt>
      <trkpt lat="44.73758" lon="5.00993">
        <ele>218.60000610352</ele>
        <time>2016-06-09T15:16:32.000Z</time>
      </trkpt>
      <trkpt lat="44.73749" lon="5.01002">
        <ele>218.19999694824</ele>
        <time>2016-06-09T15:16:36.000Z</time>
      </trkpt>
      <trkpt lat="44.73736" lon="5.01008">
        <ele>218</ele>
        <time>2016-06-09T15:16:40.000Z</time>
      </trkpt>
      <trkpt lat="44.73727" lon="5.0101">
        <ele>217.60000610352</ele>
        <time>2016-06-09T15:16:43.000Z</time>
      </trkpt>
      <trkpt lat="44.73719" lon="5.01009">
        <ele>217.39999389648</ele>
        <time>2016-06-09T15:16:46.000Z</time>
      </trkpt>
      <trkpt lat="44.73703" lon="5.01008">
        <ele>216.60000610352</ele>
        <time>2016-06-09T15:16:51.000Z</time>
      </trkpt>
      <trkpt lat="44.73701" lon="5.01008">
        <ele>216.80000305176</ele>
        <time>2016-06-09T15:16:52.000Z</time>
      </trkpt>
      <trkpt lat="44.73689" lon="5.01009">
        <ele>215.39999389648</ele>
        <time>2016-06-09T15:16:56.000Z</time>
      </trkpt>
      <trkpt lat="44.73686" lon="5.01009">
        <ele>215</ele>
        <time>2016-06-09T15:16:57.000Z</time>
      </trkpt>
      <trkpt lat="44.73681" lon="5.0101">
        <ele>214.39999389648</ele>
        <time>2016-06-09T15:17:00.000Z</time>
      </trkpt>
      <trkpt lat="44.73676" lon="5.01012">
        <ele>214.39999389648</ele>
        <time>2016-06-09T15:17:02.000Z</time>
      </trkpt>
      <trkpt lat="44.73665" lon="5.01027">
        <ele>214</ele>
        <time>2016-06-09T15:17:08.000Z</time>
      </trkpt>
      <trkpt lat="44.73656" lon="5.01042">
        <ele>213.80000305176</ele>
        <time>2016-06-09T15:17:14.000Z</time>
      </trkpt>
      <trkpt lat="44.73651" lon="5.0105">
        <ele>213.80000305176</ele>
        <time>2016-06-09T15:17:17.000Z</time>
      </trkpt>
      <trkpt lat="44.73643" lon="5.01055">
        <ele>213.80000305176</ele>
        <time>2016-06-09T15:17:21.000Z</time>
      </trkpt>
      <trkpt lat="44.73641" lon="5.01057">
        <ele>213.80000305176</ele>
        <time>2016-06-09T15:17:22.000Z</time>
      </trkpt>
      <trkpt lat="44.73627" lon="5.01067">
        <ele>214</ele>
        <time>2016-06-09T15:17:28.000Z</time>
      </trkpt>
      <trkpt lat="44.73618" lon="5.0108">
        <ele>214.19999694824</ele>
        <time>2016-06-09T15:17:33.000Z</time>
      </trkpt>
      <trkpt lat="44.73614" lon="5.01092">
        <ele>214</ele>
        <time>2016-06-09T15:17:37.000Z</time>
      </trkpt>
      <trkpt lat="44.73607" lon="5.01114">
        <ele>213.39999389648</ele>
        <time>2016-06-09T15:17:44.000Z</time>
      </trkpt>
      <trkpt lat="44.73601" lon="5.01127">
        <ele>213.60000610352</ele>
        <time>2016-06-09T15:17:48.000Z</time>
      </trkpt>
      <trkpt lat="44.73598" lon="5.01134">
        <ele>213.80000305176</ele>
        <time>2016-06-09T15:17:50.000Z</time>
      </trkpt>
      <trkpt lat="44.73592" lon="5.01144">
        <ele>213.80000305176</ele>
        <time>2016-06-09T15:17:53.000Z</time>
      </trkpt>
      <trkpt lat="44.73589" lon="5.01153">
        <ele>213.60000610352</ele>
        <time>2016-06-09T15:17:55.000Z</time>
      </trkpt>
      <trkpt lat="44.73586" lon="5.01159">
        <ele>213</ele>
        <time>2016-06-09T15:17:57.000Z</time>
      </trkpt>
      <trkpt lat="44.73579" lon="5.0117">
        <ele>212</ele>
        <time>2016-06-09T15:18:00.000Z</time>
      </trkpt>
      <trkpt lat="44.73577" lon="5.01172">
        <ele>211.80000305176</ele>
        <time>2016-06-09T15:18:01.000Z</time>
      </trkpt>
      <trkpt lat="44.73574" lon="5.01175">
        <ele>211.19999694824</ele>
        <time>2016-06-09T15:18:02.000Z</time>
      </trkpt>
      <trkpt lat="44.7357" lon="5.01181">
        <ele>210.60000610352</ele>
        <time>2016-06-09T15:18:04.000Z</time>
      </trkpt>
      <trkpt lat="44.73564" lon="5.0119">
        <ele>209.60000610352</ele>
        <time>2016-06-09T15:18:07.000Z</time>
      </trkpt>
      <trkpt lat="44.73555" lon="5.01202">
        <ele>208.39999389648</ele>
        <time>2016-06-09T15:18:11.000Z</time>
      </trkpt>
      <trkpt lat="44.73552" lon="5.01205">
        <ele>208.39999389648</ele>
        <time>2016-06-09T15:18:12.000Z</time>
      </trkpt>
      <trkpt lat="44.73539" lon="5.01217">
        <ele>207.39999389648</ele>
        <time>2016-06-09T15:18:17.000Z</time>
      </trkpt>
      <trkpt lat="44.73534" lon="5.01221">
        <ele>207.39999389648</ele>
        <time>2016-06-09T15:18:19.000Z</time>
      </trkpt>
      <trkpt lat="44.73521" lon="5.01221">
        <ele>205.80000305176</ele>
        <time>2016-06-09T15:18:23.000Z</time>
      </trkpt>
      <trkpt lat="44.73511" lon="5.01211">
        <ele>204.39999389648</ele>
        <time>2016-06-09T15:18:27.000Z</time>
      </trkpt>
      <trkpt lat="44.73504" lon="5.01203">
        <ele>203</ele>
        <time>2016-06-09T15:18:30.000Z</time>
      </trkpt>
      <trkpt lat="44.73494" lon="5.01194">
        <ele>202</ele>
        <time>2016-06-09T15:18:34.000Z</time>
      </trkpt>
      <trkpt lat="44.73481" lon="5.0118">
        <ele>201.19999694824</ele>
        <time>2016-06-09T15:18:39.000Z</time>
      </trkpt>
      <trkpt lat="44.7347" lon="5.01167">
        <ele>201.39999389648</ele>
        <time>2016-06-09T15:18:44.000Z</time>
      </trkpt>
      <trkpt lat="44.73466" lon="5.01161">
        <ele>200.80000305176</ele>
        <time>2016-06-09T15:18:46.000Z</time>
      </trkpt>
      <trkpt lat="44.73459" lon="5.01152">
        <ele>200.60000610352</ele>
        <time>2016-06-09T15:18:49.000Z</time>
      </trkpt>
      <trkpt lat="44.73453" lon="5.01145">
        <ele>199.80000305176</ele>
        <time>2016-06-09T15:18:52.000Z</time>
      </trkpt>
      <trkpt lat="44.73449" lon="5.0114">
        <ele>199.80000305176</ele>
        <time>2016-06-09T15:18:54.000Z</time>
      </trkpt>
      <trkpt lat="44.73443" lon="5.01134">
        <ele>199.19999694824</ele>
        <time>2016-06-09T15:18:57.000Z</time>
      </trkpt>
      <trkpt lat="44.73441" lon="5.01134">
        <ele>198.60000610352</ele>
        <time>2016-06-09T15:18:58.000Z</time>
      </trkpt>
      <trkpt lat="44.73434" lon="5.01144">
        <ele>197.80000305176</ele>
        <time>2016-06-09T15:19:02.000Z</time>
      </trkpt>
      <trkpt lat="44.73431" lon="5.01151">
        <ele>197.80000305176</ele>
        <time>2016-06-09T15:19:04.000Z</time>
      </trkpt>
      <trkpt lat="44.73428" lon="5.01159">
        <ele>198.19999694824</ele>
        <time>2016-06-09T15:19:07.000Z</time>
      </trkpt>
      <trkpt lat="44.73421" lon="5.01174">
        <ele>198.60000610352</ele>
        <time>2016-06-09T15:19:12.000Z</time>
      </trkpt>
      <trkpt lat="44.7341" lon="5.01194">
        <ele>199</ele>
        <time>2016-06-09T15:19:19.000Z</time>
      </trkpt>
      <trkpt lat="44.73406" lon="5.012">
        <ele>200.19999694824</ele>
        <time>2016-06-09T15:19:21.000Z</time>
      </trkpt>
      <trkpt lat="44.73399" lon="5.01217">
        <ele>200.19999694824</ele>
        <time>2016-06-09T15:19:26.000Z</time>
      </trkpt>
      <trkpt lat="44.73392" lon="5.01234">
        <ele>200.39999389648</ele>
        <time>2016-06-09T15:19:32.000Z</time>
      </trkpt>
      <trkpt lat="44.73388" lon="5.01247">
        <ele>200</ele>
        <time>2016-06-09T15:19:37.000Z</time>
      </trkpt>
      <trkpt lat="44.73388" lon="5.0125">
        <ele>199.80000305176</ele>
        <time>2016-06-09T15:19:38.000Z</time>
      </trkpt>
      <trkpt lat="44.7339" lon="5.01261">
        <ele>199.80000305176</ele>
        <time>2016-06-09T15:19:42.000Z</time>
      </trkpt>
      <trkpt lat="44.73393" lon="5.01264">
        <ele>199.80000305176</ele>
        <time>2016-06-09T15:19:44.000Z</time>
      </trkpt>
      <trkpt lat="44.73402" lon="5.01272">
        <ele>200.39999389648</ele>
        <time>2016-06-09T15:19:49.000Z</time>
      </trkpt>
      <trkpt lat="44.7341" lon="5.01279">
        <ele>199.80000305176</ele>
        <time>2016-06-09T15:19:54.000Z</time>
      </trkpt>
      <trkpt lat="44.73419" lon="5.01285">
        <ele>201.19999694824</ele>
        <time>2016-06-09T15:19:59.000Z</time>
      </trkpt>
      <trkpt lat="44.73424" lon="5.01289">
        <ele>202.60000610352</ele>
        <time>2016-06-09T15:20:02.000Z</time>
      </trkpt>
      <trkpt lat="44.73427" lon="5.01291">
        <ele>203</ele>
        <time>2016-06-09T15:20:04.000Z</time>
      </trkpt>
      <trkpt lat="44.73438" lon="5.01297">
        <ele>203.80000305176</ele>
        <time>2016-06-09T15:20:10.000Z</time>
      </trkpt>
      <trkpt lat="44.7345" lon="5.01301">
        <ele>203</ele>
        <time>2016-06-09T15:20:17.000Z</time>
      </trkpt>
      <trkpt lat="44.73458" lon="5.01306">
        <ele>203.39999389648</ele>
        <time>2016-06-09T15:20:22.000Z</time>
      </trkpt>
      <trkpt lat="44.73464" lon="5.01311">
        <ele>203.60000610352</ele>
        <time>2016-06-09T15:20:27.000Z</time>
      </trkpt>
      <trkpt lat="44.73473" lon="5.01315">
        <ele>204</ele>
        <time>2016-06-09T15:20:33.000Z</time>
      </trkpt>
      <trkpt lat="44.73477" lon="5.01318">
        <ele>205</ele>
        <time>2016-06-09T15:20:37.000Z</time>
      </trkpt>
      <trkpt lat="44.7348" lon="5.01319">
        <ele>206</ele>
        <time>2016-06-09T15:20:39.000Z</time>
      </trkpt>
      <trkpt lat="44.7349" lon="5.01324">
        <ele>205.39999389648</ele>
        <time>2016-06-09T15:20:46.000Z</time>
      </trkpt>
      <trkpt lat="44.73497" lon="5.01327">
        <ele>207.19999694824</ele>
        <time>2016-06-09T15:20:50.000Z</time>
      </trkpt>
      <trkpt lat="44.73499" lon="5.01328">
        <ele>207.60000610352</ele>
        <time>2016-06-09T15:20:51.000Z</time>
      </trkpt>
      <trkpt lat="44.73503" lon="5.01335">
        <ele>207.19999694824</ele>
        <time>2016-06-09T15:20:56.000Z</time>
      </trkpt>
      <trkpt lat="44.735" lon="5.01352">
        <ele>207.80000305176</ele>
        <time>2016-06-09T15:21:02.000Z</time>
      </trkpt>
      <trkpt lat="44.73499" lon="5.0136">
        <ele>209</ele>
        <time>2016-06-09T15:21:05.000Z</time>
      </trkpt>
      <trkpt lat="44.73498" lon="5.01364">
        <ele>208.19999694824</ele>
        <time>2016-06-09T15:21:06.000Z</time>
      </trkpt>
      <trkpt lat="44.73494" lon="5.01381">
        <ele>208.60000610352</ele>
        <time>2016-06-09T15:21:12.000Z</time>
      </trkpt>
      <trkpt lat="44.73491" lon="5.01391">
        <ele>207</ele>
        <time>2016-06-09T15:21:15.000Z</time>
      </trkpt>
      <trkpt lat="44.73489" lon="5.01399">
        <ele>207</ele>
        <time>2016-06-09T15:21:18.000Z</time>
      </trkpt>
      <trkpt lat="44.73487" lon="5.01405">
        <ele>208.19999694824</ele>
        <time>2016-06-09T15:21:20.000Z</time>
      </trkpt>
      <trkpt lat="44.73486" lon="5.01408">
        <ele>209.39999389648</ele>
        <time>2016-06-09T15:21:21.000Z</time>
      </trkpt>
      <trkpt lat="44.73483" lon="5.0142">
        <ele>210.19999694824</ele>
        <time>2016-06-09T15:21:25.000Z</time>
      </trkpt>
      <trkpt lat="44.7348" lon="5.01439">
        <ele>209</ele>
        <time>2016-06-09T15:21:31.000Z</time>
      </trkpt>
      <trkpt lat="44.7348" lon="5.01445">
        <ele>208.60000610352</ele>
        <time>2016-06-09T15:21:33.000Z</time>
      </trkpt>
      <trkpt lat="44.7348" lon="5.0145">
        <ele>208.60000610352</ele>
        <time>2016-06-09T15:21:35.000Z</time>
      </trkpt>
      <trkpt lat="44.73474" lon="5.01464">
        <ele>209.80000305176</ele>
        <time>2016-06-09T15:21:40.000Z</time>
      </trkpt>
      <trkpt lat="44.73461" lon="5.0148">
        <ele>208.80000305176</ele>
        <time>2016-06-09T15:21:46.000Z</time>
      </trkpt>
      <trkpt lat="44.73458" lon="5.01483">
        <ele>208.19999694824</ele>
        <time>2016-06-09T15:21:47.000Z</time>
      </trkpt>
      <trkpt lat="44.73451" lon="5.01489">
        <ele>207</ele>
        <time>2016-06-09T15:21:50.000Z</time>
      </trkpt>
      <trkpt lat="44.73449" lon="5.01491">
        <ele>206.60000610352</ele>
        <time>2016-06-09T15:21:51.000Z</time>
      </trkpt>
      <trkpt lat="44.7344" lon="5.015">
        <ele>206</ele>
        <time>2016-06-09T15:21:55.000Z</time>
      </trkpt>
      <trkpt lat="44.73438" lon="5.01502">
        <ele>205</ele>
        <time>2016-06-09T15:21:56.000Z</time>
      </trkpt>
      <trkpt lat="44.73427" lon="5.01516">
        <ele>203.60000610352</ele>
        <time>2016-06-09T15:22:02.000Z</time>
      </trkpt>
      <trkpt lat="44.73418" lon="5.01529">
        <ele>203.80000305176</ele>
        <time>2016-06-09T15:22:07.000Z</time>
      </trkpt>
      <trkpt lat="44.73407" lon="5.01541">
        <ele>204.80000305176</ele>
        <time>2016-06-09T15:22:13.000Z</time>
      </trkpt>
      <trkpt lat="44.73399" lon="5.01553">
        <ele>204.39999389648</ele>
        <time>2016-06-09T15:22:18.000Z</time>
      </trkpt>
      <trkpt lat="44.73394" lon="5.0157">
        <ele>203.80000305176</ele>
        <time>2016-06-09T15:22:23.000Z</time>
      </trkpt>
      <trkpt lat="44.73393" lon="5.01573">
        <ele>204</ele>
        <time>2016-06-09T15:22:24.000Z</time>
      </trkpt>
      <trkpt lat="44.73389" lon="5.0159">
        <ele>204</ele>
        <time>2016-06-09T15:22:29.000Z</time>
      </trkpt>
      <trkpt lat="44.73385" lon="5.01604">
        <ele>203.80000305176</ele>
        <time>2016-06-09T15:22:33.000Z</time>
      </trkpt>
      <trkpt lat="44.73383" lon="5.01619">
        <ele>203.39999389648</ele>
        <time>2016-06-09T15:22:38.000Z</time>
      </trkpt>
      <trkpt lat="44.73381" lon="5.01638">
        <ele>203.80000305176</ele>
        <time>2016-06-09T15:22:44.000Z</time>
      </trkpt>
      <trkpt lat="44.73376" lon="5.01658">
        <ele>204</ele>
        <time>2016-06-09T15:22:50.000Z</time>
      </trkpt>
      <trkpt lat="44.73372" lon="5.01667">
        <ele>202.80000305176</ele>
        <time>2016-06-09T15:22:53.000Z</time>
      </trkpt>
      <trkpt lat="44.7337" lon="5.01673">
        <ele>203</ele>
        <time>2016-06-09T15:22:55.000Z</time>
      </trkpt>
      <trkpt lat="44.73363" lon="5.01696">
        <ele>202.80000305176</ele>
        <time>2016-06-09T15:23:02.000Z</time>
      </trkpt>
      <trkpt lat="44.73361" lon="5.01702">
        <ele>203.80000305176</ele>
        <time>2016-06-09T15:23:04.000Z</time>
      </trkpt>
      <trkpt lat="44.73357" lon="5.01711">
        <ele>204.19999694824</ele>
        <time>2016-06-09T15:23:07.000Z</time>
      </trkpt>
      <trkpt lat="44.73348" lon="5.0173">
        <ele>203.39999389648</ele>
        <time>2016-06-09T15:23:14.000Z</time>
      </trkpt>
      <trkpt lat="44.73342" lon="5.01742">
        <ele>203.60000610352</ele>
        <time>2016-06-09T15:23:19.000Z</time>
      </trkpt>
      <trkpt lat="44.73336" lon="5.01756">
        <ele>204.19999694824</ele>
        <time>2016-06-09T15:23:25.000Z</time>
      </trkpt>
      <trkpt lat="44.73335" lon="5.01758">
        <ele>204.39999389648</ele>
        <time>2016-06-09T15:23:26.000Z</time>
      </trkpt>
      <trkpt lat="44.73331" lon="5.01765">
        <ele>204.60000610352</ele>
        <time>2016-06-09T15:23:30.000Z</time>
      </trkpt>
      <trkpt lat="44.73328" lon="5.0177">
        <ele>204.80000305176</ele>
        <time>2016-06-09T15:23:32.000Z</time>
      </trkpt>
      <trkpt lat="44.73322" lon="5.01778">
        <ele>204.80000305176</ele>
        <time>2016-06-09T15:23:36.000Z</time>
      </trkpt>
      <trkpt lat="44.73312" lon="5.01792">
        <ele>205.60000610352</ele>
        <time>2016-06-09T15:23:42.000Z</time>
      </trkpt>
      <trkpt lat="44.73304" lon="5.01803">
        <ele>205.39999389648</ele>
        <time>2016-06-09T15:23:48.000Z</time>
      </trkpt>
      <trkpt lat="44.73299" lon="5.01813">
        <ele>205.80000305176</ele>
        <time>2016-06-09T15:23:52.000Z</time>
      </trkpt>
      <trkpt lat="44.73298" lon="5.01815">
        <ele>205.80000305176</ele>
        <time>2016-06-09T15:23:53.000Z</time>
      </trkpt>
      <trkpt lat="44.73292" lon="5.01834">
        <ele>205.39999389648</ele>
        <time>2016-06-09T15:23:59.000Z</time>
      </trkpt>
      <trkpt lat="44.73288" lon="5.01855">
        <ele>206.19999694824</ele>
        <time>2016-06-09T15:24:06.000Z</time>
      </trkpt>
      <trkpt lat="44.73287" lon="5.01871">
        <ele>206.19999694824</ele>
        <time>2016-06-09T15:24:11.000Z</time>
      </trkpt>
      <trkpt lat="44.73286" lon="5.0188">
        <ele>207</ele>
        <time>2016-06-09T15:24:14.000Z</time>
      </trkpt>
      <trkpt lat="44.73285" lon="5.01888">
        <ele>207.19999694824</ele>
        <time>2016-06-09T15:24:17.000Z</time>
      </trkpt>
      <trkpt lat="44.73282" lon="5.01903">
        <ele>207.39999389648</ele>
        <time>2016-06-09T15:24:22.000Z</time>
      </trkpt>
      <trkpt lat="44.73275" lon="5.0192">
        <ele>208.19999694824</ele>
        <time>2016-06-09T15:24:28.000Z</time>
      </trkpt>
      <trkpt lat="44.73274" lon="5.01922">
        <ele>208.19999694824</ele>
        <time>2016-06-09T15:24:29.000Z</time>
      </trkpt>
      <trkpt lat="44.73269" lon="5.01939">
        <ele>208.80000305176</ele>
        <time>2016-06-09T15:24:35.000Z</time>
      </trkpt>
      <trkpt lat="44.73267" lon="5.01953">
        <ele>209.39999389648</ele>
        <time>2016-06-09T15:24:40.000Z</time>
      </trkpt>
      <trkpt lat="44.73264" lon="5.01964">
        <ele>210</ele>
        <time>2016-06-09T15:24:45.000Z</time>
      </trkpt>
      <trkpt lat="44.73262" lon="5.01968">
        <ele>210.39999389648</ele>
        <time>2016-06-09T15:24:47.000Z</time>
      </trkpt>
      <trkpt lat="44.73259" lon="5.01979">
        <ele>211.60000610352</ele>
        <time>2016-06-09T15:24:51.000Z</time>
      </trkpt>
      <trkpt lat="44.73255" lon="5.01989">
        <ele>212.19999694824</ele>
        <time>2016-06-09T15:24:56.000Z</time>
      </trkpt>
      <trkpt lat="44.73254" lon="5.01993">
        <ele>212.80000305176</ele>
        <time>2016-06-09T15:24:58.000Z</time>
      </trkpt>
      <trkpt lat="44.73252" lon="5.01998">
        <ele>213</ele>
        <time>2016-06-09T15:25:01.000Z</time>
      </trkpt>
      <trkpt lat="44.73249" lon="5.02008">
        <ele>213</ele>
        <time>2016-06-09T15:25:07.000Z</time>
      </trkpt>
      <trkpt lat="44.73246" lon="5.02018">
        <ele>212.39999389648</ele>
        <time>2016-06-09T15:25:12.000Z</time>
      </trkpt>
      <trkpt lat="44.73242" lon="5.02029">
        <ele>212.60000610352</ele>
        <time>2016-06-09T15:25:18.000Z</time>
      </trkpt>
      <trkpt lat="44.73242" lon="5.02031">
        <ele>212.60000610352</ele>
        <time>2016-06-09T15:25:19.000Z</time>
      </trkpt>
      <trkpt lat="44.73241" lon="5.02035">
        <ele>213.80000305176</ele>
        <time>2016-06-09T15:25:22.000Z</time>
      </trkpt>
      <trkpt lat="44.7324" lon="5.02039">
        <ele>214.19999694824</ele>
        <time>2016-06-09T15:25:24.000Z</time>
      </trkpt>
      <trkpt lat="44.73239" lon="5.02048">
        <ele>213.60000610352</ele>
        <time>2016-06-09T15:25:28.000Z</time>
      </trkpt>
      <trkpt lat="44.73239" lon="5.0205">
        <ele>213.60000610352</ele>
        <time>2016-06-09T15:25:29.000Z</time>
      </trkpt>
      <trkpt lat="44.73239" lon="5.02051">
        <ele>213.60000610352</ele>
        <time>2016-06-09T15:25:30.000Z</time>
      </trkpt>
      <trkpt lat="44.73238" lon="5.02058">
        <ele>214.39999389648</ele>
        <time>2016-06-09T15:25:33.000Z</time>
      </trkpt>
      <trkpt lat="44.73237" lon="5.02061">
        <ele>214.19999694824</ele>
        <time>2016-06-09T15:25:35.000Z</time>
      </trkpt>
      <trkpt lat="44.73235" lon="5.02067">
        <ele>214.39999389648</ele>
        <time>2016-06-09T15:25:38.000Z</time>
      </trkpt>
      <trkpt lat="44.73233" lon="5.02073">
        <ele>214.60000610352</ele>
        <time>2016-06-09T15:25:42.000Z</time>
      </trkpt>
      <trkpt lat="44.73233" lon="5.02075">
        <ele>214.80000305176</ele>
        <time>2016-06-09T15:25:43.000Z</time>
      </trkpt>
      <trkpt lat="44.73234" lon="5.02076">
        <ele>215</ele>
        <time>2016-06-09T15:25:44.000Z</time>
      </trkpt>
      <trkpt lat="44.73233" lon="5.0208">
        <ele>215.39999389648</ele>
        <time>2016-06-09T15:25:47.000Z</time>
      </trkpt>
      <trkpt lat="44.7323" lon="5.02086">
        <ele>216.80000305176</ele>
        <time>2016-06-09T15:25:50.000Z</time>
      </trkpt>
      <trkpt lat="44.73229" lon="5.02089">
        <ele>216.80000305176</ele>
        <time>2016-06-09T15:25:51.000Z</time>
      </trkpt>
      <trkpt lat="44.7322" lon="5.02101">
        <ele>216.19999694824</ele>
        <time>2016-06-09T15:25:56.000Z</time>
      </trkpt>
      <trkpt lat="44.73218" lon="5.02102">
        <ele>215.80000305176</ele>
        <time>2016-06-09T15:25:57.000Z</time>
      </trkpt>
      <trkpt lat="44.73215" lon="5.02103">
        <ele>215.39999389648</ele>
        <time>2016-06-09T15:25:58.000Z</time>
      </trkpt>
      <trkpt lat="44.7321" lon="5.02104">
        <ele>213.60000610352</ele>
        <time>2016-06-09T15:26:00.000Z</time>
      </trkpt>
      <trkpt lat="44.73208" lon="5.02104">
        <ele>213.19999694824</ele>
        <time>2016-06-09T15:26:01.000Z</time>
      </trkpt>
      <trkpt lat="44.73201" lon="5.02103">
        <ele>212.39999389648</ele>
        <time>2016-06-09T15:26:04.000Z</time>
      </trkpt>
      <trkpt lat="44.73199" lon="5.02103">
        <ele>213.39999389648</ele>
        <time>2016-06-09T15:26:05.000Z</time>
      </trkpt>
      <trkpt lat="44.73188" lon="5.02104">
        <ele>212.60000610352</ele>
        <time>2016-06-09T15:26:10.000Z</time>
      </trkpt>
      <trkpt lat="44.73181" lon="5.02106">
        <ele>213.39999389648</ele>
        <time>2016-06-09T15:26:15.000Z</time>
      </trkpt>
      <trkpt lat="44.73179" lon="5.02107">
        <ele>213.19999694824</ele>
        <time>2016-06-09T15:26:18.000Z</time>
      </trkpt>
      <trkpt lat="44.73178" lon="5.02107">
        <ele>213.19999694824</ele>
        <time>2016-06-09T15:26:19.000Z</time>
      </trkpt>
      <trkpt lat="44.73169" lon="5.02108">
        <ele>214.39999389648</ele>
        <time>2016-06-09T15:26:24.000Z</time>
      </trkpt>
      <trkpt lat="44.73167" lon="5.02108">
        <ele>214.60000610352</ele>
        <time>2016-06-09T15:26:25.000Z</time>
      </trkpt>
      <trkpt lat="44.73163" lon="5.02109">
        <ele>215.60000610352</ele>
        <time>2016-06-09T15:26:28.000Z</time>
      </trkpt>
      <trkpt lat="44.73162" lon="5.02109">
        <ele>215.60000610352</ele>
        <time>2016-06-09T15:26:29.000Z</time>
      </trkpt>
      <trkpt lat="44.73155" lon="5.0211">
        <ele>215.39999389648</ele>
        <time>2016-06-09T15:26:33.000Z</time>
      </trkpt>
      <trkpt lat="44.73152" lon="5.02111">
        <ele>215.39999389648</ele>
        <time>2016-06-09T15:26:37.000Z</time>
      </trkpt>
      <trkpt lat="44.73151" lon="5.02111">
        <ele>215.60000610352</ele>
        <time>2016-06-09T15:26:38.000Z</time>
      </trkpt>
      <trkpt lat="44.73145" lon="5.0211">
        <ele>216.80000305176</ele>
        <time>2016-06-09T15:26:43.000Z</time>
      </trkpt>
      <trkpt lat="44.7314" lon="5.02109">
        <ele>217.60000610352</ele>
        <time>2016-06-09T15:26:48.000Z</time>
      </trkpt>
      <trkpt lat="44.73138" lon="5.0211">
        <ele>217.80000305176</ele>
        <time>2016-06-09T15:26:50.000Z</time>
      </trkpt>
      <trkpt lat="44.73136" lon="5.0211">
        <ele>218</ele>
        <time>2016-06-09T15:26:51.000Z</time>
      </trkpt>
      <trkpt lat="44.73135" lon="5.0211">
        <ele>219</ele>
        <time>2016-06-09T15:26:52.000Z</time>
      </trkpt>
      <trkpt lat="44.73133" lon="5.02109">
        <ele>219.60000610352</ele>
        <time>2016-06-09T15:26:54.000Z</time>
      </trkpt>
      <trkpt lat="44.73132" lon="5.02108">
        <ele>220</ele>
        <time>2016-06-09T15:26:56.000Z</time>
      </trkpt>
      <trkpt lat="44.73128" lon="5.02108">
        <ele>220</ele>
        <time>2016-06-09T15:26:58.000Z</time>
      </trkpt>
      <trkpt lat="44.73121" lon="5.0211">
        <ele>221.19999694824</ele>
        <time>2016-06-09T15:27:02.000Z</time>
      </trkpt>
      <trkpt lat="44.7312" lon="5.0211">
        <ele>221</ele>
        <time>2016-06-09T15:27:03.000Z</time>
      </trkpt>
      <trkpt lat="44.73119" lon="5.02111">
        <ele>221</ele>
        <time>2016-06-09T15:27:04.000Z</time>
      </trkpt>
      <trkpt lat="44.73115" lon="5.02112">
        <ele>221.19999694824</ele>
        <time>2016-06-09T15:27:07.000Z</time>
      </trkpt>
      <trkpt lat="44.73111" lon="5.02113">
        <ele>221.60000610352</ele>
        <time>2016-06-09T15:27:11.000Z</time>
      </trkpt>
      <trkpt lat="44.73108" lon="5.02114">
        <ele>222</ele>
        <time>2016-06-09T15:27:13.000Z</time>
      </trkpt>
      <trkpt lat="44.73106" lon="5.02115">
        <ele>222.19999694824</ele>
        <time>2016-06-09T15:27:14.000Z</time>
      </trkpt>
      <trkpt lat="44.73105" lon="5.02115">
        <ele>222.19999694824</ele>
        <time>2016-06-09T15:27:15.000Z</time>
      </trkpt>
      <trkpt lat="44.73102" lon="5.02117">
        <ele>222.60000610352</ele>
        <time>2016-06-09T15:27:19.000Z</time>
      </trkpt>
      <trkpt lat="44.73101" lon="5.02116">
        <ele>223.39999389648</ele>
        <time>2016-06-09T15:27:20.000Z</time>
      </trkpt>
      <trkpt lat="44.73096" lon="5.02117">
        <ele>223.60000610352</ele>
        <time>2016-06-09T15:27:24.000Z</time>
      </trkpt>
      <trkpt lat="44.73091" lon="5.02118">
        <ele>224</ele>
        <time>2016-06-09T15:27:29.000Z</time>
      </trkpt>
      <trkpt lat="44.73085" lon="5.02118">
        <ele>223.60000610352</ele>
        <time>2016-06-09T15:27:33.000Z</time>
      </trkpt>
      <trkpt lat="44.73084" lon="5.02118">
        <ele>224.60000610352</ele>
        <time>2016-06-09T15:27:35.000Z</time>
      </trkpt>
      <trkpt lat="44.73081" lon="5.0212">
        <ele>225</ele>
        <time>2016-06-09T15:27:38.000Z</time>
      </trkpt>
      <trkpt lat="44.73079" lon="5.0212">
        <ele>224.80000305176</ele>
        <time>2016-06-09T15:27:39.000Z</time>
      </trkpt>
      <trkpt lat="44.73074" lon="5.02123">
        <ele>225.80000305176</ele>
        <time>2016-06-09T15:27:43.000Z</time>
      </trkpt>
      <trkpt lat="44.73073" lon="5.02123">
        <ele>226.19999694824</ele>
        <time>2016-06-09T15:27:44.000Z</time>
      </trkpt>
      <trkpt lat="44.7307" lon="5.02123">
        <ele>226.60000610352</ele>
        <time>2016-06-09T15:27:47.000Z</time>
      </trkpt>
      <trkpt lat="44.73069" lon="5.02123">
        <ele>226.80000305176</ele>
        <time>2016-06-09T15:27:48.000Z</time>
      </trkpt>
      <trkpt lat="44.73064" lon="5.02122">
        <ele>228</ele>
        <time>2016-06-09T15:27:51.000Z</time>
      </trkpt>
      <trkpt lat="44.73061" lon="5.02122">
        <ele>228.39999389648</ele>
        <time>2016-06-09T15:27:53.000Z</time>
      </trkpt>
      <trkpt lat="44.73058" lon="5.02121">
        <ele>229.39999389648</ele>
        <time>2016-06-09T15:27:55.000Z</time>
      </trkpt>
      <trkpt lat="44.73058" lon="5.0212">
        <ele>229.60000610352</ele>
        <time>2016-06-09T15:27:57.000Z</time>
      </trkpt>
      <trkpt lat="44.73054" lon="5.0212">
        <ele>229</ele>
        <time>2016-06-09T15:27:59.000Z</time>
      </trkpt>
      <trkpt lat="44.73051" lon="5.0212">
        <ele>229.39999389648</ele>
        <time>2016-06-09T15:28:01.000Z</time>
      </trkpt>
      <trkpt lat="44.73041" lon="5.02121">
        <ele>230.19999694824</ele>
        <time>2016-06-09T15:28:06.000Z</time>
      </trkpt>
      <trkpt lat="44.73041" lon="5.02123">
        <ele>230.60000610352</ele>
        <time>2016-06-09T15:28:07.000Z</time>
      </trkpt>
      <trkpt lat="44.73038" lon="5.02124">
        <ele>230.80000305176</ele>
        <time>2016-06-09T15:28:09.000Z</time>
      </trkpt>
      <trkpt lat="44.73037" lon="5.02125">
        <ele>232</ele>
        <time>2016-06-09T15:28:10.000Z</time>
      </trkpt>
      <trkpt lat="44.73035" lon="5.02125">
        <ele>232.19999694824</ele>
        <time>2016-06-09T15:28:12.000Z</time>
      </trkpt>
      <trkpt lat="44.73035" lon="5.02125">
        <ele>233</ele>
        <time>2016-06-09T15:28:14.000Z</time>
      </trkpt>
      <trkpt lat="44.73033" lon="5.02125">
        <ele>232.19999694824</ele>
        <time>2016-06-09T15:28:16.000Z</time>
      </trkpt>
      <trkpt lat="44.73031" lon="5.02126">
        <ele>232.60000610352</ele>
        <time>2016-06-09T15:28:18.000Z</time>
      </trkpt>
      <trkpt lat="44.7303" lon="5.02126">
        <ele>232.60000610352</ele>
        <time>2016-06-09T15:28:21.000Z</time>
      </trkpt>
      <trkpt lat="44.73024" lon="5.02126">
        <ele>233.80000305176</ele>
        <time>2016-06-09T15:28:25.000Z</time>
      </trkpt>
      <trkpt lat="44.73022" lon="5.02127">
        <ele>234</ele>
        <time>2016-06-09T15:28:27.000Z</time>
      </trkpt>
      <trkpt lat="44.73018" lon="5.02126">
        <ele>233.80000305176</ele>
        <time>2016-06-09T15:28:29.000Z</time>
      </trkpt>
      <trkpt lat="44.73011" lon="5.02128">
        <ele>234.80000305176</ele>
        <time>2016-06-09T15:28:33.000Z</time>
      </trkpt>
      <trkpt lat="44.73008" lon="5.02128">
        <ele>235.19999694824</ele>
        <time>2016-06-09T15:28:35.000Z</time>
      </trkpt>
      <trkpt lat="44.73006" lon="5.02127">
        <ele>235.60000610352</ele>
        <time>2016-06-09T15:28:36.000Z</time>
      </trkpt>
      <trkpt lat="44.73003" lon="5.02128">
        <ele>236</ele>
        <time>2016-06-09T15:28:38.000Z</time>
      </trkpt>
      <trkpt lat="44.73" lon="5.02131">
        <ele>236.39999389648</ele>
        <time>2016-06-09T15:28:40.000Z</time>
      </trkpt>
      <trkpt lat="44.72998" lon="5.02134">
        <ele>237</ele>
        <time>2016-06-09T15:28:42.000Z</time>
      </trkpt>
      <trkpt lat="44.72994" lon="5.02138">
        <ele>237.39999389648</ele>
        <time>2016-06-09T15:28:45.000Z</time>
      </trkpt>
      <trkpt lat="44.72993" lon="5.0214">
        <ele>237.60000610352</ele>
        <time>2016-06-09T15:28:46.000Z</time>
      </trkpt>
      <trkpt lat="44.72982" lon="5.02145">
        <ele>236.80000305176</ele>
        <time>2016-06-09T15:28:51.000Z</time>
      </trkpt>
      <trkpt lat="44.72979" lon="5.02148">
        <ele>236.60000610352</ele>
        <time>2016-06-09T15:28:53.000Z</time>
      </trkpt>
      <trkpt lat="44.72973" lon="5.02152">
        <ele>235.60000610352</ele>
        <time>2016-06-09T15:28:56.000Z</time>
      </trkpt>
      <trkpt lat="44.72968" lon="5.02166">
        <ele>234.39999389648</ele>
        <time>2016-06-09T15:29:00.000Z</time>
      </trkpt>
      <trkpt lat="44.72967" lon="5.02169">
        <ele>234.19999694824</ele>
        <time>2016-06-09T15:29:01.000Z</time>
      </trkpt>
      <trkpt lat="44.72965" lon="5.02181">
        <ele>233.39999389648</ele>
        <time>2016-06-09T15:29:04.000Z</time>
      </trkpt>
      <trkpt lat="44.72964" lon="5.02192">
        <ele>233.80000305176</ele>
        <time>2016-06-09T15:29:07.000Z</time>
      </trkpt>
      <trkpt lat="44.72962" lon="5.02198">
        <ele>234.39999389648</ele>
        <time>2016-06-09T15:29:09.000Z</time>
      </trkpt>
      <trkpt lat="44.72961" lon="5.02208">
        <ele>234.19999694824</ele>
        <time>2016-06-09T15:29:12.000Z</time>
      </trkpt>
      <trkpt lat="44.72959" lon="5.02212">
        <ele>234</ele>
        <time>2016-06-09T15:29:13.000Z</time>
      </trkpt>
      <trkpt lat="44.72958" lon="5.02216">
        <ele>233.19999694824</ele>
        <time>2016-06-09T15:29:14.000Z</time>
      </trkpt>
      <trkpt lat="44.72953" lon="5.02224">
        <ele>232.39999389648</ele>
        <time>2016-06-09T15:29:17.000Z</time>
      </trkpt>
      <trkpt lat="44.72946" lon="5.02231">
        <ele>232.80000305176</ele>
        <time>2016-06-09T15:29:21.000Z</time>
      </trkpt>
      <trkpt lat="44.72939" lon="5.02237">
        <ele>232</ele>
        <time>2016-06-09T15:29:25.000Z</time>
      </trkpt>
      <trkpt lat="44.72933" lon="5.02245">
        <ele>231.60000610352</ele>
        <time>2016-06-09T15:29:30.000Z</time>
      </trkpt>
      <trkpt lat="44.72931" lon="5.02248">
        <ele>231</ele>
        <time>2016-06-09T15:29:34.000Z</time>
      </trkpt>
      <trkpt lat="44.72929" lon="5.02249">
        <ele>231.39999389648</ele>
        <time>2016-06-09T15:29:36.000Z</time>
      </trkpt>
      <trkpt lat="44.72923" lon="5.0225">
        <ele>231.39999389648</ele>
        <time>2016-06-09T15:29:39.000Z</time>
      </trkpt>
      <trkpt lat="44.72907" lon="5.02253">
        <ele>232.60000610352</ele>
        <time>2016-06-09T15:29:43.000Z</time>
      </trkpt>
      <trkpt lat="44.72904" lon="5.02254">
        <ele>234</ele>
        <time>2016-06-09T15:29:44.000Z</time>
      </trkpt>
      <trkpt lat="44.72901" lon="5.0226">
        <ele>234.39999389648</ele>
        <time>2016-06-09T15:29:46.000Z</time>
      </trkpt>
      <trkpt lat="44.72905" lon="5.02271">
        <ele>231.80000305176</ele>
        <time>2016-06-09T15:29:49.000Z</time>
      </trkpt>
      <trkpt lat="44.7291" lon="5.02278">
        <ele>231.60000610352</ele>
        <time>2016-06-09T15:29:53.000Z</time>
      </trkpt>
      <trkpt lat="44.72911" lon="5.02283">
        <ele>231.60000610352</ele>
        <time>2016-06-09T15:29:57.000Z</time>
      </trkpt>
      <trkpt lat="44.72914" lon="5.02286">
        <ele>231.39999389648</ele>
        <time>2016-06-09T15:30:00.000Z</time>
      </trkpt>
      <trkpt lat="44.72914" lon="5.02288">
        <ele>231.80000305176</ele>
        <time>2016-06-09T15:30:02.000Z</time>
      </trkpt>
      <trkpt lat="44.72914" lon="5.0229">
        <ele>232</ele>
        <time>2016-06-09T15:30:03.000Z</time>
      </trkpt>
      <trkpt lat="44.72915" lon="5.02292">
        <ele>232.19999694824</ele>
        <time>2016-06-09T15:30:05.000Z</time>
      </trkpt>
      <trkpt lat="44.72916" lon="5.02293">
        <ele>232.39999389648</ele>
        <time>2016-06-09T15:30:06.000Z</time>
      </trkpt>
      <trkpt lat="44.72918" lon="5.02298">
        <ele>232.80000305176</ele>
        <time>2016-06-09T15:30:09.000Z</time>
      </trkpt>
      <trkpt lat="44.72919" lon="5.023">
        <ele>233</ele>
        <time>2016-06-09T15:30:10.000Z</time>
      </trkpt>
      <trkpt lat="44.72921" lon="5.02303">
        <ele>233.39999389648</ele>
        <time>2016-06-09T15:30:12.000Z</time>
      </trkpt>
      <trkpt lat="44.72923" lon="5.02309">
        <ele>234</ele>
        <time>2016-06-09T15:30:15.000Z</time>
      </trkpt>
      <trkpt lat="44.72927" lon="5.02319">
        <ele>234.39999389648</ele>
        <time>2016-06-09T15:30:20.000Z</time>
      </trkpt>
      <trkpt lat="44.72927" lon="5.02322">
        <ele>235.60000610352</ele>
        <time>2016-06-09T15:30:21.000Z</time>
      </trkpt>
      <trkpt lat="44.7293" lon="5.02332">
        <ele>236.39999389648</ele>
        <time>2016-06-09T15:30:25.000Z</time>
      </trkpt>
      <trkpt lat="44.72936" lon="5.02336">
        <ele>235.60000610352</ele>
        <time>2016-06-09T15:30:29.000Z</time>
      </trkpt>
      <trkpt lat="44.72937" lon="5.02339">
        <ele>235.19999694824</ele>
        <time>2016-06-09T15:30:32.000Z</time>
      </trkpt>
      <trkpt lat="44.72938" lon="5.0235">
        <ele>235.19999694824</ele>
        <time>2016-06-09T15:30:36.000Z</time>
      </trkpt>
      <trkpt lat="44.72939" lon="5.02352">
        <ele>235.39999389648</ele>
        <time>2016-06-09T15:30:37.000Z</time>
      </trkpt>
      <trkpt lat="44.72941" lon="5.02355">
        <ele>235.60000610352</ele>
        <time>2016-06-09T15:30:39.000Z</time>
      </trkpt>
      <trkpt lat="44.72944" lon="5.02357">
        <ele>235.80000305176</ele>
        <time>2016-06-09T15:30:41.000Z</time>
      </trkpt>
      <trkpt lat="44.72943" lon="5.02356">
        <ele>236.80000305176</ele>
        <time>2016-06-09T15:30:43.000Z</time>
      </trkpt>
      <trkpt lat="44.72943" lon="5.02356">
        <ele>237</ele>
        <time>2016-06-09T15:30:44.000Z</time>
      </trkpt>
      <trkpt lat="44.72943" lon="5.02357">
        <ele>236</ele>
        <time>2016-06-09T15:30:49.000Z</time>
      </trkpt>
      <trkpt lat="44.72944" lon="5.02359">
        <ele>235.60000610352</ele>
        <time>2016-06-09T15:30:50.000Z</time>
      </trkpt>
      <trkpt lat="44.72945" lon="5.02368">
        <ele>234.80000305176</ele>
        <time>2016-06-09T15:30:53.000Z</time>
      </trkpt>
      <trkpt lat="44.72945" lon="5.02372">
        <ele>234.39999389648</ele>
        <time>2016-06-09T15:30:54.000Z</time>
      </trkpt>
      <trkpt lat="44.72946" lon="5.02383">
        <ele>233.19999694824</ele>
        <time>2016-06-09T15:30:57.000Z</time>
      </trkpt>
      <trkpt lat="44.72947" lon="5.02389">
        <ele>232.19999694824</ele>
        <time>2016-06-09T15:30:59.000Z</time>
      </trkpt>
      <trkpt lat="44.72947" lon="5.02392">
        <ele>231.80000305176</ele>
        <time>2016-06-09T15:31:00.000Z</time>
      </trkpt>
      <trkpt lat="44.72947" lon="5.02394">
        <ele>231.39999389648</ele>
        <time>2016-06-09T15:31:01.000Z</time>
      </trkpt>
      <trkpt lat="44.72946" lon="5.02397">
        <ele>231</ele>
        <time>2016-06-09T15:31:02.000Z</time>
      </trkpt>
      <trkpt lat="44.72944" lon="5.02407">
        <ele>230</ele>
        <time>2016-06-09T15:31:05.000Z</time>
      </trkpt>
      <trkpt lat="44.72943" lon="5.02413">
        <ele>229.39999389648</ele>
        <time>2016-06-09T15:31:07.000Z</time>
      </trkpt>
      <trkpt lat="44.72943" lon="5.02418">
        <ele>230</ele>
        <time>2016-06-09T15:31:09.000Z</time>
      </trkpt>
      <trkpt lat="44.72941" lon="5.02433">
        <ele>228.80000305176</ele>
        <time>2016-06-09T15:31:13.000Z</time>
      </trkpt>
      <trkpt lat="44.7294" lon="5.02436">
        <ele>227.19999694824</ele>
        <time>2016-06-09T15:31:14.000Z</time>
      </trkpt>
      <trkpt lat="44.72939" lon="5.02447">
        <ele>226.19999694824</ele>
        <time>2016-06-09T15:31:17.000Z</time>
      </trkpt>
      <trkpt lat="44.72941" lon="5.0245">
        <ele>226</ele>
        <time>2016-06-09T15:31:18.000Z</time>
      </trkpt>
      <trkpt lat="44.72947" lon="5.02457">
        <ele>226</ele>
        <time>2016-06-09T15:31:20.000Z</time>
      </trkpt>
      <trkpt lat="44.72949" lon="5.02466">
        <ele>225</ele>
        <time>2016-06-09T15:31:23.000Z</time>
      </trkpt>
      <trkpt lat="44.72948" lon="5.0247">
        <ele>224.80000305176</ele>
        <time>2016-06-09T15:31:24.000Z</time>
      </trkpt>
      <trkpt lat="44.72947" lon="5.02476">
        <ele>223.60000610352</ele>
        <time>2016-06-09T15:31:26.000Z</time>
      </trkpt>
      <trkpt lat="44.72946" lon="5.02486">
        <ele>222.39999389648</ele>
        <time>2016-06-09T15:31:29.000Z</time>
      </trkpt>
      <trkpt lat="44.72946" lon="5.02496">
        <ele>221</ele>
        <time>2016-06-09T15:31:32.000Z</time>
      </trkpt>
      <trkpt lat="44.72945" lon="5.02504">
        <ele>220.19999694824</ele>
        <time>2016-06-09T15:31:34.000Z</time>
      </trkpt>
      <trkpt lat="44.72944" lon="5.02508">
        <ele>219.60000610352</ele>
        <time>2016-06-09T15:31:35.000Z</time>
      </trkpt>
      <trkpt lat="44.72947" lon="5.02517">
        <ele>218.60000610352</ele>
        <time>2016-06-09T15:31:38.000Z</time>
      </trkpt>
      <trkpt lat="44.72947" lon="5.0252">
        <ele>218.19999694824</ele>
        <time>2016-06-09T15:31:39.000Z</time>
      </trkpt>
      <trkpt lat="44.72949" lon="5.02526">
        <ele>216.39999389648</ele>
        <time>2016-06-09T15:31:42.000Z</time>
      </trkpt>
      <trkpt lat="44.72948" lon="5.02539">
        <ele>215.60000610352</ele>
        <time>2016-06-09T15:31:47.000Z</time>
      </trkpt>
      <trkpt lat="44.72948" lon="5.02543">
        <ele>215</ele>
        <time>2016-06-09T15:31:48.000Z</time>
      </trkpt>
      <trkpt lat="44.72949" lon="5.02551">
        <ele>213.60000610352</ele>
        <time>2016-06-09T15:31:51.000Z</time>
      </trkpt>
      <trkpt lat="44.72953" lon="5.0256">
        <ele>213</ele>
        <time>2016-06-09T15:31:56.000Z</time>
      </trkpt>
      <trkpt lat="44.72954" lon="5.02561">
        <ele>213.39999389648</ele>
        <time>2016-06-09T15:31:57.000Z</time>
      </trkpt>
      <trkpt lat="44.72957" lon="5.02565">
        <ele>214.60000610352</ele>
        <time>2016-06-09T15:31:59.000Z</time>
      </trkpt>
      <trkpt lat="44.72959" lon="5.02567">
        <ele>214.60000610352</ele>
        <time>2016-06-09T15:32:00.000Z</time>
      </trkpt>
      <trkpt lat="44.7296" lon="5.02568">
        <ele>214.80000305176</ele>
        <time>2016-06-09T15:32:01.000Z</time>
      </trkpt>
      <trkpt lat="44.72962" lon="5.02578">
        <ele>214.60000610352</ele>
        <time>2016-06-09T15:32:06.000Z</time>
      </trkpt>
      <trkpt lat="44.72962" lon="5.02581">
        <ele>214.80000305176</ele>
        <time>2016-06-09T15:32:07.000Z</time>
      </trkpt>
      <trkpt lat="44.72964" lon="5.02591">
        <ele>215.60000610352</ele>
        <time>2016-06-09T15:32:11.000Z</time>
      </trkpt>
      <trkpt lat="44.72965" lon="5.02592">
        <ele>215.80000305176</ele>
        <time>2016-06-09T15:32:12.000Z</time>
      </trkpt>
      <trkpt lat="44.7297" lon="5.02598">
        <ele>216.60000610352</ele>
        <time>2016-06-09T15:32:16.000Z</time>
      </trkpt>
      <trkpt lat="44.72971" lon="5.026">
        <ele>217</ele>
        <time>2016-06-09T15:32:17.000Z</time>
      </trkpt>
      <trkpt lat="44.72973" lon="5.02605">
        <ele>217.39999389648</ele>
        <time>2016-06-09T15:32:19.000Z</time>
      </trkpt>
      <trkpt lat="44.72976" lon="5.02611">
        <ele>218.39999389648</ele>
        <time>2016-06-09T15:32:21.000Z</time>
      </trkpt>
      <trkpt lat="44.72976" lon="5.02618">
        <ele>218.80000305176</ele>
        <time>2016-06-09T15:32:23.000Z</time>
      </trkpt>
      <trkpt lat="44.72976" lon="5.02622">
        <ele>219.60000610352</ele>
        <time>2016-06-09T15:32:24.000Z</time>
      </trkpt>
      <trkpt lat="44.72978" lon="5.02632">
        <ele>219</ele>
        <time>2016-06-09T15:32:27.000Z</time>
      </trkpt>
      <trkpt lat="44.72981" lon="5.0265">
        <ele>218.60000610352</ele>
        <time>2016-06-09T15:32:32.000Z</time>
      </trkpt>
      <trkpt lat="44.72987" lon="5.02664">
        <ele>218.19999694824</ele>
        <time>2016-06-09T15:32:36.000Z</time>
      </trkpt>
      <trkpt lat="44.72977" lon="5.02674">
        <ele>218</ele>
        <time>2016-06-09T15:32:40.000Z</time>
      </trkpt>
      <trkpt lat="44.72971" lon="5.02679">
        <ele>217.80000305176</ele>
        <time>2016-06-09T15:32:43.000Z</time>
      </trkpt>
      <trkpt lat="44.72969" lon="5.0268">
        <ele>217</ele>
        <time>2016-06-09T15:32:44.000Z</time>
      </trkpt>
      <trkpt lat="44.72966" lon="5.0268">
        <ele>216.80000305176</ele>
        <time>2016-06-09T15:32:45.000Z</time>
      </trkpt>
      <trkpt lat="44.72955" lon="5.02685">
        <ele>215.80000305176</ele>
        <time>2016-06-09T15:32:50.000Z</time>
      </trkpt>
      <trkpt lat="44.72953" lon="5.02686">
        <ele>215.80000305176</ele>
        <time>2016-06-09T15:32:51.000Z</time>
      </trkpt>
      <trkpt lat="44.72942" lon="5.02692">
        <ele>215</ele>
        <time>2016-06-09T15:32:56.000Z</time>
      </trkpt>
      <trkpt lat="44.72941" lon="5.02695">
        <ele>214.80000305176</ele>
        <time>2016-06-09T15:32:57.000Z</time>
      </trkpt>
      <trkpt lat="44.7294" lon="5.02712">
        <ele>214.39999389648</ele>
        <time>2016-06-09T15:33:02.000Z</time>
      </trkpt>
      <trkpt lat="44.72938" lon="5.02723">
        <ele>213.60000610352</ele>
        <time>2016-06-09T15:33:05.000Z</time>
      </trkpt>
      <trkpt lat="44.72937" lon="5.02726">
        <ele>213.60000610352</ele>
        <time>2016-06-09T15:33:06.000Z</time>
      </trkpt>
      <trkpt lat="44.72937" lon="5.02738">
        <ele>213.39999389648</ele>
        <time>2016-06-09T15:33:10.000Z</time>
      </trkpt>
      <trkpt lat="44.72939" lon="5.02756">
        <ele>213.19999694824</ele>
        <time>2016-06-09T15:33:15.000Z</time>
      </trkpt>
      <trkpt lat="44.72938" lon="5.0276">
        <ele>212.19999694824</ele>
        <time>2016-06-09T15:33:16.000Z</time>
      </trkpt>
      <trkpt lat="44.7294" lon="5.02776">
        <ele>211.60000610352</ele>
        <time>2016-06-09T15:33:20.000Z</time>
      </trkpt>
      <trkpt lat="44.72941" lon="5.02779">
        <ele>211</ele>
        <time>2016-06-09T15:33:21.000Z</time>
      </trkpt>
      <trkpt lat="44.72939" lon="5.02787">
        <ele>210.39999389648</ele>
        <time>2016-06-09T15:33:25.000Z</time>
      </trkpt>
      <trkpt lat="44.72936" lon="5.02788">
        <ele>210</ele>
        <time>2016-06-09T15:33:27.000Z</time>
      </trkpt>
    </trkseg>
  </trk>
</gpx>